[[{"header":{"parameterUnit":"m.s-1","parameterCategory":1,"la1":31.0,"la2":29.5877,"lo1":-88.7671,"lo2":-86.6584,"dy":0.0162,"dx":0.0185,"nx":115,"ny":88,"refTime":"2024-03-02T18:00:00:Z","depth":0,"parameterNumber":2,"parameterNumberName":"U-component_of_WINDS"},"data":[0.0,0.0,0.0,0.0,0.0,0.0,0.0,0.0,0.0,0.0,0.0,0.0,0.0,0.0,0.0,0.0,0.0,0.0,0.0,0.0,0.0,0.0,0.0,0.0,0.0,0.0,0.0,0.0,0.0,0.0,0.0,0.0,0.0,0.0,0.0,0.0,0.0,0.0,0.0,0.0,0.0,0.0,0.0,0.0,0.0,0.0,0.0,0.0,0.0,0.0,0.0,0.0,0.0,0.0,0.0,0.0,0.0,0.0,0.0,0.0,0.0,0.0,0.0,0.0,0.0,0.0,0.0,0.0,0.0,0.0,0.0,0.0,0.0,0.0,0.0,0.0,0.0,0.0,0.0,0.0,0.0,0.0,0.0,0.0,0.0,0.0,0.0,0.0,0.0,0.0,0.0,0.0,0.0,0.0,0.0,0.0,0.0,0.0,0.0,0.0,0.0,0.0,0.0,0.0,0.0,0.0,0.0,0.0,0.0,0.0,0.0,0.0,0.0,0.0,0.0,0.0,0.0,0.0,0.0,0.0,0.0,0.0,0.0,0.0,0.0,0.0,0.0,0.0,0.0,0.0,0.0,0.0,0.0,0.0,0.0,0.0,0.0,0.0,0.0,0.0,0.0,0.0,0.0,0.0,0.0,0.0,0.0,0.0,0.0,0.0,0.0,0.0,0.0,0.0,0.0,0.0,0.0,0.0,0.0,0.0,0.0,0.0,0.0,0.0,0.0,0.0,0.0,0.0,0.0,0.0,0.0,0.0,0.0,0.0,0.0,0.0,0.0,0.0,0.0,0.0,0.0,0.0,0.0,0.0,0.0,0.0,0.0,0.0,0.0,0.0,0.0,0.0,0.0,0.0,0.0,0.0,0.0,0.0,0.0,0.0,0.0,0.0,0.0,0.0,0.0,0.0,0.0,0.0,0.0,0.0,0.0,0.0,0.0,0.0,0.0,0.0,0.0,0.0,0.0,0.0,0.0,0.0,0.0,0.0,0.0,0.0,0.0,0.0,0.0,0.0,0.0,0.0,0.0,0.0,0.0,0.0,0.0,0.0,0.0,0.0,0.0,0.0,0.0,0.0,0.0,0.0,0.0,0.0,0.0,0.0,0.0,0.0,0.0,0.0,0.0,0.0,0.0,0.0,0.0,0.0,0.0,0.0,0.0,0.0,0.0,0.0,0.0,0.0,0.0,0.0,0.0,0.0,0.0,0.0,0.0,0.0,0.0,0.0,0.0,0.0,0.0,0.0,0.0,0.0,0.0,0.0,0.0,0.0,0.0,0.0,0.0,0.0,0.0,0.0,0.0,0.0,0.0,0.0,0.0,0.0,0.0,0.0,0.0,0.0,0.0,0.0,0.0,0.0,0.0,0.0,0.0,0.0,0.0,0.0,0.0,0.0,0.0,0.0,0.0,0.0,0.0,0.0,0.0,0.0,0.0,0.0,0.0,0.0,0.0,0.0,0.0,0.0,0.0,0.0,0.0,0.0,0.0,0.0,0.0,0.0,0.0,0.0,0.0,0.0,0.0,0.0,0.0,0.0,0.0,0.0,0.0,0.0,0.0,0.0,0.0,0.0,0.0,0.0,0.0,0.0,0.0,0.0,0.0,0.0,0.0,0.0,0.0,0.0,0.0,0.0,0.0,0.0,0.0,0.0,0.0,0.0,0.0,0.0,0.0,0.0,0.0,0.0,0.0,0.0,0.0,0.0,0.0,0.0,0.0,0.0,0.0,0.0,0.0,0.0,0.0,0.0,0.0,0.0,0.0,0.0,0.0,0.0,0.0,0.0,0.0,0.0,0.0,0.0,0.0,0.0,0.0,0.0,0.0,0.0,0.0,0.0,0.0,0.0,0.0,0.0,0.0,0.0,0.0,0.0,0.0,0.0,0.0,0.0,0.0,0.0,0.0,0.0,0.0,0.0,0.0,0.0,0.0,0.0,0.0,0.0,0.0,0.0,0.0,0.0,0.0,0.0,0.0,0.0,0.0,0.0,0.0,0.0,0.0,0.0,0.0,0.0,0.0,0.0,0.0,0.0,0.0,0.0,0.0,0.0,0.0,0.0,0.0,0.0,0.0,0.0,0.0,0.0,0.0,0.0,0.0,0.0,0.0,0.0,0.0,0.0,0.0,0.0,0.0,0.0,0.0,0.0,0.0,0.0,0.0,0.0,0.0,0.0,0.0,0.0,0.0,0.0,0.0,0.0,0.0,0.0,0.0,0.0,0.0,0.0,0.0,0.0,0.0,0.0,0.0,0.0,0.0,0.0,0.0,0.0,0.0,0.0,0.0,0.0,0.0,0.0,0.0,0.0,0.0,0.0,0.0,0.0,0.0,0.0,0.0,0.0,0.0,0.0,0.0,0.0,0.0,0.0,0.0,0.0,0.0,0.0,0.0,0.0,0.0,0.0,0.0,0.0,0.0,0.0,0.0,0.0,0.0,0.0,0.0,0.0,0.0,0.0,0.0,0.0,0.0,0.0,0.0,0.0,0.0,0.0,0.0,0.0,0.0,0.0,0.0,0.0,0.0,0.0,0.0,0.0,0.0,0.0,0.0,0.0,0.0,0.0,0.0,0.0,0.0,0.0,0.0,0.0,0.0,0.0,0.0,0.0,0.0,0.0,0.0,0.0,0.0,0.0,0.0,0.0,0.0,0.0,0.0,0.0,0.0,0.0,0.0,0.0,0.0,0.0,0.0,0.0,0.0,0.0,0.0,0.0,0.0,0.0,0.0,0.0,0.0,0.0,0.0,0.0,0.0,0.0,0.0,0.0,0.0,0.0,0.0,0.0,0.0,0.0,0.0,0.0,0.0,0.0,0.0,0.0,0.0,0.0,0.0,0.0,0.0,0.0,0.0,0.0,0.0,0.0,0.0,0.0,0.0,0.0,0.0,0.0,0.0,0.0,0.0,0.0,0.0,0.0,0.0,0.0,0.0,0.0,0.0,0.0,0.0,0.0,0.0,0.0,0.0,0.0,0.0,0.0,0.0,0.0,0.0,0.0,0.0,0.0,0.0,0.0,0.0,0.0,0.0,0.0,0.0,0.0,0.0,0.0,0.0,0.0,0.0,0.0,0.0,0.0,0.0,0.0,0.0,0.0,0.0,0.0,0.0,0.0,0.0,0.0,0.0,0.0,0.0,0.0,0.0,0.0,0.0,0.0,0.0,0.0,0.0,0.0,0.0,0.0,0.0,0.0,0.0,0.0,0.0,0.0,0.0,0.0,0.0,0.0,0.0,0.0,0.0,0.0,0.0,0.0,0.0,0.0,0.0,0.0,0.0,0.0,0.0,0.0,0.0,0.0,0.0,0.0,0.0,0.0,0.0,0.0,0.0,0.0,0.0,0.0,0.0,0.0,0.0,0.0,0.0,0.0,0.0,0.0,0.0,0.0,0.0,0.0,0.0,0.0,0.0,0.0,0.0,0.0,0.0,0.0,0.0,0.0,0.0,0.0,0.0,0.0,0.0,0.0,0.0,0.0,0.0,0.0,0.0,0.0,0.0,0.0,0.0,0.0,0.0,0.0,0.0,0.0,0.0,0.0,0.0,0.0,0.0,0.0,0.0,0.0,0.0,0.0,0.0,0.0,0.0,0.0,0.0,0.0,0.0,0.0,0.0,0.0,0.0,0.0,0.0,0.0,0.0,0.0,0.0,0.0,0.0,0.0,0.0,0.0,0.0,0.0,0.0,0.0,0.0,0.0,0.0,0.0,0.0,0.0,0.0,0.0,0.0,0.0,0.0,0.0,0.0,0.0,0.0,0.0,0.0,0.0,0.0,0.0,0.0,0.0,0.0,0.0,0.0,0.0,0.0,0.0,0.0,0.0,0.0,0.0,0.0,0.0,0.0,0.0,0.0,0.0,0.0,0.0,0.0,0.0,0.0,0.0,0.0,0.0,0.0,0.0,0.0,0.0,0.0,0.0,0.0,0.0,0.0,0.0,0.0,0.0,0.0,0.0,0.0,0.0,0.0,0.0,0.0,0.0,0.0,0.0,0.0,0.0,0.0,0.0,0.0,0.0,0.0,0.0,0.0,0.0,0.0,0.0,0.0,0.0,0.0,0.0,0.0,0.0,0.0,0.0,0.0,0.0,0.0,0.0,0.0,0.0,0.0,0.0,0.0,0.0,0.0,0.0,0.0,0.0,0.0,0.0,0.0,0.0,0.0,0.0,0.0,0.0,0.0,0.0,0.0,0.0,0.0,0.0,0.0,0.0,0.0,0.0,0.0,0.0,0.0,0.0,0.0,0.0,0.0,0.0,0.0,0.0,0.0,0.0,3.0773,0.0,0.0,0.0,0.0,0.0,0.0,0.0,0.0,0.0,0.0,0.0,0.0,0.0,0.0,0.0,0.0,0.0,0.0,0.0,0.0,0.0,0.0,0.0,0.0,0.0,0.0,0.0,0.0,0.0,0.0,0.0,0.0,0.0,0.0,0.0,0.0,0.0,0.0,0.0,0.0,0.0,0.0,0.0,0.0,0.0,0.0,0.0,0.0,0.0,0.0,0.0,0.0,0.0,0.0,0.0,0.0,0.0,0.0,0.0,0.0,0.0,0.0,0.0,0.0,0.0,0.0,0.0,0.0,0.0,0.0,0.0,0.0,0.0,0.0,0.0,0.0,0.0,0.0,0.0,0.0,0.0,0.0,0.0,0.0,0.0,0.0,0.0,0.0,0.0,0.0,0.0,0.0,0.0,0.0,0.0,0.0,0.0,0.0,0.0,0.0,0.0,0.0,0.0,0.0,0.0,0.0,0.0,0.0,0.0,0.0,3.0773,3.0773,3.0708,3.0643,3.0526,0.0,0.0,0.0,0.0,0.0,0.0,0.0,0.0,0.0,0.0,0.0,0.0,0.0,0.0,0.0,0.0,0.0,0.0,0.0,0.0,0.0,0.0,0.0,0.0,0.0,0.0,0.0,0.0,0.0,0.0,0.0,0.0,0.0,0.0,0.0,0.0,0.0,0.0,0.0,0.0,0.0,0.0,0.0,0.0,0.0,0.0,0.0,0.0,0.0,0.0,0.0,0.0,0.0,0.0,0.0,0.0,0.0,0.0,0.0,0.0,0.0,0.0,0.0,0.0,0.0,0.0,0.0,0.0,0.0,0.0,0.0,0.0,0.0,0.0,0.0,0.0,0.0,0.0,0.0,0.0,0.0,0.0,0.0,0.0,0.0,0.0,0.0,0.0,0.0,0.0,0.0,0.0,0.0,0.0,0.0,0.0,0.0,0.0,0.0,0.0,0.0,0.0,0.0,0.0,0.0,0.0,0.0,0.0,0.0,0.0,0.0,0.0,3.0401,3.029,3.0231,0.0,0.0,0.0,0.0,0.0,0.0,0.0,0.0,0.0,0.0,0.0,0.0,0.0,0.0,0.0,0.0,0.0,0.0,0.0,0.0,0.0,0.0,0.0,0.0,0.0,0.0,0.0,0.0,0.0,0.0,0.0,0.0,0.0,0.0,0.0,0.0,0.0,0.0,0.0,0.0,0.0,0.0,0.0,0.0,0.0,0.0,0.0,0.0,0.0,0.0,0.0,0.0,0.0,0.0,0.0,0.0,0.0,0.0,0.0,0.0,0.0,0.0,0.0,0.0,0.0,0.0,0.0,0.0,0.0,0.0,0.0,0.0,0.0,0.0,0.0,0.0,0.0,0.0,0.0,0.0,0.0,0.0,0.0,0.0,0.0,0.0,0.0,0.0,0.0,0.0,0.0,0.0,0.0,0.0,0.0,0.0,0.0,0.0,0.0,0.0,0.0,0.0,0.0,0.0,0.0,0.0,0.0,0.0,0.0,0.0,3.0189,3.006,3.006,0.0,2.977,0.0,0.0,0.0,0.0,0.0,0.0,0.0,0.0,0.0,0.0,0.0,0.0,0.0,0.0,0.0,0.0,0.0,0.0,0.0,0.0,0.0,0.0,0.0,0.0,0.0,0.0,0.0,0.0,0.0,0.0,0.0,0.0,0.0,0.0,0.0,0.0,0.0,0.0,0.0,0.0,0.0,0.0,0.0,0.0,0.0,0.0,0.0,0.0,0.0,0.0,0.0,0.0,0.0,0.0,0.0,0.0,0.0,0.0,0.0,0.0,0.0,0.0,0.0,0.0,0.0,0.0,0.0,0.0,0.0,0.0,0.0,0.0,0.0,0.0,0.0,0.0,0.0,0.0,0.0,0.0,0.0,0.0,0.0,0.0,0.0,0.0,0.0,0.0,0.0,0.0,0.0,0.0,0.0,0.0,0.0,0.0,0.0,0.0,0.0,0.0,0.0,0.0,0.0,0.0,0.0,0.0,0.0,0.0,0.0,0.0,2.9858,2.9814,2.9665,2.9531,0.0,0.0,0.0,0.0,0.0,0.0,0.0,0.0,0.0,0.0,0.0,0.0,0.0,0.0,0.0,0.0,0.0,0.0,0.0,0.0,0.0,0.0,0.0,0.0,0.0,0.0,0.0,0.0,0.0,0.0,0.0,0.0,0.0,0.0,0.0,0.0,0.0,0.0,0.0,0.0,0.0,0.0,0.0,0.0,0.0,0.0,0.0,0.0,0.0,0.0,0.0,0.0,0.0,0.0,0.0,0.0,0.0,0.0,0.0,0.0,0.0,0.0,0.0,0.0,0.0,0.0,0.0,0.0,0.0,0.0,0.0,0.0,0.0,0.0,0.0,0.0,0.0,0.0,0.0,0.0,0.0,0.0,0.0,0.0,0.0,0.0,0.0,0.0,0.0,0.0,0.0,0.0,0.0,0.0,0.0,0.0,0.0,0.0,0.0,0.0,0.0,0.0,0.0,0.0,0.0,0.0,0.0,0.0,0.0,0.0,2.9576,2.9502,2.9486,2.9259,2.9137,2.8998,0.0,0.0,0.0,0.0,0.0,0.0,0.0,0.0,0.0,0.0,0.0,0.0,0.0,0.0,0.0,0.0,0.0,0.0,0.0,0.0,0.0,0.0,0.0,0.0,0.0,0.0,0.0,0.0,0.0,0.0,0.0,0.0,0.0,0.0,0.0,0.0,0.0,0.0,0.0,0.0,0.0,0.0,0.0,0.0,0.0,0.0,0.0,0.0,0.0,0.0,0.0,0.0,0.0,0.0,0.0,0.0,0.0,0.0,0.0,0.0,0.0,0.0,0.0,0.0,0.0,0.0,0.0,0.0,0.0,0.0,0.0,0.0,0.0,0.0,0.0,0.0,0.0,0.0,0.0,0.0,0.0,0.0,0.0,0.0,0.0,0.0,0.0,0.0,0.0,0.0,0.0,0.0,0.0,0.0,0.0,0.0,0.0,0.0,0.0,0.0,0.0,0.0,0.0,0.0,0.0,0.0,0.0,0.0,2.9305,2.9229,2.9075,2.8967,2.8858,2.8842,0.0,0.0,0.0,0.0,0.0,0.0,0.0,0.0,0.0,0.0,0.0,0.0,0.0,0.0,0.0,0.0,0.0,0.0,0.0,0.0,0.0,0.0,0.0,0.0,0.0,0.0,0.0,0.0,0.0,0.0,0.0,0.0,0.0,0.0,0.0,0.0,0.0,0.0,0.0,0.0,0.0,0.0,0.0,0.0,0.0,0.0,0.0,0.0,0.0,0.0,0.0,0.0,0.0,0.0,0.0,0.0,0.0,0.0,0.0,0.0,0.0,0.0,0.0,0.0,0.0,0.0,0.0,0.0,0.0,0.0,0.0,0.0,0.0,0.0,0.0,0.0,0.0,0.0,0.0,0.0,0.0,0.0,0.0,0.0,0.0,0.0,0.0,0.0,0.0,0.0,0.0,0.0,0.0,0.0,0.0,0.0,0.0,0.0,0.0,0.0,0.0,0.0,0.0,0.0,0.0,0.0,0.0,0.0,0.0,2.8967,2.8983,2.8905,2.87,2.8668,2.8636,0.0,0.0,0.0,0.0,0.0,0.0,0.0,0.0,0.0,0.0,0.0,0.0,0.0,0.0,0.0,0.0,0.0,0.0,0.0,0.0,0.0,0.0,0.0,0.0,0.0,0.0,0.0,0.0,0.0,0.0,0.0,0.0,0.0,0.0,0.0,0.0,0.0,0.0,0.0,0.0,0.0,0.0,0.0,0.0,0.0,0.0,0.0,0.0,0.0,0.0,0.0,0.0,0.0,0.0,0.0,0.0,0.0,0.0,0.0,0.0,0.0,0.0,0.0,0.0,0.0,0.0,0.0,0.0,0.0,0.0,0.0,0.0,0.0,0.0,0.0,0.0,0.0,0.0,0.0,0.0,0.0,0.0,0.0,0.0,0.0,0.0,0.0,0.0,0.0,0.0,0.0,0.0,0.0,0.0,0.0,0.0,0.0,0.0,0.0,0.0,0.0,0.0,0.0,0.0,0.0,0.0,0.0,0.0,0.0,2.8604,0.0,2.8635,2.8396,2.8396,2.8411,0.0,0.0,0.0,0.0,0.0,0.0,0.0,0.0,0.0,0.0,0.0,0.0,0.0,0.0,0.0,0.0,0.0,0.0,0.0,0.0,0.0,0.0,0.0,0.0,0.0,0.0,0.0,0.0,0.0,0.0,0.0,0.0,0.0,0.0,0.0,0.0,0.0,0.0,0.0,0.0,0.0,0.0,0.0,0.0,0.0,0.0,0.0,0.0,0.0,0.0,0.0,0.0,0.0,0.0,0.0,0.0,0.0,0.0,0.0,0.0,0.0,0.0,0.0,0.0,0.0,0.0,0.0,0.0,0.0,0.0,0.0,0.0,0.0,0.0,0.0,0.0,0.0,0.0,0.0,0.0,0.0,0.0,0.0,0.0,0.0,0.0,0.0,0.0,0.0,0.0,0.0,0.0,0.0,0.0,0.0,0.0,0.0,0.0,0.0,0.0,0.0,0.0,0.0,0.0,0.0,0.0,0.0,0.0,2.8477,2.8235,2.8311,2.8247,2.802,2.8035,2.805,0.0,0.0,0.0,0.0,0.0,0.0,0.0,0.0,0.0,0.0,0.0,0.0,0.0,0.0,0.0,0.0,0.0,0.0,0.0,0.0,0.0,0.0,0.0,0.0,0.0,0.0,0.0,0.0,0.0,0.0,0.0,0.0,0.0,0.0,0.0,0.0,0.0,0.0,0.0,0.0,0.0,0.0,0.0,0.0,0.0,0.0,0.0,0.0,0.0,0.0,0.0,0.0,0.0,0.0,0.0,0.0,0.0,0.0,0.0,0.0,0.0,0.0,0.0,0.0,0.0,0.0,0.0,0.0,0.0,0.0,0.0,0.0,0.0,0.0,0.0,0.0,0.0,0.0,0.0,0.0,0.0,0.0,0.0,0.0,0.0,0.0,0.0,0.0,0.0,0.0,0.0,0.0,0.0,0.0,0.0,0.0,0.0,0.0,0.0,0.0,0.0,0.0,0.0,0.0,0.0,0.0,0.0,0.0,0.0,2.794,2.786,2.781,2.774,2.7615,2.7615,0.0,0.0,0.0,0.0,0.0,0.0,0.0,0.0,0.0,0.0,0.0,0.0,0.0,0.0,0.0,0.0,0.0,0.0,0.0,0.0,0.0,0.0,0.0,0.0,0.0,0.0,0.0,0.0,0.0,0.0,0.0,0.0,0.0,0.0,0.0,0.0,0.0,0.0,0.0,0.0,0.0,0.0,0.0,0.0,0.0,0.0,0.0,0.0,0.0,0.0,0.0,0.0,0.0,0.0,0.0,0.0,0.0,0.0,0.0,0.0,0.0,0.0,0.0,0.0,0.0,0.0,0.0,0.0,0.0,0.0,0.0,0.0,0.0,0.0,0.0,0.0,0.0,0.0,0.0,0.0,0.0,0.0,0.0,0.0,0.0,0.0,0.0,0.0,0.0,0.0,0.0,0.0,0.0,0.0,0.0,0.0,0.0,0.0,0.0,0.0,0.0,0.0,0.0,0.0,0.0,0.0,0.0,0.0,0.0,2.7488,2.7494,2.7464,2.7386,2.7291,2.7291,2.7255,0.0,0.0,0.0,0.0,0.0,0.0,0.0,0.0,0.0,0.0,0.0,0.0,0.0,0.0,0.0,0.0,0.0,0.0,0.0,0.0,0.0,0.0,0.0,0.0,0.0,0.0,0.0,0.0,0.0,0.0,0.0,0.0,0.0,0.0,0.0,0.0,0.0,0.0,0.0,0.0,0.0,0.0,0.0,0.0,0.0,0.0,0.0,0.0,0.0,0.0,0.0,0.0,0.0,0.0,0.0,0.0,0.0,0.0,0.0,0.0,0.0,0.0,0.0,0.0,0.0,0.0,0.0,0.0,0.0,0.0,0.0,0.0,0.0,0.0,0.0,0.0,0.0,0.0,0.0,0.0,0.0,0.0,0.0,0.0,0.0,0.0,0.0,0.0,0.0,0.0,0.0,0.0,0.0,0.0,0.0,0.0,0.0,0.0,0.0,0.0,0.0,0.0,0.0,0.0,0.0,0.0,0.0,0.0,2.6951,2.7167,2.7152,2.6951,2.7076,2.6995,0.0,0.0,0.0,0.0,0.0,0.0,0.0,0.0,0.0,0.0,0.0,0.0,0.0,0.0,0.0,0.0,0.0,0.0,0.0,0.0,0.0,0.0,0.0,0.0,0.0,0.0,0.0,0.0,0.0,0.0,0.0,0.0,0.0,0.0,0.0,0.0,0.0,0.0,0.0,0.0,0.0,0.0,0.0,0.0,0.0,0.0,0.0,0.0,0.0,0.0,0.0,0.0,0.0,0.0,0.0,0.0,0.0,0.0,0.0,0.0,0.0,0.0,0.0,0.0,0.0,0.0,0.0,0.0,0.0,0.0,0.0,0.0,0.0,0.0,0.0,0.0,0.0,0.0,0.0,0.0,0.0,0.0,0.0,0.0,0.0,0.0,0.0,0.0,0.0,0.0,0.0,0.0,0.0,0.0,0.0,0.0,0.0,0.0,0.0,0.0,0.0,0.0,0.0,0.0,0.0,0.0,0.0,0.0,0.0,2.6525,2.6418,2.6433,2.6447,2.6515,2.6461,0.0,0.0,0.0,0.0,0.0,0.0,0.0,0.0,0.0,0.0,0.0,0.0,0.0,0.0,0.0,0.0,0.0,0.0,0.0,0.0,0.0,0.0,0.0,0.0,0.0,0.0,0.0,0.0,0.0,0.0,0.0,0.0,0.0,0.0,0.0,0.0,0.0,0.0,0.0,0.0,0.0,0.0,0.0,0.0,0.0,0.0,0.0,0.0,0.0,0.0,0.0,0.0,0.0,0.0,0.0,0.0,0.0,0.0,0.0,0.0,0.0,0.0,0.0,0.0,0.0,0.0,0.0,0.0,0.0,0.0,0.0,0.0,0.0,0.0,0.0,0.0,0.0,0.0,0.0,0.0,0.0,0.0,0.0,0.0,0.0,0.0,0.0,0.0,0.0,0.0,0.0,0.0,0.0,0.0,0.0,0.0,0.0,0.0,0.0,0.0,0.0,0.0,0.0,0.0,0.0,0.0,0.0,0.0,2.6525,2.6204,2.6111,2.5948,2.5839,2.5962,2.5907,0.0,0.0,0.0,0.0,0.0,0.0,0.0,0.0,0.0,0.0,0.0,0.0,0.0,0.0,0.0,0.0,0.0,0.0,0.0,0.0,0.0,0.0,0.0,0.0,0.0,0.0,0.0,0.0,0.0,0.0,0.0,0.0,0.0,0.0,0.0,0.0,0.0,0.0,0.0,0.0,0.0,0.0,0.0,0.0,0.0,0.0,0.0,0.0,0.0,0.0,0.0,0.0,0.0,0.0,0.0,0.0,0.0,0.0,0.0,0.0,0.0,0.0,0.0,0.0,0.0,0.0,0.0,0.0,0.0,0.0,0.0,0.0,0.0,0.0,0.0,0.0,0.0,0.0,0.0,0.0,0.0,0.0,0.0,0.0,0.0,0.0,0.0,0.0,0.0,0.0,0.0,0.0,0.0,0.0,0.0,0.0,0.0,0.0,0.0,0.0,0.0,0.0,0.0,0.0,0.0,0.0,0.0,0.0,2.6297,2.6002,2.5893,2.555,2.5104,2.5425,2.5425,0.0,0.0,0.0,0.0,0.0,0.0,0.0,0.0,0.0,0.0,0.0,0.0,0.0,0.0,0.0,0.0,0.0,0.0,0.0,0.0,0.0,0.0,0.0,0.0,0.0,0.0,0.0,0.0,0.0,0.0,0.0,0.0,0.0,0.0,0.0,0.0,0.0,0.0,0.0,0.0,0.0,0.0,0.0,0.0,0.0,0.0,0.0,0.0,0.0,0.0,0.0,0.0,0.0,0.0,0.0,0.0,0.0,0.0,0.0,0.0,0.0,0.0,0.0,0.0,0.0,0.0,0.0,0.0,0.0,0.0,0.0,0.0,0.0,0.0,0.0,0.0,0.0,0.0,0.0,0.0,0.0,0.0,0.0,0.0,0.0,0.0,0.0,0.0,0.0,0.0,0.0,0.0,0.0,0.0,0.0,0.0,0.0,0.0,0.0,0.0,0.0,0.0,0.0,0.0,0.0,0.0,0.0,0.0,2.5879,2.5577,2.5328,2.4991,2.4536,2.4991,2.5061,0.0,0.0,0.0,0.0,0.0,0.0,0.0,0.0,0.0,0.0,0.0,0.0,0.0,0.0,0.0,0.0,0.0,0.0,0.0,0.0,0.0,0.0,0.0,0.0,0.0,0.0,0.0,0.0,0.0,0.0,0.0,0.0,0.0,0.0,0.0,0.0,0.0,0.0,0.0,0.0,0.0,0.0,0.0,0.0,0.0,0.0,0.0,0.0,1.695,0.0,0.0,0.0,0.0,0.0,0.0,0.0,0.0,0.0,0.0,0.0,0.0,0.0,0.0,0.0,0.0,0.0,0.0,0.0,0.0,0.0,0.0,0.0,0.0,0.0,0.0,0.0,0.0,0.0,0.0,0.0,0.0,0.0,0.0,0.0,0.0,0.0,0.0,0.0,0.0,0.0,0.0,0.0,0.0,0.0,0.0,0.0,0.0,0.0,0.0,0.0,0.0,0.0,0.0,0.0,0.0,0.0,0.0,0.0,2.5328,2.5021,2.4808,2.4523,2.4002,2.4247,2.4292,0.0,0.0,0.0,0.0,0.0,0.0,0.0,0.0,0.0,0.0,0.0,0.0,0.0,0.0,0.0,0.0,0.0,0.0,0.0,0.0,0.0,0.0,0.0,0.0,0.0,0.0,0.0,0.0,0.0,0.0,0.0,0.0,0.0,0.0,0.0,0.0,0.0,0.0,0.0,0.0,0.0,0.0,0.0,0.0,0.0,0.0,0.0,0.0,0.0,0.0,0.0,0.0,0.0,0.0,0.0,0.0,0.0,0.0,0.0,0.0,0.0,0.0,0.0,0.0,0.0,0.0,0.0,0.0,0.0,0.0,0.0,0.0,0.0,0.0,0.0,0.0,0.0,0.0,0.0,0.0,0.0,0.0,0.0,0.0,0.0,0.0,0.0,0.0,0.0,0.0,0.0,0.0,0.0,0.0,0.0,0.0,0.0,0.0,0.0,0.0,0.0,0.0,0.0,0.0,0.0,0.0,0.0,2.4993,2.4708,2.4394,2.4279,2.3989,2.3365,2.3173,2.3113,2.3185,0.0,0.0,0.0,0.0,0.0,0.0,0.0,0.0,0.0,0.0,0.0,0.0,0.0,0.0,0.0,0.0,0.0,0.0,0.0,0.0,0.0,0.0,0.0,0.0,0.0,0.0,0.0,0.0,0.0,0.0,0.0,0.0,0.0,0.0,0.0,0.0,0.0,0.0,1.928,1.9403,0.0,0.0,0.0,0.0,0.0,0.0,0.0,0.0,1.6125,0.0,0.0,0.0,0.0,0.0,0.0,0.0,0.0,0.0,0.0,0.0,0.0,0.0,0.0,0.0,0.0,0.0,0.0,0.0,0.0,0.0,0.0,0.0,0.0,0.0,0.0,0.0,0.0,0.0,0.0,0.0,0.0,0.0,0.0,0.0,0.0,0.0,0.0,0.0,0.0,0.0,0.0,0.0,0.0,0.0,0.0,0.0,0.0,0.0,0.0,0.0,0.0,0.0,0.0,0.0,0.0,2.4327,2.4269,2.406,2.3754,2.3327,2.2919,2.2359,2.1939,2.1628,2.1502,0.0,0.0,0.0,0.0,0.0,0.0,0.0,0.0,0.0,0.0,0.0,0.0,0.0,0.0,0.0,0.0,0.0,0.0,0.0,0.0,0.0,0.0,0.0,0.0,0.0,0.0,0.0,0.0,0.0,0.0,0.0,0.0,0.0,0.0,0.0,0.0,0.0,0.0,0.0,1.8951,1.8582,0.0,0.0,0.0,0.0,0.0,0.0,0.0,0.0,1.4532,0.0,0.0,0.0,0.0,0.0,0.0,0.0,0.0,0.0,0.0,0.0,0.0,0.0,0.0,0.0,0.0,0.0,0.0,0.0,0.0,0.0,0.0,0.0,0.0,0.0,0.0,0.0,0.0,0.0,0.0,0.0,0.0,0.0,0.0,0.0,0.0,0.0,0.0,0.0,0.0,0.0,0.0,0.0,0.0,0.0,0.0,0.0,0.0,0.0,0.0,0.0,0.0,0.0,0.0,0.0,2.3158,2.2988,2.2871,2.2834,2.2408,2.199,2.1502,2.1343,2.0896,0.0,0.0,0.0,0.0,0.0,0.0,0.0,0.0,0.0,0.0,0.0,0.0,0.0,0.0,0.0,0.0,0.0,0.0,0.0,0.0,0.0,0.0,0.0,0.0,0.0,0.0,0.0,0.0,0.0,0.0,0.0,0.0,0.0,0.0,0.0,0.0,0.0,0.0,0.0,0.0,1.8584,1.8329,1.8038,0.0,0.0,0.0,0.0,0.0,0.0,1.4581,1.3804,0.0,0.0,0.0,0.0,0.0,0.0,0.0,0.0,0.0,0.0,0.0,0.0,0.0,0.0,0.0,0.0,0.0,0.0,0.0,0.0,0.0,0.0,0.0,0.0,0.0,0.0,0.0,0.0,0.0,0.0,0.0,0.0,0.0,0.0,0.0,0.0,0.0,0.0,0.0,0.0,0.0,0.0,0.0,0.0,0.0,0.0,0.0,0.0,0.0,0.0,0.0,0.0,0.0,0.0,0.0,2.184,2.1555,2.15,2.1705,2.1353,2.0921,2.0495,2.0466,1.9965,0.0,0.0,0.0,0.0,0.0,0.0,0.0,0.0,0.0,0.0,0.0,0.0,0.0,0.0,0.0,0.0,0.0,0.0,0.0,0.0,0.0,0.0,0.0,0.0,0.0,0.0,0.0,0.0,0.0,0.0,0.0,0.0,0.0,0.0,0.0,0.0,0.0,0.0,0.0,0.0,0.0,1.7847,1.7642,1.7191,0.0,0.0,0.0,0.0,1.4413,1.3691,0.0,0.0,0.0,0.0,0.0,0.0,0.0,0.0,0.0,0.0,0.0,0.0,0.0,0.0,0.0,0.0,0.0,0.0,0.0,0.0,0.0,0.0,0.0,0.0,0.0,0.0,0.0,0.0,0.0,0.0,0.0,0.0,0.0,0.0,0.0,0.0,0.0,0.0,0.0,0.0,0.0,0.0,0.0,0.0,0.0,0.0,0.0,0.0,0.0,0.0,0.0,0.0,0.0,0.0,0.0,0.0,2.0275,2.0174,2.0274,2.0579,1.989,1.9431,1.9034,1.8576,1.7984,0.0,0.0,0.0,0.0,0.0,0.0,0.0,0.0,0.0,0.0,0.0,0.0,0.0,0.0,0.0,0.0,0.0,0.0,0.0,0.0,0.0,0.0,0.0,0.0,0.0,0.0,0.0,0.0,0.0,0.0,0.0,0.0,0.0,0.0,0.0,0.0,0.0,0.0,0.0,0.0,0.0,1.6881,1.7167,1.6748,1.6261,0.0,0.0,1.4323,1.3093,1.2157,0.0,0.0,0.0,0.0,0.0,0.0,0.0,0.0,0.0,0.0,0.0,0.0,0.0,0.0,0.0,0.0,0.0,0.0,0.0,0.0,0.0,0.0,0.0,0.0,0.0,0.0,0.0,0.0,0.0,0.0,0.0,0.0,0.0,0.0,0.0,0.0,0.0,0.0,0.0,0.0,0.0,0.0,0.0,0.0,0.0,0.0,0.0,0.0,0.0,0.0,0.0,0.0,0.0,0.0,0.0,1.8385,1.8709,1.8574,1.867,1.8916,1.8479,1.8007,1.7531,1.7646,1.7036,0.0,0.0,0.0,0.0,0.0,0.0,0.0,0.0,0.0,0.0,0.0,0.0,0.0,0.0,0.0,0.0,0.0,0.0,0.0,0.0,0.0,0.0,0.0,0.0,0.0,0.0,0.0,0.0,0.0,0.0,0.0,0.0,0.0,0.0,0.0,0.0,0.0,0.0,0.0,0.0,0.0,0.0,1.6126,1.5706,0.0,0.0,0.0,1.2523,1.1117,0.0,0.0,0.0,0.0,0.0,0.0,0.0,0.0,0.0,0.0,0.0,0.0,0.0,0.0,0.0,0.0,0.0,0.0,0.0,0.0,0.0,0.0,0.0,0.0,0.0,0.0,0.0,0.0,0.0,0.0,0.0,0.0,0.0,0.0,0.0,0.0,0.0,0.0,0.0,0.0,0.0,0.0,0.0,0.0,0.0,0.0,0.0,0.0,0.0,0.0,0.0,0.0,0.0,0.0,0.0,0.0,0.0,1.7163,1.6918,1.6898,1.722,1.6835,1.6428,1.5922,1.6457,0.0,0.0,0.0,0.0,0.0,0.0,0.0,0.0,0.0,0.0,0.0,0.0,0.0,0.0,0.0,0.0,0.0,0.0,0.0,0.0,0.0,0.0,0.0,0.0,0.0,0.0,0.0,1.2995,0.0,0.0,0.0,0.0,0.0,0.0,0.0,0.0,0.0,0.0,0.0,0.0,0.0,0.0,1.4866,1.4712,1.4303,1.3678,0.0,0.0,1.053,0.9492,0.8337,0.7092,0.0,0.0,0.0,0.0,0.0,0.0,0.0,0.0,0.0,0.0,0.0,0.0,0.0,0.0,0.0,0.0,0.0,0.0,0.0,0.0,0.0,0.0,0.0,0.0,0.0,0.0,0.0,0.0,0.0,0.0,0.0,0.0,0.0,0.0,0.0,0.0,0.0,0.0,0.0,0.0,0.0,0.0,0.0,0.0,0.0,0.0,0.0,0.0,0.0,0.0,0.0,0.0,0.0,0.0,1.5504,1.5469,1.5248,1.5223,1.5271,1.495,1.4514,1.3924,1.4496,1.3973,0.0,0.0,0.0,0.0,0.0,0.0,0.0,0.0,0.0,0.0,0.0,0.0,0.0,0.0,0.0,0.0,0.0,0.0,0.0,0.0,0.0,0.0,0.0,0.0,0.0,0.0,0.0,0.0,0.0,0.0,0.0,0.0,0.0,0.0,0.0,0.0,0.0,0.0,0.0,0.0,0.0,1.2779,1.2831,1.2486,1.1815,0.0,0.9688,0.8992,0.8652,0.6492,0.444,0.3296,0.0,0.0,0.0,0.0,0.0,0.0,0.0,0.0,0.0,0.0,0.0,0.0,0.0,0.0,0.0,0.0,0.0,0.0,0.0,0.0,0.0,0.0,0.0,0.0,0.0,0.0,0.0,0.0,0.0,0.0,0.0,0.0,0.0,0.0,0.0,0.0,0.0,0.0,0.0,0.0,0.0,0.0,0.0,0.0,0.0,0.0,0.0,0.0,0.0,0.0,0.0,0.0,0.0,1.4003,1.3966,1.363,1.3442,1.3331,1.299,1.2551,1.2104,1.215,1.1726,0.0,0.0,0.0,0.0,0.0,0.0,0.0,0.0,0.0,0.0,0.0,0.0,0.0,0.0,0.0,0.0,0.0,0.0,0.0,0.0,0.0,0.0,0.0,0.0,0.0,0.0,0.0,0.0,1.1512,1.1395,1.0795,0.0,0.0,0.0,0.0,0.0,0.0,0.0,0.0,0.0,0.0,1.0741,1.0555,1.0072,0.0,0.0,0.7428,0.5736,0.4891,0.3296,0.1782,0.0624,-0.0357,0.0,0.0,0.0,0.0,0.0,0.0,0.0,0.0,0.0,0.0,0.0,0.0,0.0,0.0,0.0,0.0,0.0,0.0,0.0,0.0,0.0,0.0,0.0,0.0,0.0,0.0,0.0,0.0,0.0,0.0,0.0,0.0,0.0,0.0,0.0,0.0,0.0,0.0,0.0,0.0,0.0,0.0,0.0,0.0,0.0,0.0,0.0,0.0,0.0,0.0,0.0,0.0,1.2394,1.217,1.1897,1.161,1.1304,1.1001,1.0714,1.0507,1.0121,0.9665,0.0,0.0,0.0,0.0,0.0,0.0,0.0,0.0,0.0,0.0,0.0,0.0,0.0,0.0,0.0,0.0,0.0,0.0,0.0,0.0,0.0,0.0,0.0,0.0,0.0,0.0,0.0,0.0,1.0324,0.997,0.9357,0.0,0.0,0.0,0.0,0.0,0.0,0.0,0.0,0.0,0.0,0.8564,0.8586,0.7632,0.6841,0.6688,0.461,0.2567,0.1424,0.0267,-0.107,-0.2498,0.0,0.0,0.0,0.0,0.0,0.0,0.0,0.0,0.0,0.0,0.0,0.0,0.0,0.0,0.0,0.0,0.0,0.0,0.0,0.0,0.0,0.0,0.0,0.0,0.0,0.0,0.0,2.293,0.0,0.0,2.2592,0.0,0.0,0.0,0.0,0.0,0.0,0.0,0.0,0.0,0.0,0.0,0.0,0.0,0.0,0.0,0.0,0.0,0.0,0.0,0.0,0.0,0.0,1.0545,1.0107,0.9983,0.9658,0.9074,0.8836,0.8851,0.9118,0.8399,0.7838,0.7516,0.0,0.0,0.0,0.0,0.0,0.0,0.0,0.0,0.0,0.0,0.0,0.0,0.0,0.0,0.0,0.0,0.0,0.0,0.0,0.0,0.0,0.0,0.0,0.0,0.0,0.0,0.9336,0.8609,0.808,0.0,0.0,0.0,0.0,0.0,0.0,0.0,0.0,0.0,0.0,0.6132,0.6094,0.6949,0.526,0.365,0.2672,0.1157,-0.0267,-0.1247,-0.2577,-0.418,0.0,0.0,0.0,0.0,0.0,0.0,0.0,0.0,0.0,0.0,0.0,0.0,0.0,0.0,0.0,0.0,0.0,0.0,0.0,0.0,0.0,0.0,0.0,0.0,0.0,0.0,0.0,1.9114,1.9597,0.0,0.0,0.0,0.0,0.0,0.0,0.0,0.0,0.0,0.0,0.0,1.782,1.7076,0.0,0.0,0.0,0.0,0.0,0.0,0.0,0.0,0.0,0.0,0.0,0.0,0.8719,0.8328,0.7871,0.7443,0.7149,0.6685,0.67,0.7188,0.6395,0.5835,0.5571,0.0,0.0,0.0,0.0,0.0,0.0,0.0,0.0,0.0,0.0,0.0,0.0,0.0,0.0,0.0,0.0,0.0,0.0,0.0,0.0,0.0,0.0,0.0,0.0,0.0,0.8096,0.0,0.0,0.0,0.0,0.0,0.0,0.0,0.0,0.0,0.0,0.0,0.5513,0.4348,0.3832,0.3362,0.2939,0.1781,0.0534,0.0,0.0,0.0,0.0,0.0,0.0,0.0,0.0,0.0,0.0,0.0,0.0,0.0,0.0,-0.8123,-0.681,-0.6711,-0.6883,-0.6973,0.0,0.0,0.0,0.0,0.0,0.0,0.0,0.0,0.0,0.0,0.0,0.0,0.0,0.0,1.5713,0.0,1.6349,0.0,0.0,0.0,0.0,0.0,0.0,0.0,0.0,1.7571,1.6735,1.5682,1.5206,1.4062,0.0,1.1713,1.1678,0.0,0.0,0.0,0.0,0.0,0.0,0.0,0.0,0.6844,0.6518,0.5966,0.5684,0.5616,0.5154,0.5321,0.6197,0.4851,0.4128,0.4,0.4065,0.4041,0.0,0.0,0.0,0.0,0.0,0.0,0.0,0.0,0.0,0.0,0.0,0.0,0.0,0.0,0.0,0.0,0.0,0.0,0.0,0.0,0.0,0.0,0.0,0.6738,0.0,0.0,0.0,0.0,0.0,0.0,0.0,0.0,0.0,0.3482,0.3884,0.3547,0.2157,0.1321,0.0535,-0.0535,0.0,0.0,0.0,0.0,0.0,0.0,0.0,-0.8793,-0.9465,-0.9908,-1.0453,-1.1152,-1.1424,-1.1625,-1.1876,0.0,0.0,-0.9168,-0.8932,-0.9076,-0.9161,-0.9344,-0.9442,-0.9705,-0.9883,-1.0093,0.0,0.0,0.0,0.0,0.0,0.0,0.0,0.0,1.1261,1.2224,0.0,1.3445,0.0,0.0,0.0,0.0,1.5424,1.5415,0.0,0.0,1.4869,1.4198,1.3292,1.2928,1.1846,1.0257,0.9822,0.8954,0.7685,0.8435,0.0,0.0,0.0,0.0,0.0,0.0,0.4834,0.451,0.4157,0.4137,0.4448,0.4219,0.4701,0.5892,0.3673,0.2594,0.2845,0.2762,0.2698,0.2693,0.3023,0.0,0.0,0.0,0.0,0.0,0.0,0.0,0.0,0.0,0.0,0.0,0.0,0.0,0.0,0.0,0.0,0.0,0.0,0.0,0.0,0.608,0.0,0.0,0.0,0.0,0.0,0.0,0.0,0.0,0.0,0.0,0.1631,0.1408,0.0761,-0.0086,0.0,0.0,0.0,0.0,-0.6313,-0.8652,-0.9046,-0.9121,-0.9657,-1.0615,-1.1448,-1.1638,0.0,0.0,-1.3779,-1.3717,-1.3787,-1.4231,-1.4372,-1.3579,-1.1363,-1.0854,-1.0895,-1.1181,-1.1171,-1.1196,-1.1466,-1.1882,-1.2182,-0.0617,0.0,0.0,0.0,0.0,0.5711,0.6395,0.7007,0.8005,0.8835,0.9654,1.0032,0.0,0.0,0.0,0.0,0.0,0.0,1.241,1.2251,1.2125,1.164,1.0833,1.0621,0.9782,0.8486,0.7946,0.7074,0.6082,0.6033,0.5586,0.4639,0.0,0.0,0.0,0.0,0.2933,0.2567,0.2073,0.1858,0.1856,0.1635,0.1638,0.2084,0.1265,0.1099,0.1702,0.1843,0.1952,0.1954,0.2285,0.0,0.0,0.0,0.0,0.0,0.0,0.0,0.0,0.0,0.0,0.0,0.0,0.0,0.0,0.0,0.0,0.0,0.0,0.0,0.5331,0.4822,0.4304,0.0,0.0,0.0,0.0,0.0,0.0,0.0,0.0,0.0,-0.2247,-0.144,-0.1211,0.0,0.0,-0.5437,-0.5954,-0.7176,-0.8665,-1.0361,-1.105,0.0,-1.2425,-1.2831,-1.3199,-1.3853,-1.4609,-1.523,-1.5415,-1.5525,-1.5722,-1.5828,-1.5826,-1.5568,-1.476,-1.3731,-1.3138,-1.3132,-1.3041,-1.2939,-1.3126,-1.3489,-1.3828,-0.5195,-0.2636,-0.1085,0.0388,0.1635,0.2563,0.3337,0.4194,0.528,0.6126,0.6652,0.7118,0.788,0.8703,0.9005,0.0,0.0,0.0,0.9681,0.96,0.9461,0.9085,0.8481,0.8192,0.7677,0.7003,0.6287,0.5382,0.4288,0.3747,0.2863,0.1877,0.0,0.0,0.0892,0.118,0.1127,0.0787,0.0434,0.0145,0.0073,-0.051,-0.0656,-0.0437,-0.051,-0.0288,0.0281,0.042,0.0622,0.0808,0.1143,0.1344,0.0,0.0,0.0,0.0,0.0,0.0,0.0,0.0,0.0,0.0,0.0,0.4579,0.4628,0.0,0.0,0.0,0.5123,0.4932,0.454,0.3756,0.0,0.0,0.0,0.0,0.0,0.0,0.0,-0.2301,-0.2717,-0.3468,-0.4507,-0.4064,-0.3871,-0.4366,-0.6148,-0.765,-0.842,0.0,-1.1016,-1.2231,-1.2845,-1.356,-1.4391,-1.4706,-1.5135,-1.5994,-1.6483,-1.6853,-1.6981,-1.7092,-1.7234,-1.7379,-1.7364,-1.7217,-1.7033,-1.6141,-1.5297,-1.4838,-1.4555,-1.4555,-1.4647,-1.4832,-1.5167,-0.8313,-0.6934,-0.46,-0.2966,-0.172,-0.0469,0.0703,0.1872,0.2966,0.3744,0.4274,0.4675,0.5295,0.6213,0.6678,0.0,0.713,0.713,0.713,0.7134,0.6988,0.6681,0.6297,0.5681,0.5381,0.5467,0.4683,0.3699,0.248,0.1616,0.0933,0.028,0.0629,0.0344,-0.0403,-0.0344,-0.0418,-0.0628,-0.0928,-0.1084,-0.1155,-0.2172,-0.2393,-0.1738,-0.1666,-0.1504,-0.1188,-0.1187,-0.0897,-0.0471,-0.0202,-0.0,0.0202,0.0,0.0,0.0,0.0,0.0,0.0,0.0,0.0,0.0,0.0,0.0,0.0,0.0,0.0,0.0,0.4167,0.0,0.3999,0.2666,0.0,0.0,0.0,-0.0628,-0.1882,-0.2588,-0.3243,-0.4034,0.0,0.0,-0.5615,-0.6514,-0.6949,-0.6766,-0.7906,-0.9218,-1.0605,-1.198,-1.3184,-1.4041,-1.4594,-1.5125,-1.5793,-1.6422,-1.7062,-1.7866,-1.8025,-1.8194,-1.8361,-1.8433,-1.8568,-1.8724,-1.8727,-1.8527,-1.8542,-1.8048,-1.7441,-1.6264,-1.5994,-1.5906,-1.588,-1.6055,-1.6337,-0.9453,-0.8613,-0.746,-0.5764,-0.3756,-0.2579,-0.1564,-0.0704,0.0391,0.1251,0.1797,0.2738,0.3363,0.3826,0.429,0.46,0.4678,0.4838,0.4836,0.4678,0.5234,0.524,0.4696,0.3675,0.3019,0.2667,0.2284,0.1655,0.0882,0.0219,-0.0359,-0.0912,-0.1609,-0.1656,-0.1144,-0.1218,-0.1492,-0.1966,-0.1913,-0.2055,-0.2259,-0.2536,-0.2674,-0.2672,-0.2397,-0.2116,-0.1967,-0.1697,-0.1693,-0.1749,-0.1143,-0.0739,-0.047,-0.0,0.0,0.0,0.0,0.0,0.0,0.0,0.0,0.0,0.0,0.3269,0.343,0.0,0.377,0.0,0.3635,0.3137,0.2272,0.1176,0.0,0.0,-0.0941,-0.1647,-0.2824,-0.337,-0.3925,-0.4666,-0.538,-0.6229,-0.7102,-0.8049,-0.8969,-0.9753,-1.0178,-1.0864,-1.2072,-1.3516,-1.4789,-1.547,-1.6095,-1.6783,-1.7363,-1.8185,-1.8811,-1.9318,-1.9563,-1.9692,-1.9513,-1.9521,-1.9472,-1.9471,-1.9396,-1.9296,-1.9104,-1.892,-1.8643,-1.7978,-1.7419,-1.6958,-1.6951,-1.7145,-1.734,-1.0432,-0.9755,-0.8993,-0.7613,-0.5925,-0.4528,-0.3443,-0.2586,-0.1566,-0.0704,-0.0,0.1018,0.1803,0.2192,0.266,0.2817,0.2738,0.2817,0.2817,0.2737,0.3132,0.3115,0.2621,0.1925,0.1293,0.0818,0.0446,-0.0073,-0.0789,-0.1432,-0.1836,-0.1927,-0.2751,-0.2867,-0.2287,-0.2285,-0.2487,-0.2889,-0.2889,-0.3023,-0.3155,-0.3222,-0.3224,-0.3226,-0.2956,-0.2686,-0.2551,-0.2218,-0.2085,-0.2154,-0.1748,-0.1277,-0.0941,-0.0545,-0.0137,0.0,0.0,0.0,0.0,0.0,0.0,0.0,0.0,0.0,0.0,0.0,0.3104,0.3144,0.2725,0.1961,0.0941,0.0078,-0.0785,-0.1649,-0.1961,-0.2588,-0.3686,-0.4189,-0.4777,-0.5686,-0.6506,-0.731,-0.8154,-0.9143,-1.0193,-1.1327,-1.2083,-1.276,-1.3451,-1.4636,-1.5816,-1.6476,-1.6902,-1.754,-1.8405,-1.9297,-1.9963,-2.0305,-2.0506,-2.0555,-2.0374,-2.0374,-2.0283,-2.0119,-2.0027,-1.9845,-1.9563,-1.9471,-1.9288,-1.908,-1.8627,-1.8172,-1.7699,-1.7815,-1.7908,-1.1335,-1.0588,-0.983,-0.8908,-0.7838,-0.6304,-0.4999,-0.3917,-0.3052,-0.227,-0.1332,-0.0392,0.0392,0.1019,0.1254,0.1333,0.1097,0.1097,0.1096,0.1092,0.1092,0.0847,0.0526,0.0225,-0.0148,-0.058,-0.0943,-0.1503,-0.2304,-0.2858,-0.3029,-0.2824,-0.3295,-0.3565,-0.3565,-0.3429,-0.3362,-0.3498,-0.3761,-0.3828,-0.3825,-0.3828,-0.3761,-0.3632,-0.3429,-0.3293,-0.3092,-0.269,-0.2423,-0.2288,-0.2018,-0.1752,-0.1352,-0.0968,-0.0631,0.0,0.0211,0.0,0.0,0.0,0.0,0.0,0.0,0.0,0.0,0.223,0.2323,0.2272,0.1569,0.0784,-0.0078,-0.0785,-0.157,-0.2669,-0.2904,-0.3372,-0.4311,-0.5034,-0.5776,-0.6739,-0.7453,-0.817,-0.9009,-1.0101,-1.1149,-1.21,-1.3372,-1.4307,-1.4643,-1.5492,-1.6409,-1.7057,-1.7408,-1.8086,-1.9067,-2.0,-2.0651,-2.0989,-2.1078,-2.1087,-2.0997,-2.0997,-2.0907,-2.0736,-2.0473,-2.0201,-2.0011,-1.9754,-1.9662,-1.9505,-1.9446,-1.9204,-1.855,-1.8272,-1.8272,-1.215,-1.1632,-1.0663,-0.9679,-0.8689,-0.7936,-0.6472,-0.4771,-0.4226,-0.3288,-0.1959,-0.1724,-0.1333,-0.0785,-0.0157,-0.0,-0.0,-0.0,-0.0,0.0076,-0.0229,-0.0376,-0.0514,-0.1101,-0.1593,-0.1838,-0.1766,-0.2019,-0.2642,-0.2913,-0.3177,-0.3364,-0.3627,-0.3828,-0.3894,0.0,0.0,0.0,-0.403,-0.4097,-0.3961,-0.4097,-0.4167,-0.4167,-0.41,0.0,-0.3625,-0.309,-0.2755,-0.2621,-0.2151,0.0,0.0,0.0,0.0,0.0,0.0,0.0,0.0,0.0,0.0,0.0,0.0896,0.1049,0.1665,0.1998,0.1868,0.1178,0.0549,-0.0,-0.0629,-0.1805,-0.2512,-0.2588,-0.3374,-0.4079,-0.4623,-0.543,-0.6441,-0.751,-0.8258,-0.9105,-1.0125,-1.1133,-1.21,-1.296,-1.3977,-1.4817,-1.5401,-1.6229,-1.7057,-1.7554,-1.8091,-1.8941,-1.9909,-2.0348,-2.0905,-2.1444,-2.1553,-2.1463,-2.1383,-2.1302,-2.1195,-2.0835,-2.0654,-2.0456,-1.9968,-1.9903,-1.9737,-1.9381,-1.933,-1.9296,-1.9304,-1.9104,-1.9004,-1.2226,-1.1728,-1.0791,-0.9924,0.0,-0.8396,-0.7212,-0.5732,-0.526,-0.4224,-0.2899,-0.2665,-0.2338,-0.2005,-0.1389,-0.115,-0.1212,-0.1136,-0.1053,-0.0966,-0.1115,-0.1247,-0.1287,-0.1789,-0.2118,-0.227,-0.2473,-0.2659,-0.2958,-0.3291,-0.3558,-0.3763,-0.3961,-0.4097,-0.4167,-0.4298,-0.4295,-0.4225,-0.4428,-0.4498,-0.4428,-0.4431,-0.4498,-0.4564,-0.4367,0.0,0.0,0.0,0.0,0.0,0.0,0.0,0.0,-0.1531,0.0,-0.0509,-0.0218,0.0293,0.1038,0.0891,0.0523,-0.0076,0.0306,0.0694,0.1002,0.1014,0.0864,0.0393,-0.0079,-0.0785,-0.1649,-0.2276,-0.2824,-0.3137,-0.3839,-0.4482,-0.5255,-0.6167,-0.7189,-0.8147,-0.895,-0.9823,-1.0661,-1.1649,-1.2443,-1.3307,-1.4237,-1.5159,-1.5824,-1.6484,-1.7057,-1.7635,-1.8521,-1.9274,-1.9751,-2.0472,-2.0989,-2.1401,-2.1603,-2.1633,-2.1562,-2.1482,-2.1302,-2.0925,-2.0645,-2.0365,-2.0051,-1.9812,-1.9662,-1.9479,-1.9387,-1.9396,-1.9579,-1.9296,-1.9012,-1.2241,-1.1696,-1.0742,-0.9974,-0.941,-0.8498,-0.7509,-0.6384,-0.5754,0.0,0.0,-0.3247,-0.2908,-0.2781,-0.2332,-0.2157,-0.2189,-0.2042,-0.1891,-0.1739,-0.1739,-0.1857,-0.202,-0.2159,-0.234,-0.2559,-0.296,-0.3228,-0.3293,-0.3761,-0.3964,-0.403,-0.4233,-0.4303,-0.43,-0.4628,-0.4694,-0.4625,-0.4761,-0.4827,-0.4761,-0.4761,-0.4761,-0.4761,-0.4498,-0.4231,-0.3961,-0.3291,-0.2822,-0.2686,-0.2354,-0.2023,-0.1694,-0.1662,-0.1351,-0.0659,-0.022,0.0297,0.0837,0.0915,0.0305,-0.1219,-0.0311,0.0236,0.0236,0.0079,-0.0079,-0.0314,-0.0864,-0.157,-0.2433,-0.2668,-0.2979,-0.3763,-0.4229,-0.4896,-0.5811,-0.6767,-0.769,-0.8678,-0.9459,-1.0197,-1.0945,-1.1832,-1.2625,-1.3392,-1.4321,-1.5333,-1.6004,-1.6656,-1.7139,-1.7733,-1.8525,-1.917,-1.9431,-2.0075,-2.0802,-2.0912,-2.1195,-2.1423,-2.1344,-2.1175,-2.0998,-2.0642,-2.0355,-1.9915,-1.9612,-1.9389,-1.9331,-1.9206,-1.9257,-1.9208,-1.9109,-1.8827,-1.8561,-1.2519,-1.184,-1.0949,-1.0188,-0.9561,-0.8574,-0.7296,-0.5875,-0.5198,-0.4483,-0.375,-0.3385,-0.3088,-0.2857,-0.2636,-0.2414,-0.2262,-0.2261,-0.2091,-0.1904,-0.2045,-0.2225,-0.2304,-0.237,-0.2567,-0.2891,-0.3023,-0.3291,-0.3692,-0.3758,-0.3961,-0.4233,-0.4303,-0.4303,-0.43,-0.4495,-0.4691,-0.4761,-0.496,-0.4957,-0.4827,-0.4957,-0.4891,-0.4625,-0.4558,-0.4292,-0.3825,-0.3021,-0.2619,-0.2686,-0.2354,-0.2109,-0.1879,-0.1677,-0.1505,-0.12,-0.0452,0.0076,-0.0,-0.0,-0.0234,-0.1173,-0.1098,-0.0864,-0.0471,-0.0157,-0.0393,-0.1336,-0.1884,-0.2353,-0.251,-0.3136,-0.3606,-0.3841,-0.4621,-0.5448,-0.6051,-0.6933,-0.7793,-0.8821,-0.954,-1.0294,-1.0977,-1.1843,-1.2619,-1.3307,-1.4153,-1.5151,-1.6147,-1.7049,-1.7619,-1.7951,-1.8227,-1.8806,-1.9317,-1.9642,-1.994,-2.0313,-2.0346,-2.0445,-2.0273,-2.011,-1.9852,-1.9531,-1.9314,-1.9021,-1.8576,-1.8426,-1.8322,-1.8033,-1.7913,-1.7825,-1.7656,-1.7463,-1.778,-1.2193,-1.1414,-1.0613,-0.9959,-0.9359,-0.815,-0.686,-0.5562,-0.5149,-0.4602,-0.3998,-0.3713,-0.3397,-0.3139,-0.2993,-0.276,-0.2513,-0.2375,-0.2223,-0.2059,-0.2196,-0.2248,-0.229,-0.2356,-0.2555,-0.2822,-0.3025,-0.3293,-0.3629,-0.3758,-0.3894,-0.403,-0.403,-0.403,-0.403,-0.4298,-0.4498,-0.4564,-0.4891,-0.5093,-0.5163,-0.509,-0.5024,-0.4891,-0.4492,-0.4159,-0.3894,-0.3157,-0.2753,-0.2686,-0.2287,-0.1963,-0.185,-0.1509,-0.1326,-0.1159,-0.0442,-0.0,-0.0,-0.0,-0.0236,-0.0864,-0.1179,-0.1179,-0.1022,-0.0943,-0.11,-0.1572,-0.2198,-0.2588,-0.2668,-0.3372,-0.3841,-0.4073,-0.4851,-0.5605,-0.6291,-0.7097,-0.8022,-0.8989,-0.9756,-1.0381,-1.1084,-1.1854,-1.2534,-1.3045,-1.3971,-1.4985,-1.5726,-1.6476,-1.7131,-1.7635,-1.7951,-1.8253,-1.8679,-1.9062,-1.9238,-1.934,-1.9534,-1.9554,-1.9486,-1.9316,-1.9153,-1.9084,-1.8732,-1.8382,-1.8008,-1.7866,-1.7699,-1.739,-1.7274,-1.7216,-1.6999,-1.6815,-1.7105,-1.1809,-1.0996,-1.0275,-0.9582,-0.8818,-0.7657,-0.6482,-0.5428,-0.516,-0.4668,-0.4063,-0.3861,-0.3606,-0.3336,-0.3122,-0.2949,-0.2691,-0.249,-0.2288,-0.2153,-0.2153,-0.2153,-0.2221,-0.2288,-0.2488,-0.2686,-0.2956,-0.3226,-0.3362,-0.356,-0.3692,-0.3694,-0.3694,-0.3758,-0.3825,-0.403,-0.4167,-0.4233,-0.4628,-0.4957,-0.5229,-0.5024,-0.4954,-0.4891,-0.4292,-0.3894,-0.3828,-0.3226,-0.2755,-0.2554,-0.2084,-0.1816,-0.1748,-0.1344,-0.0953,-0.0629,-0.0143,0.0073,-0.0,-0.0,-0.0157,-0.0471,-0.0943,-0.1336,-0.1336,-0.1573,-0.1729,-0.1728,-0.2198,-0.2588,-0.2904,-0.3452,-0.3997,-0.4384,-0.5007,-0.5689,-0.6454,-0.7182,-0.8086,-0.903,-0.9795,-1.0381,-1.1079,-1.1763,-1.2363,-1.296,-1.3893,-1.4741,-1.5235,-1.5816,-1.6319,-1.6894,-1.7383,-1.7716,-1.7806,-1.8263,-1.8442,-1.8377,-1.859,-1.8785,-1.8743,-1.8532,-1.8379,-1.8261,-1.7945,-1.7648,-1.7445,-1.7305,-1.7009,-1.6713,-1.663,-1.653,-1.6183,-1.6017,-1.6184,-1.1622,-1.08,-1.0091,-0.9005,-0.7717,-0.7138,-0.635,-0.5428,-0.5027,-0.4436,-0.3866,-0.3787,-0.3587,-0.3238,-0.304,-0.2896,-0.2686,-0.249,-0.2221,-0.1951,-0.1951,-0.2018,-0.2154,-0.2221,-0.2421,-0.2619,-0.2753,-0.2822,-0.3025,-0.309,-0.3228,-0.3498,-0.3498,-0.3629,-0.3758,-0.3629,-0.3763,-0.403,-0.4095,-0.4361,-0.4827,-0.4827,-0.4697,-0.4364,-0.4097,-0.3761,-0.3293,-0.276,-0.2423,-0.2221,-0.1883,-0.1614,-0.1614,-0.1277,-0.0544,0.0768,0.0633,0.036,-0.0,-0.0,-0.0,-0.0079,-0.0786,-0.1258,-0.1336,-0.1651,-0.1885,-0.1961,-0.2273,-0.2668,-0.3061,-0.3688,-0.4153,-0.4384,-0.509,-0.5846,-0.6368,-0.7019,-0.7838,-0.8894,-0.941,-0.9946,-1.0707,-1.1235,-1.1935,-1.3045,-1.3652,-1.425,-1.4831,-1.5075,-1.5325,-1.5816,-1.6394,-1.6804,-1.7057,-1.731,-1.7564,-1.7556,-1.7711,-1.7729,-1.7606,-1.7252,-1.6932,-1.7024,-1.6672,-1.6422,-1.6262,-1.6216,-1.6058,-1.5708,-1.554,-1.5358,-1.4825,-1.4704,-1.4886,-1.149,-1.0744,-1.0091,-0.8935,-0.7521,-0.6876,-0.6152,-0.5362,-0.4894,-0.4295,-0.3629,-0.3424,-0.3224,-0.3092,-0.2889,-0.2688,-0.2421,-0.2288,-0.2085,-0.1748,-0.1748,-0.1748,-0.1816,-0.1816,-0.195,-0.2218,-0.2218,-0.2354,-0.2488,-0.2624,-0.2691,-0.2825,-0.2958,-0.309,-0.3157,-0.3157,-0.3293,-0.3426,-0.3493,-0.3627,-0.3894,-0.4161,-0.4228,-0.4028,-0.3694,-0.3426,-0.3092,-0.2555,-0.2288,-0.2154,-0.1748,-0.1547,-0.1614,-0.1279,-0.0406,0.0891,0.0777,0.0657,0.0755,0.031,-0.0,-0.0,-0.055,-0.1022,-0.1258,-0.1573,-0.1729,-0.1963,-0.2354,-0.2824,-0.3061,-0.3686,-0.4153,-0.4465,-0.509,-0.5736,-0.6097,-0.6795,-0.7562,-0.8556,-0.9105,-0.9728,-1.06,-1.116,-1.1854,-1.2705,-1.3137,-1.3561,-1.399,-1.4159,-1.4405,-1.4734,-1.5144,-1.565,-1.6237,-1.6648,-1.6738,-1.6656,-1.6738,-1.6648,-1.6476,-1.6312,-1.6072,-1.5982,-1.5658,-1.5455,-1.5313,-1.5177,-1.4999,-1.4678,-1.4426,-1.4314,-1.4068,-1.3808,-1.3789,-1.124,-1.0555,-0.9716,-0.8554,-0.7265,-0.6548,-0.5888,-0.5226,-0.4625,-0.4028,-0.3429,-0.2958,-0.2824,-0.2825,-0.2552,-0.2354,-0.2221,-0.2153,-0.1951,-0.1614,-0.1614,-0.1547,-0.1479,-0.1479,-0.1547,-0.1748,-0.1816,-0.1884,-0.2018,-0.2085,-0.2221,-0.2287,-0.242,-0.2554,-0.2554,-0.2688,-0.2757,-0.2757,-0.2891,-0.2893,-0.2958,-0.3293,-0.3491,-0.3558,-0.3291,-0.3025,-0.2822,-0.2354,-0.2085,-0.1951,-0.1548,-0.1279,-0.1144,-0.0944,-0.0202,0.088,0.0844,0.0875,0.1272,0.0614,0.0156,-0.0,-0.0314,-0.0707,-0.1179,-0.1415,-0.1573,-0.1807,-0.2277,-0.2746,-0.3061,-0.353,-0.3997,-0.4229,-0.4935,-0.5553,-0.5796,-0.6458,-0.7308,-0.8133,-0.8625,-0.9374,-1.024,-1.0911,-1.151,-1.1935,-1.2277,-1.2619,-1.3045,-1.3307,-1.3561,-1.3808,-1.3971,-1.4482,-1.5416,-1.5741,-1.5824,-1.5831,-1.5748,-1.5658,-1.5401,-1.5401,-1.5318,-1.5144,-1.4985,-1.472,-1.4573,-1.4266,-1.4062,-1.3808,-1.3555,-1.33,-1.3215,-1.296,-1.2619,-1.0933,-1.0174,-0.8694,-0.7661,-0.6881,-0.6218,-0.5491,-0.4831,-0.4095,-0.3625,-0.3161,-0.2557,-0.2356,-0.2423,-0.2017,-0.2018,-0.2153,-0.1884,-0.1681,-0.1479,-0.1547,-0.1412,-0.1143,-0.1143,-0.1277,-0.1412,-0.1412,-0.1479,-0.1547,-0.1614,-0.1681,-0.1816,-0.2085,-0.2221,-0.2153,-0.2085,-0.2018,-0.222,-0.2288,-0.2221,-0.2288,-0.2287,-0.2555,-0.2956,-0.3023,-0.2755,-0.2288,-0.2018,-0.1748,-0.1412,-0.1212,-0.0809,-0.0202,-0.0067,0.0337,0.1014,0.1107,0.1138,0.1241,0.0824,0.0383,-0.0,-0.0,-0.0393,-0.11,-0.1258,-0.1415,-0.1572,-0.1962,-0.2353,-0.2746,-0.3215,-0.3604,-0.3841,-0.4538,-0.516,-0.5547,-0.6126,-0.6867,-0.7655,-0.8143,-0.8734,-0.9552,-1.0202,-1.0712,-1.1149,-1.1585,-1.21,-1.2277,-1.2534,-1.279,-1.296,-1.313,-1.3385,-1.423,-1.4734,-1.4817,-1.4824,-1.4824,-1.4734,-1.465,-1.4643,-1.4475,-1.4398,-1.4146,-1.3964,-1.3776,-1.3607,-1.3379,-1.3045,-1.2699,-1.2443,-1.2272,-1.1929,-1.1757,-1.0548,-0.9215,-0.8112,-0.733,-0.6675,-0.5624,-0.5027,-0.4628,-0.3692,-0.3088,-0.2621,-0.2153,-0.1748,-0.1412,-0.0875,-0.0875,-0.121,-0.1008,-0.0806,-0.0605,-0.0605,-0.047,-0.0202,-0.0202,-0.0202,-0.0269,-0.0269,-0.0269,-0.0403,-0.0605,-0.0806,-0.0941,-0.1277,-0.1479,-0.1547,-0.1614,-0.1748,-0.1816,-0.1816,-0.1816,-0.1816,-0.1748,-0.1816,-0.2084,-0.2218,-0.2153,-0.1951,-0.1681,-0.1547,-0.1547,-0.0808,-0.027,-0.0,0.0472,0.0943,0.1349,0.1243,0.1134,0.1237,0.112,0.0766,-0.0,-0.0,-0.0079,-0.0471,-0.0943,-0.1336,-0.1415,-0.1649,-0.1962,-0.2431,-0.2902,-0.3374,-0.3763,-0.4307,-0.4771,-0.5162,-0.5668,-0.6227,-0.695,-0.7639,-0.8447,-0.9011,-0.9577,-0.9971,-1.0356,-1.0636,-1.0966,-1.1235,-1.1408,-1.1643,-1.1923,-1.21,-1.2272,-1.2522,-1.3385,-1.3899,-1.3899,-1.3899,-1.3724,-1.3639,-1.3548,-1.3464,-1.3288,-1.3124,-1.3027,-1.2747,-1.2448,-1.2295,-1.2015,-1.1671,-1.1585,-1.1413,-1.1154,-1.0895,-0.9907,-0.8565,-0.7657,-0.6933,-0.6276,-0.5223,-0.4561,-0.4159,-0.336,-0.2757,-0.2351,-0.1748,-0.1076,-0.0538,-0.0,0.0269,0.0202,0.0067,0.0134,0.0538,0.0672,0.0806,0.0941,0.1008,0.1143,0.121,0.121,0.1143,0.0941,0.0605,0.0403,0.0202,-0.0134,-0.0403,-0.0605,-0.0873,-0.1008,-0.1008,-0.1076,-0.1076,-0.1076,-0.1008,-0.1008,-0.1076,-0.1143,-0.1277,-0.1412,-0.121,-0.1076,-0.101,-0.0337,0.0135,0.0471,0.0943,0.1347,0.1551,0.1437,0.133,0.1366,0.1402,0.1134,0.0465,-0.0,0.0157,0.0079,-0.0471,-0.0864,-0.1022,-0.1336,-0.1649,-0.1963,-0.2356,-0.2906,-0.3452,-0.3917,-0.4307,-0.4696,-0.5085,-0.5659,-0.6346,-0.7023,-0.7714,-0.8313,-0.8602,-0.8919,-0.9231,-0.9492,-0.9748,-0.9913,-1.0169,-1.0334,-1.0583,-1.0731,-1.08,-1.1025,-1.15,-1.2391,-1.2523,-1.2662,-1.2589,-1.251,-1.2516,-1.2357,-1.2186,-1.2009,-1.1906,-1.1666,-1.1359,-1.1094,-1.0901,-1.0722,-1.0636,-1.0463,-1.0376,-1.0115,-0.9005,-0.8102,-0.7265,-0.6412,-0.555,-0.4821,-0.4156,-0.3556,-0.3029,-0.2559,-0.2085,-0.1143,-0.0403,0.0067,0.0605,0.1277,0.1748,0.1209,0.1076,0.1547,0.1884,0.2085,0.2085,0.2356,0.2491,0.249,0.2626,0.2491,0.2153,0.1951,0.1748,0.1412,0.1344,0.1008,0.047,0.0403,0.0336,0.0269,0.0134,0.0067,-0.0,0.0067,-0.0,-0.0,0.0067,-0.0067,-0.0538,-0.047,-0.0269,-0.0,0.0067,0.0471,0.1211,0.1547,0.1614,0.1681,0.1616,0.1639,0.1683,0.1658,0.1555,0.1215,0.0853,0.055,0.0471,0.0157,-0.0157,-0.0393,-0.0864,-0.1258,-0.1336,-0.1729,-0.2199,-0.2747,-0.337,-0.3763,-0.4077,-0.4467,-0.4972,-0.5762,-0.6232,-0.6655,-0.7015,-0.7353,-0.7623,-0.7911,-0.8251,-0.8586,-0.8595,-0.8765,-0.8946,-0.9028,-0.9261,-0.9395,-0.9403,-0.9514,-1.0429,-1.1064,-1.1305,-1.1343,-1.1252,-1.1257,-1.1139,-1.0977,-1.0977,-1.0794,-1.0539,-1.0222,-1.0057,-0.9868,-0.9777,-0.9593,-0.9419,-0.9244,-0.9248,-0.8624,-0.7652,-0.6736,-0.5877,-0.5014,-0.4223,-0.3623,-0.3157,-0.2151,-0.1412,-0.0941,-0.0134,0.047,0.0941,0.1746,0.2351,0.2554,0.242,0.2351,0.2216,0.2283,0.2485,0.2755,0.2891,0.296,0.3027,0.296,0.2891,0.2688,0.2418,0.2217,0.2283,0.2284,0.2082,0.1678,0.1812,0.188,0.1614,0.1547,0.1547,0.1479,0.1344,0.1076,0.0806,0.0672,0.0873,0.1547,0.0806,0.0605,0.1077,0.1212,0.1413,0.1682,0.1951,0.2018,0.2153,0.2085,0.2044,0.2029,0.1941,0.1917,0.1739,0.1395,0.1099,0.0943,0.055,0.0236,0.0157,-0.0393,-0.0786,-0.0943,-0.1258,-0.1727,-0.2276,-0.2666,-0.3057,-0.3446,-0.3915,-0.4477,-0.4975,-0.5352,-0.5726,-0.6163,-0.6458,-0.6661,-0.6994,-0.7334,-0.7499,-0.7506,-0.7644,-0.793,-0.8008,-0.8012,-0.7959,-0.8085,-0.8137,-0.8574,-0.9331,-0.9695,-0.9974,-1.0003,-0.9952,-0.9933,-0.9831,-0.9749,-0.9593,-0.9336,-0.917,-0.9003,-0.8819,-0.8632,-0.8368,-0.8193,-0.8197,-0.8197,-0.8172,-0.719,-0.621,-0.5282,-0.442,-0.3756,-0.309,-0.242,-0.1209,-0.0403,0.0134,0.1008,0.1546,0.2016,0.2688,0.309,0.3224,0.3489,0.3553,0.3351,0.3086,0.3155,0.336,0.3422,0.3558,0.3692,0.3623,0.3625,0.3556,0.322,0.3086,0.3155,0.3291,0.3155,0.2818,0.2885,0.2885,0.2686,0.2621,0.2554,0.2488,0.2354,0.2017,0.1612,0.1545,0.1949,0.2555,0.2016,0.1746,0.1883,0.2017,0.2151,0.2218,0.2421,0.2555,0.2622,0.2559,0.251,0.2489,0.25,0.2347,0.2244,0.1926,0.1726,0.157,0.1178,0.0864,0.0786,0.0471,0.0079,-0.0157,-0.055,-0.102,-0.1491,-0.196,-0.2352,-0.2821,-0.3288,-0.368,-0.4001,-0.4235,-0.4661,-0.5018,-0.528,-0.5548,-0.5866,-0.6044,-0.6205,-0.6286,-0.6438,-0.6529,-0.6606,-0.6645,-0.6631,-0.6823,-0.6823,-0.6827,-0.7492,-0.8094,-0.8446,-0.8686,-0.8729,-0.8696,-0.8492,-0.8455,-0.8352,-0.8105,-0.812,-0.7952,-0.7676,-0.7471,-0.7401,-0.7312,-0.7224,-0.7224,-0.7642,-0.6798,-0.5752,-0.4691,-0.3825,-0.3426,-0.2487,-0.121,-0.0269,0.0403,0.1076,0.2084,0.2757,0.3159,0.3424,0.3761,0.4095,0.4356,0.4749,0.4818,0.4556,0.4292,0.4225,0.4356,0.4556,0.4691,0.4691,0.4691,0.4688,0.442,0.4287,0.4225,0.4364,0.4231,0.3959,0.3756,0.3685,0.362,0.3418,0.3286,0.3155,0.3157,0.2952,0.248,0.2818,0.3021,0.3019,0.3218,0.3086,0.2421,0.2621,0.2755,0.2822,0.2956,0.309,0.3224,0.3157,0.3092,0.3061,0.3117,0.3061,0.2712,0.2595,0.2431,0.2275,0.1962,0.1728,0.165,0.1414,0.1178,0.0786,0.0471,-0.0,-0.0392,-0.1176,-0.1882,-0.2353,-0.2665,-0.2821,-0.2902,-0.3139,-0.3456,-0.3775,-0.4006,-0.4242,-0.4406,-0.4575,-0.4742,-0.482,-0.4988,-0.4945,-0.511,-0.5305,-0.5314,-0.5507,-0.5345,-0.5348,-0.5784,-0.6344,-0.6742,-0.7263,-0.7398,-0.7366,-0.7236,-0.7146,-0.7054,-0.6994,-0.6957,-0.6802,-0.6634,-0.6552,-0.6498,-0.6337,-0.616,-0.6154,-0.7186,-0.6071,-0.4878,-0.3954,-0.3224,-0.2217,-0.1075,0.0067,0.0873,0.168,0.2485,0.3157,0.3556,0.3885,0.4492,0.4957,0.5216,0.5481,0.5877,0.6207,0.6203,0.5811,0.5488,0.5488,0.555,0.5683,0.5679,0.5811,0.5873,0.5536,0.5408,0.5547,0.576,0.5627,0.5219,0.508,0.4951,0.4686,0.4619,0.455,0.435,0.435,0.4217,0.4013,0.4087,0.4356,0.4556,0.4483,0.4084,0.3288,0.336,0.3496,0.3558,0.3692,0.3825,0.3956,0.3825,0.3694,0.3664,0.3745,0.363,0.3287,0.3201,0.3054,0.2898,0.2668,0.2433,0.2276,0.2041,0.1883,0.1726,0.1492,0.11,0.0471,-0.0471,-0.1412,-0.1883,-0.2119,-0.2199,-0.2276,-0.2357,-0.2591,-0.2981,-0.3214,-0.3366,-0.3446,-0.3524,-0.3602,-0.368,-0.3917,-0.407,-0.3992,-0.4084,-0.4079,-0.4079,-0.3841,-0.3923,-0.4171,-0.4602,-0.4959,-0.5537,-0.6043,-0.6016,-0.6011,-0.6024,-0.5908,-0.5811,-0.5788,-0.5587,-0.5494,-0.5323,-0.516,-0.4975,-0.4823,-0.4905,-0.6593,-0.5342,-0.4015,-0.3019,-0.2217,-0.1143,-0.0,0.1141,0.2084,0.2889,0.3625,0.402,0.4417,0.4878,0.5617,0.6079,0.6268,0.6724,0.706,0.7256,0.7367,0.7046,0.6666,0.6539,0.6671,0.6798,0.6793,0.6724,0.6715,0.6515,0.6523,0.6736,0.7091,0.6959,0.6404,0.6338,0.6272,0.6141,0.6075,0.5939,0.5738,0.5672,0.554,0.5404,0.5282,0.5422,0.562,0.5418,0.4885,0.4225,0.4164,0.4364,0.4359,0.4425,0.4558,0.4758,0.4558,0.4359,0.4268,0.4372,0.4352,0.4035,0.3884,0.3742,0.368,0.345,0.3137,0.3212,0.2901,0.2666,0.2508,0.2276,0.1962,0.1491,0.0628,-0.0235,-0.102,-0.1021,-0.1178,-0.1335,-0.1492,-0.1649,-0.2119,-0.2433,-0.2589,-0.2588,-0.2586,-0.2665,-0.2743,-0.2978,-0.3214,-0.3134,-0.3134,-0.3212,-0.3134,-0.2978,-0.2898,-0.3057,-0.3297,-0.3553,-0.4066,-0.4715,-0.491,-0.4864,-0.4876,-0.4809,-0.4821,-0.476,-0.4566,-0.4355,-0.4104,-0.3867,-0.383,-0.38,-0.3886,-0.5866,-0.4547,-0.3151,-0.188,-0.0873,-0.0067,0.1074,0.2281,0.3288,0.4025,0.4553,0.4878,0.5536,0.6133,0.6666,0.706,0.7442,0.7897,0.8221,0.8409,0.8388,0.8195,0.8091,0.7842,0.7842,0.7902,0.7902,0.7822,0.7683,0.7683,0.7697,0.7912,0.8338,0.8208,0.7777,0.7642,0.7577,0.7512,0.7507,0.7316,0.7055,0.699,0.692,0.6658,0.6527,0.64,0.64,0.6272,0.5881,0.502,0.5163,0.5163,0.5223,0.5216,0.5289,0.5425,0.5289,0.5156,0.5001,0.5139,0.5153,0.4904,0.4563,0.4455,0.4696,0.4465,0.4231,0.4148,0.3843,0.3528,0.321,0.2899,0.2666,0.243,0.2117,0.1412,0.0628,0.0236,0.0079,-0.0157,-0.0471,-0.0707,-0.11,-0.1415,-0.165,-0.1334,-0.1333,-0.1411,-0.1488,-0.1723,-0.2036,-0.2272,-0.2352,-0.2433,-0.2276,-0.2119,-0.204,-0.2119,-0.2276,-0.2595,-0.2909,-0.3419,-0.3752,-0.385,-0.4036,-0.407,-0.4022,-0.3886,-0.3577,-0.3427,-0.3347,-0.3104,-0.287,-0.2921,-0.3028,-0.5262,-0.3678,-0.221,-0.0738,0.0672,0.1543,0.2684,0.403,0.4686,0.5213,0.5672,0.6326,0.6915,0.7381,0.7902,0.8355,0.8807,0.9128,0.9442,0.9945,0.9717,0.9983,1.0078,0.9588,0.9139,0.9192,0.9256,0.9308,0.9296,0.896,0.9041,0.932,0.9396,0.921,0.9134,0.9058,0.8935,0.8731,0.8667,0.8544,0.8291,0.8226,0.8156,0.8027,0.7962,0.7892,0.7762,0.7707,0.7577,0.7116,0.6465,0.6141,0.6137,0.6005,0.6075,0.6148,0.6017,0.5881,0.5874,0.5964,0.6015,0.5823,0.5604,0.5541,0.5628,0.5796,0.5482,0.5165,0.4849,0.4457,0.399,0.368,0.3526,0.329,0.3054,0.2818,0.2427,0.1805,0.1336,0.1021,0.0864,0.0707,0.0314,0.0236,0.0079,0.0079,0.0078,-0.0,-0.0157,-0.0392,-0.047,-0.0627,-0.0627,-0.0549,-0.0549,-0.0471,-0.0627,-0.0706,-0.0941,-0.1099,-0.149,-0.204,-0.2291,-0.2767,-0.3319,-0.3271,-0.2988,-0.3052,-0.2817,-0.2759,-0.254,-0.2304,-0.2071,-0.21,-0.2032,-0.4331,-0.2606,-0.087,0.067,0.2011,0.3013,0.4148,0.5216,0.5866,0.6453,0.7111,0.7702,0.8215,0.8801,0.9244,0.9691,1.0078,1.0521,1.0961,1.1337,1.1308,1.1626,1.2035,1.1755,1.1373,1.0647,1.0514,1.064,1.0564,1.0273,1.0279,1.0996,1.0933,1.0856,1.0584,1.0451,1.0388,1.0255,1.0186,1.0066,0.9882,0.9818,0.9627,0.9442,0.9314,0.9116,0.893,0.8871,0.8807,0.8608,0.8091,0.7507,0.7186,0.7051,0.7051,0.7068,0.6937,0.6802,0.6822,0.6794,0.6801,0.6659,0.6435,0.6496,0.6633,0.6964,0.6732,0.6173,0.5774,0.5384,0.4844,0.4768,0.4535,0.4457,0.4219,0.4066,0.3834,0.3139,0.2358,0.2119,0.2038,0.2118,0.204,0.1883,0.1961,0.2038,0.2038,0.2037,0.1725,0.1567,0.1567,0.1489,0.1491,0.157,0.1491,0.1334,0.1097,0.0862,0.0627,0.0549,0.0471,-0.0157,-0.0785,-0.1335,-0.1886,-0.1886,-0.1742,-0.1886,-0.1807,-0.1509,-0.1284,-0.121,-0.1137,-0.0984,-0.0907,-0.3197,-0.1268,0.0669,0.2207,0.3407,0.4469,0.5526,0.651,0.7093,0.7947,0.8672,0.8988,0.9627,1.0199,1.0634,1.101,1.1509,1.2004,1.2512,1.2765,1.287,1.3061,1.3329,1.3623,1.3441,1.2135,1.1888,1.1888,1.1673,1.1298,1.1436,1.2375,1.2816,1.2522,1.2097,1.1888,1.1764,1.1695,1.1688,1.1633,1.1516,1.1454,1.1205,1.0822,1.0577,1.0451,1.0325,1.0142,1.0015,1.0085,0.9894,0.932,0.8748,0.8221,0.821,0.8177,0.7922,0.7792,0.7729,0.7688,0.7659,0.7459,0.7253,0.7363,0.771,0.8047,0.7897,0.733,0.6773,0.6311,0.5931,0.5857,0.578,0.5699,0.5619,0.5464,0.516,0.4316,0.3847,0.3136,0.3132,0.321,0.3446,0.3448,0.3684,0.3919,0.3919,0.3841,0.3528,0.3294,0.3136,0.3059,0.2984,0.2746,0.2666,0.2352,0.2194,0.2116,0.1959,0.196,0.1962,0.1489,0.0784,0.0157,-0.0236,-0.0236,-0.0235,-0.0157,-0.0079,0.0079,0.0079,0.0159,0.024,0.032,0.0242,-0.1859,0.0733,0.2397,0.3929,0.5384,0.6494,0.7409,0.82,0.8982,0.9564,1.0078,1.064,1.1135,1.1578,1.2012,1.2557,1.3218,1.3648,1.3906,1.4103,1.4213,1.4332,1.4588,1.5067,1.5008,1.4469,1.3777,1.3295,1.3036,1.2599,1.2567,1.3036,1.4004,1.4143,1.3459,1.3191,1.3122,1.3053,1.3045,1.2931,1.281,1.2687,1.2504,1.2189,1.2066,1.2012,1.1943,1.1757,1.1571,1.1578,1.1329,1.1024,1.0591,0.9767,0.9262,0.9075,0.8829,0.8705,0.8668,0.8664,0.8674,0.8512,0.8277,0.8335,0.8851,0.9291,0.9062,0.8484,0.7851,0.7395,0.6949,0.6942,0.6865,0.6784,0.6703,0.6703,0.6556,0.6257,0.5565,0.4766,0.4453,0.4297,0.4535,0.4696,0.4774,0.4774,0.4774,0.4693,0.4538,0.4304,0.4148,0.4153,0.4084,0.3843,0.3679,0.3288,0.3052,0.3052,0.2974,0.2974,0.2976,0.2898,0.2429,0.1803,0.1413,0.1335,0.1335,0.1414,0.1414,0.1334,0.1414,0.1572,0.1422,0.1269,0.1346,0.0264,0.2975,0.4823,0.64,0.7703,0.8612,0.9452,1.0223,1.0864,1.1432,1.1866,1.2411,1.2899,1.327,1.3682,1.4236,1.4718,1.5021,1.5264,1.5391,1.5555,1.5728,1.5786,1.6259,1.6353,1.613,1.5651,1.5021,1.4501,1.3856,1.3711,1.4282,1.5332,1.5547,1.4942,1.4718,1.461,1.4542,1.4542,1.4483,1.4305,1.4076,1.3828,1.3708,1.3476,1.3364,1.3235,1.3045,1.2862,1.2749,1.2634,1.2458,1.2151,1.1655,1.0836,1.0218,0.9849,0.9744,0.9819,0.9843,0.9869,0.997,0.9601,0.9622,0.9986,1.0268,1.0133,0.9463,0.8917,0.8542,0.8313,0.8241,0.8237,0.8161,0.808,0.808,0.8012,0.7953,0.7326,0.6388,0.615,0.5918,0.5777,0.5857,0.5702,0.5702,0.5625,0.5622,0.5544,0.5389,0.5309,0.524,0.5249,0.5004,0.4763,0.453,0.4219,0.4144,0.4144,0.4064,0.3988,0.3988,0.3756,0.3368,0.3057,0.2901,0.251,0.2352,0.2431,0.2511,0.2433,0.2356,0.2277,0.2278,0.2357,0.3262,0.6552,0.7904,0.919,1.0283,1.1002,1.1697,1.2379,1.2866,1.3365,1.3793,1.425,1.4681,1.5109,1.5505,1.5918,1.6291,1.6507,1.6564,1.6631,1.6912,1.709,1.7146,1.7313,1.7424,1.7357,1.7424,1.6922,1.5871,1.5118,1.5137,1.5676,1.6623,1.707,1.6701,1.6275,1.6265,1.6177,1.6177,1.6063,1.5833,1.5603,1.5303,1.5255,1.4904,1.4619,1.4551,1.4355,1.4186,1.4085,1.3974,1.3855,1.3683,1.3494,1.281,1.171,1.1094,1.0964,1.1028,1.1047,1.1108,1.1275,1.1223,1.1211,1.1111,1.1148,1.101,1.034,0.9965,0.975,0.9674,0.9599,0.9599,0.9523,0.9523,0.9448,0.9296,0.9231,0.9084,0.8456,0.799,0.7532,0.7234,0.6934,0.6857,0.6853,0.6777,0.6777,0.6696,0.67,0.6546,0.6398,0.6325,0.616,0.5999,0.5922,0.5616,0.5464,0.5386,0.5386,0.5231,0.5154,0.4924,0.4846,0.4691,0.4377,0.391,0.3366,0.3368,0.337,0.3214,0.3137,0.3215,0.3215,0.3215,0.8064,1.2776,1.2065,1.2313,1.3126,1.3646,1.4155,1.4693,1.5052,1.536,1.5743,1.6162,1.6398,1.669,1.7192,1.7654,1.795,1.8058,1.8112,1.8058,1.8112,1.8112,1.8027,1.8201,1.8405,1.8501,1.8697,1.8104,1.7258,1.6541,1.6287,1.6881,1.7901,1.8663,1.8391,1.7789,1.7413,1.7413,1.7401,1.7291,1.7079,1.6957,1.6733,1.6507,1.6291,1.613,1.6063,1.5881,1.5718,1.5565,1.5439,1.5216,1.4991,1.4805,1.4492,1.3691,1.2826,1.1984,1.2216,1.2365,1.2412,1.265,1.2704,1.2611,1.2385,1.209,1.1861,1.1582,1.1304,1.1105,1.0881,1.0732,1.0657,1.0582,1.0582,1.0507,1.0432,1.0576,1.0432,1.0288,0.9814,0.9054,0.8523,0.8228,0.7931,0.7931,0.8003,0.8003,0.8003,0.8003,0.7787,0.7642,0.7548,0.7383,0.7294,0.7145,0.708,0.6857,0.678,0.6703,0.6623,0.6546,0.6549,0.6391,0.6237,0.5777,0.5157,0.4691,0.438,0.4302,0.438,0.4304,0.4229,0.4151,0.4073,1.4807,1.5563,1.5477,1.5685,1.6179,1.6464,1.674,1.7093,1.7291,1.751,1.7727,1.8086,1.8389,1.8614,1.9008,1.9218,1.9386,1.9438,1.9451,1.9438,1.9426,1.9438,1.949,1.9554,1.967,1.967,1.9773,1.9773,1.896,1.8384,1.804,1.827,1.9119,1.9715,1.9687,1.9177,1.891,1.8821,1.8768,1.8661,1.8447,1.8274,1.8047,1.7829,1.7467,1.7357,1.7357,1.7335,1.7045,1.6832,1.6641,1.6472,1.6197,1.5979,1.5856,1.5633,1.5074,1.4418,1.3963,1.3907,1.3974,1.3995,1.4014,1.376,1.3455,1.3207,1.2938,1.2743,1.2558,1.2358,1.215,1.2077,1.2003,1.1929,1.1848,1.1848,1.1848,1.1848,1.1855,1.1787,1.1645,1.0864,1.0248,0.9884,0.9669,0.9448,0.9448,0.9448,0.9448,0.9377,0.917,0.8894,0.8789,0.8751,0.8585,0.8429,0.8461,0.8318,0.8169,0.8093,0.8008,0.8008,0.7983,0.7816,0.748,0.7019,0.6486,0.6089,0.5774,0.5696,0.5622,0.5544,0.5389,0.5168,0.5031,2.1828,1.9748,1.923,1.907,1.9182,1.9218,1.9267,1.9419,1.9534,1.9648,1.9724,1.9978,2.0281,2.0508,2.0607,2.0657,2.0706,2.0657,2.067,2.067,2.0706,2.0706,2.067,2.0782,2.0894,2.0908,2.093,2.0868,2.0706,2.0319,1.9889,1.9709,2.0246,2.0604,2.0552,2.0335,2.0131,2.0118,2.0054,1.9965,1.9825,1.9594,1.9438,1.9141,1.8778,1.8543,1.8596,1.859,1.8363,1.8081,1.7907,1.7743,1.7534,1.7489,1.7437,1.7366,1.7179,1.7042,1.6386,1.5971,1.5694,1.553,1.5259,1.4935,1.4607,1.44,1.4155,1.4022,1.3867,1.3673,1.3542,1.347,1.339,1.339,1.3324,1.3324,1.3324,1.3237,1.3112,1.3008,1.2914,1.2851,1.2251,1.1829,1.1397,1.1037,1.0968,1.0887,1.0812,1.0738,1.0519,1.017,1.0165,1.0126,0.9954,0.9804,0.9836,0.9753,0.9611,0.9591,0.9571,0.9446,0.9418,0.9199,0.8889,0.8932,0.8857,0.7962,0.7165,0.693,0.6777,0.67,0.6549,0.6264,0.6143,2.8756,2.7573,2.3721,2.2118,2.1993,2.1759,2.1643,2.176,2.1788,2.1769,2.1702,2.1688,2.1857,2.2025,2.2039,2.2007,2.21,2.2021,2.1927,2.1833,2.1785,2.1724,2.1738,2.1785,2.1846,2.1827,2.1894,2.1974,2.1988,2.196,2.1444,2.0977,2.135,2.1507,2.1529,2.1402,2.1272,2.1259,2.1245,2.1161,2.1064,2.0917,2.0832,2.0633,2.0458,2.0294,2.008,1.994,1.9683,1.9399,1.9242,1.9194,1.9012,1.9057,1.9039,1.916,1.9298,1.9221,1.889,1.778,1.7064,1.6793,1.6524,1.614,1.5917,1.561,1.5438,1.5371,1.5138,1.5037,1.4974,1.4903,1.4752,1.4609,1.4537,1.4458,1.4458,1.4458,1.4346,1.4206,1.4183,1.4099,1.4068,1.3498,1.2792,1.2358,1.207,1.207,1.1922,1.1774,1.1694,1.1484,1.1589,1.1502,1.1248,1.1241,1.1264,1.1207,1.1088,1.1132,1.1174,1.1027,1.0869,1.0892,1.0757,1.0971,1.0886,0.9855,0.8855,0.8282,0.7953,0.8052,0.7869,0.7596,0.7465,3.1168,3.0641,2.8684,2.6521,2.4374,2.4113,2.4164,2.438,2.4329,2.4245,2.4026,2.3625,2.3402,2.3475,2.336,2.3288,2.3332,2.3231,2.3187,2.3054,2.2965,2.2921,2.2891,2.2889,2.2905,2.2875,2.295,2.2995,2.3054,2.3098,2.2965,2.2646,2.2473,2.2348,2.2366,2.2338,2.2328,2.2314,2.2314,2.2221,2.2035,2.1988,2.1894,2.1609,2.163,2.1458,2.1264,2.1269,2.0947,2.0623,2.0472,2.0463,2.0498,2.0523,2.0649,2.0836,2.1068,2.1067,2.0722,1.9554,1.8527,1.7939,1.7677,1.7392,1.7195,1.6954,1.6775,1.666,1.6471,1.6306,1.6035,1.5965,1.5895,1.5816,1.5737,1.5658,1.5658,1.5658,1.5621,1.5484,1.5388,1.5392,1.5313,1.5163,1.4386,1.3608,1.339,1.3185,1.3141,1.3029,1.2896,1.2898,1.2961,1.2798,1.2634,1.2623,1.2705,1.2629,1.2544,1.2593,1.2628,1.2368,1.2232,1.238,1.2357,1.2338,1.1939,1.1315,1.0578,0.9896,0.9597,0.9503,0.9298,0.8992,0.8786,3.2728,3.2724,3.226,3.0221,2.7306,2.6826,2.6825,2.6907,2.6525,2.6131,2.5751,2.5068,2.4776,2.4784,2.486,2.4817,2.4875,2.4921,2.4856,2.4875,2.482,2.4521,2.4329,2.421,2.4152,2.3985,2.3909,2.3894,2.3921,2.3937,2.3937,2.3837,2.3651,2.345,2.3127,2.3246,2.3275,2.329,2.329,2.3187,2.3009,2.2965,2.286,2.268,2.2646,2.2509,2.2296,2.2245,2.2244,2.2014,2.1882,2.193,2.2003,2.2168,2.2291,2.2462,2.2564,2.2508,2.203,2.091,1.9738,1.9104,1.888,1.8714,1.8544,1.8281,1.8007,1.7871,1.7639,1.7413,1.7148,1.7139,1.7139,1.7051,1.7051,1.7051,1.6922,1.6932,1.6839,1.6675,1.663,1.6515,1.6437,1.6298,1.5718,1.4927,1.4482,1.4423,1.4579,1.4464,1.4281,1.432,1.4381,1.4221,1.399,1.4146,1.4241,1.4202,1.4122,1.4055,1.403,1.378,1.3735,1.3804,1.3743,1.3575,1.338,1.3124,1.2395,1.1497,1.1139,1.0745,1.0692,1.0387,1.0093,3.3823,3.4017,3.3876,3.2571,3.0571,3.0083,2.9628,2.9121,2.8304,2.7386,2.6602,2.6399,2.6222,2.6158,2.6433,2.6651,2.6643,2.6888,2.7022,2.6901,2.6707,2.6372,2.5994,2.5701,2.556,2.4704,2.4698,2.4907,2.4854,2.4775,2.4895,2.4974,2.4784,2.4486,2.3867,2.3994,2.412,2.4261,2.4245,2.4105,2.4021,2.3964,2.3779,2.3724,2.3653,2.348,2.3231,2.3304,2.3389,2.345,2.3416,2.3629,2.407,2.4104,2.4147,2.4177,2.4289,2.4257,2.3872,2.2002,2.0939,2.0287,2.0073,1.9965,1.9732,1.9414,1.9166,1.9083,1.8793,1.8566,1.8442,1.8432,1.8422,1.8355,1.8355,1.823,1.8172,1.8114,1.794,1.7871,1.7745,1.7619,1.7472,1.7285,1.6885,1.6334,1.5726,1.5656,1.5861,1.5831,1.5659,1.5707,1.5794,1.5763,1.5605,1.5721,1.5763,1.5747,1.5656,1.5484,1.5412,1.5338,1.5256,1.5284,1.5218,1.5079,1.5218,1.5289,1.4228,1.3248,1.2264,1.1816,1.1793,1.1744,1.15,3.4662,3.5028,3.5025,3.4575,3.3586,3.1815,3.0878,3.044,2.9674,2.8868,2.8394,2.8763,2.8533,2.8167,2.8237,2.8469,2.8426,2.8333,2.8469,2.8285,2.8273,2.7925,2.7594,2.7355,2.7185,2.6847,2.6587,2.617,2.628,2.5875,2.5637,2.568,2.5626,2.5346,2.4902,2.4839,2.4879,2.4879,2.4879,2.4839,2.4759,2.4592,2.4496,2.4492,2.4457,2.4364,2.4155,2.4387,2.4712,2.4837,2.4834,2.521,2.558,2.5611,2.5488,2.5547,2.5591,2.5384,2.4894,2.3761,2.276,2.1981,2.1409,2.1256,2.0978,2.0649,2.0495,2.0311,2.0063,1.989,1.977,1.9759,1.9694,1.9497,1.9431,1.9309,1.9243,1.9131,1.9029,1.8987,1.892,1.8927,1.8841,1.8863,1.8517,1.8222,1.7816,1.7261,1.7293,1.7134,1.6963,1.7076,1.7156,1.7158,1.7192,1.7174,1.7111,1.7075,1.6967,1.6798,1.674,1.6698,1.6683,1.6561,1.6683,1.6648,1.6574,1.6327,1.5779,1.4928,1.4076,1.3369,1.3182,1.304,1.2771,3.4946,3.5418,3.5538,3.5571,3.5266,3.3573,3.2323,3.1394,3.0611,2.9962,2.9619,3.0212,3.0165,2.972,2.9994,3.0171,3.0074,3.0127,3.0072,2.9873,2.978,2.9495,2.9215,2.895,2.8641,2.8469,2.8027,2.7624,2.7258,2.6895,2.6562,2.6345,2.6295,2.6085,2.5742,2.5594,2.5497,2.5535,2.5535,2.5497,2.5368,2.5259,2.515,2.5272,2.5369,2.5497,2.5462,2.5701,2.6166,2.6215,2.6426,2.6749,2.6937,2.6931,2.6811,2.6836,2.6587,2.6269,2.5783,2.5342,2.4389,2.3645,2.3012,2.2555,2.2277,2.1895,2.169,2.1506,2.129,2.1112,2.0985,2.0985,2.0869,2.0666,2.0549,2.0409,2.0366,2.0248,2.0205,2.0095,2.0232,2.0258,2.0334,2.0392,2.0359,2.0103,1.9899,1.9409,1.8889,1.8639,1.8498,1.8637,1.8672,1.8674,1.8665,1.8608,1.8558,1.8461,1.8238,1.8078,1.7925,1.7925,1.7917,1.7836,1.7764,1.77,1.7554,1.7286,1.6976,1.6643,1.618,1.5359,1.472,1.4314,1.4146,3.4675,3.5272,3.5503,3.5678,3.5654,3.4936,3.3623,3.184,3.1166,3.0594,3.0165,3.0668,3.1005,3.1084,3.1582,3.1696,3.1537,3.1823,3.1812,3.1777,3.1462,3.1095,3.0712,3.0396,3.0084,2.9517,2.907,2.883,2.8203,2.8066,2.7691,2.713,2.7079,2.6877,2.6623,2.65,2.6256,2.6187,2.6101,2.6066,2.5941,2.6072,2.6081,2.629,2.6754,2.6918,2.703,2.73,2.7807,2.8041,2.8192,2.8548,2.8652,2.8544,2.8352,2.7963,2.7464,2.7108,2.6797,2.6361,2.604,2.5356,2.45,2.4151,2.3669,2.3167,2.2786,2.2591,2.2348,2.2262,2.2101,2.2051,2.1939,2.1815,2.169,2.1577,2.1463,2.1394,2.1319,2.1407,2.1585,2.1733,2.2002,2.2112,2.1992,2.2067,2.1851,2.1521,2.1062,2.0491,2.0377,2.0291,2.0322,2.0256,2.0197,1.9944,1.9797,1.9678,1.9441,1.9283,1.9213,1.9054,1.8975,1.8886,1.8816,1.8665,1.8523,1.8399,1.832,1.8017,1.7577,1.6935,1.6041,1.5636,1.5477,3.4468,3.4963,3.5418,3.568,3.5584,3.4353,3.2902,3.1615,3.1405,3.113,3.0786,3.2608,3.2757,3.2371,3.301,3.3076,3.2995,3.2943,3.288,3.2763,3.255,3.2309,3.2052,3.1742,3.1533,3.1185,3.0734,3.0231,2.9954,2.9624,2.894,2.8401,2.8149,2.7892,2.7708,2.7648,2.7265,2.6962,2.6843,2.6774,2.6908,2.7142,2.7207,2.7506,2.8401,2.8544,2.841,2.8721,2.9131,2.9108,2.9398,2.9691,2.9625,2.9316,2.8996,2.8654,2.8319,2.8012,2.7799,2.7348,2.7041,2.6872,2.6105,2.548,2.498,2.4334,2.3807,2.3651,2.3428,2.3301,2.3148,2.304,2.2992,2.2871,2.2787,2.2715,2.2652,2.2747,2.2742,2.2862,2.3048,2.3288,2.3616,2.3617,2.3537,2.3718,2.3697,2.3446,2.2988,2.2295,2.1817,2.1714,2.1614,2.1461,2.1395,2.1221,2.1011,2.0789,2.0547,2.0391,2.0235,2.0079,2.0089,1.9942,1.9803,1.9566,1.932,1.9265,1.9358,1.9088,1.8727,1.8078,1.744,1.7033,1.6714,3.4244,3.4755,3.5226,3.5216,3.4722,3.4066,3.2947,3.1806,3.1609,3.168,3.2291,3.3545,3.3987,3.3713,3.399,3.4025,3.3758,3.3643,3.3532,3.3332,3.3196,3.3075,3.2939,3.2781,3.2613,3.2441,3.2095,3.1568,3.1217,3.0356,2.9571,2.9506,2.9339,2.9044,2.8877,2.8991,2.8862,2.8447,2.8128,2.7961,2.81,2.8323,2.8374,2.8783,2.9862,2.9994,2.9607,3.0015,3.0224,3.0135,3.0443,3.036,3.0267,2.9935,2.9585,2.9303,2.9104,2.8873,2.8638,2.8319,2.7981,2.7705,2.7384,2.6855,2.6167,2.5522,2.512,2.4772,2.457,2.4337,2.4176,2.4073,2.4028,2.3969,2.3888,2.3815,2.3948,2.4116,2.4268,2.4416,2.4628,2.4779,2.4909,2.4933,2.4879,2.4967,2.4862,2.4708,2.4195,2.3531,2.308,2.282,2.2692,2.2617,2.2478,2.2252,2.2014,2.1787,2.1634,2.1395,2.1252,2.1108,2.1031,2.0916,2.08,2.0625,2.0362,2.0313,2.0265,2.006,1.9844,1.9441,1.8877,1.8247,1.7844,3.3969,3.462,3.5047,3.4546,3.3503,3.416,3.3615,3.2175,3.2055,3.2615,3.3767,3.3958,3.4355,3.4547,3.4632,3.452,3.4321,3.4179,3.4055,3.386,3.3734,3.3625,3.3541,3.3397,3.3262,3.322,3.3033,3.2583,3.1864,3.1224,3.0784,3.0553,3.0463,3.0267,3.0143,3.035,3.0277,3.0168,3.0047,2.9989,2.958,2.9445,2.9397,2.9986,3.0942,3.1655,3.1058,3.1119,3.1487,3.1334,3.1179,3.1044,3.0804,3.0584,3.0251,3.0011,2.9837,2.9633,2.9364,2.9044,2.8842,2.8543,2.8207,2.7913,2.7312,2.651,2.6051,2.5725,2.5439,2.5287,2.5133,2.5195,2.5118,2.5208,2.5221,2.5276,2.5382,2.5595,2.5803,2.5974,2.6063,2.6253,2.6231,2.6231,2.6002,2.6045,2.5898,2.5746,2.5382,2.4814,2.4311,2.3875,2.3655,2.3497,2.3298,2.3139,2.299,2.2767,2.2617,2.2392,2.2166,2.2025,2.1883,2.1762,2.164,2.165,2.1466,2.1308,2.1191,2.1001,2.0857,2.0867,2.0313,1.9529,1.9054,3.3721,3.443,3.5128,3.4555,3.3362,3.4192,3.4004,3.309,3.3643,3.3984,3.4314,3.4743,3.5002,3.5066,3.5018,3.487,3.4752,3.4607,3.4517,3.434,3.4197,3.4074,3.3998,3.3842,3.3734,3.3652,3.356,3.3403,3.2974,3.2518,3.2182,3.2,3.2009,3.1999,3.1183,3.1433,3.169,3.1649,3.1882,3.1351,3.0476,3.0648,3.0812,3.111,3.1775,3.2161,3.1865,3.1917,3.2038,3.1984,3.1875,3.1654,3.1351,3.1257,3.0965,3.0625,3.0518,3.0284,3.0044,2.9766,2.9528,2.9303,2.9012,2.8873,2.8384,2.75,2.6938,2.6634,2.64,2.6258,2.6238,2.6245,2.6371,2.6479,2.6627,2.6703,2.6836,2.7081,2.7386,2.7477,2.7524,2.7538,2.7524,2.7377,2.7242,2.704,2.6837,2.6633,2.6427,2.5988,2.5499,2.4992,2.4576,2.436,2.4166,2.3959,2.3801,2.3655,2.3497,2.3287,2.3065,2.2916,2.2777,2.2574,2.2445,2.2391,2.2273,2.2167,2.1996,2.1832,2.1711,2.1634,2.1492,2.0857,2.0391,3.3543,3.4223,3.5021,3.4701,3.3929,3.4695,3.4664,3.416,3.481,3.511,3.5045,3.5349,3.5457,3.5374,3.5281,3.5152,3.5034,3.4964,3.4812,3.4691,3.4586,3.4454,3.434,3.4245,3.4148,3.4074,3.3998,3.3902,3.3823,3.3668,3.3311,3.3183,3.3468,3.3276,3.2363,3.2712,3.2829,3.2827,3.3241,3.2631,3.1517,3.1858,3.1998,3.2178,3.2305,3.2588,3.2555,3.2504,3.2437,3.2352,3.2249,3.2126,3.1858,3.1711,3.1507,3.1278,3.1083,3.0958,3.0658,3.041,3.0182,2.9968,2.9798,2.956,2.9293,2.8523,2.8259,2.8011,2.7684,2.751,2.7594,2.7694,2.7818,2.7952,2.8182,2.8363,2.8521,2.8733,2.8754,2.8628,2.8666,2.8575,2.8492,2.8222,2.8078,2.7894,2.7696,2.751,2.7297,2.7095,2.6676,2.6183,2.5755,2.5288,2.4957,2.4743,2.4599,2.4527,2.4455,2.4154,2.3936,2.379,2.3655,2.3457,2.3257,2.313,2.3065,2.2966,2.2744,2.251,2.2456,2.2402,2.2252,2.2111,2.1711,3.3447,3.413,3.4851,3.4812,3.4457,3.5356,3.5329,3.4861,3.5527,3.5886,3.5818,3.5748,3.5698,3.5585,3.5489,3.5364,3.5262,3.5184,3.5069,3.4982,3.487,3.4772,3.467,3.4586,3.4498,3.4409,3.434,3.4293,3.4221,3.4099,3.4043,3.4086,3.4134,3.412,3.3976,3.3823,3.3652,3.3561,3.3625,3.3559,3.3361,3.3286,3.3027,3.2952,3.3006,3.2993,3.293,3.2848,3.2798,3.2702,3.2603,3.247,3.2335,3.2144,3.1985,3.175,3.1657,3.1487,3.1295,3.1004,3.0821,3.0634,3.045,3.0342,3.0105,2.9982,2.9721,2.9481,2.92,2.8921,2.9049,2.9175,2.9366,2.947,2.9721,2.9871,3.0067,3.0178,2.9984,2.9808,2.969,2.9586,2.9366,2.9093,2.8931,2.8739,2.8546,2.8417,2.8222,2.8026,2.7749,2.7338,2.6989,2.6458,2.5943,2.5594,2.5453,2.537,2.53,2.5016,2.4802,2.4659,2.4455,2.4261,2.4139,2.3931,2.3824,2.3734,2.3463,2.3265,2.3287,2.3298,2.315,2.3001,2.2927,3.3372,3.4274,3.4832,3.4668,3.4308,3.5243,3.5286,3.4837,3.5525,3.5936,3.5951,3.5887,3.5794,3.567,3.5658,3.5562,3.5425,3.5391,3.5326,3.5219,3.5138,3.5054,3.4964,3.4851,3.483,3.4728,3.4604,3.4539,3.4498,3.4435,3.439,3.4386,3.4344,3.4314,3.4258,3.4105,3.4049,3.3972,3.3939,3.3868,3.3698,3.3559,3.3375,3.3316,3.3334,3.3304,3.3286,3.3256,3.3274,3.3226,3.3099,3.2908,3.2781,3.2634,3.2453,3.2266,3.2127,3.1949,3.1768,3.1665,3.1543,3.1376,3.1379,3.1633,3.1566,3.1741,3.1567,3.1512,3.1149,3.0554,3.0567,3.0753,3.0914,3.0864,3.1035,3.1034,3.116,3.1058,3.0939,3.0732,3.06,3.0466,3.0254,3.004,2.987,2.9685,2.9435,2.931,2.9121,2.8994,2.8753,2.8417,2.8078,2.7564,2.6892,2.6577,2.6358,2.6289,2.6151,2.5861,2.5652,2.5465,2.5253,2.504,2.4861,2.4681,2.4622,2.4397,2.4288,2.4166,2.4177,2.4189,2.4043,2.3886,2.3801]},{"header":{"parameterUnit":"m.s-1","parameterCategory":1,"la1":31.0,"la2":29.5877,"lo1":-88.7671,"lo2":-86.6584,"dy":0.0162,"dx":0.0185,"nx":115,"ny":88,"refTime":"2024-03-02T18:00:00:Z","depth":0,"parameterNumber":3,"parameterNumberName":"V-component_of_WINDS"},"data":[0.0,0.0,0.0,0.0,0.0,0.0,0.0,0.0,0.0,0.0,0.0,0.0,0.0,0.0,0.0,0.0,0.0,0.0,0.0,0.0,0.0,0.0,0.0,0.0,0.0,0.0,0.0,0.0,0.0,0.0,0.0,0.0,0.0,0.0,0.0,0.0,0.0,0.0,0.0,0.0,0.0,0.0,0.0,0.0,0.0,0.0,0.0,0.0,0.0,0.0,0.0,0.0,0.0,0.0,0.0,0.0,0.0,0.0,0.0,0.0,0.0,0.0,0.0,0.0,0.0,0.0,0.0,0.0,0.0,0.0,0.0,0.0,0.0,0.0,0.0,0.0,0.0,0.0,0.0,0.0,0.0,0.0,0.0,0.0,0.0,0.0,0.0,0.0,0.0,0.0,0.0,0.0,0.0,0.0,0.0,0.0,0.0,0.0,0.0,0.0,0.0,0.0,0.0,0.0,0.0,0.0,0.0,0.0,0.0,0.0,0.0,0.0,0.0,0.0,0.0,0.0,0.0,0.0,0.0,0.0,0.0,0.0,0.0,0.0,0.0,0.0,0.0,0.0,0.0,0.0,0.0,0.0,0.0,0.0,0.0,0.0,0.0,0.0,0.0,0.0,0.0,0.0,0.0,0.0,0.0,0.0,0.0,0.0,0.0,0.0,0.0,0.0,0.0,0.0,0.0,0.0,0.0,0.0,0.0,0.0,0.0,0.0,0.0,0.0,0.0,0.0,0.0,0.0,0.0,0.0,0.0,0.0,0.0,0.0,0.0,0.0,0.0,0.0,0.0,0.0,0.0,0.0,0.0,0.0,0.0,0.0,0.0,0.0,0.0,0.0,0.0,0.0,0.0,0.0,0.0,0.0,0.0,0.0,0.0,0.0,0.0,0.0,0.0,0.0,0.0,0.0,0.0,0.0,0.0,0.0,0.0,0.0,0.0,0.0,0.0,0.0,0.0,0.0,0.0,0.0,0.0,0.0,0.0,0.0,0.0,0.0,0.0,0.0,0.0,0.0,0.0,0.0,0.0,0.0,0.0,0.0,0.0,0.0,0.0,0.0,0.0,0.0,0.0,0.0,0.0,0.0,0.0,0.0,0.0,0.0,0.0,0.0,0.0,0.0,0.0,0.0,0.0,0.0,0.0,0.0,0.0,0.0,0.0,0.0,0.0,0.0,0.0,0.0,0.0,0.0,0.0,0.0,0.0,0.0,0.0,0.0,0.0,0.0,0.0,0.0,0.0,0.0,0.0,0.0,0.0,0.0,0.0,0.0,0.0,0.0,0.0,0.0,0.0,0.0,0.0,0.0,0.0,0.0,0.0,0.0,0.0,0.0,0.0,0.0,0.0,0.0,0.0,0.0,0.0,0.0,0.0,0.0,0.0,0.0,0.0,0.0,0.0,0.0,0.0,0.0,0.0,0.0,0.0,0.0,0.0,0.0,0.0,0.0,0.0,0.0,0.0,0.0,0.0,0.0,0.0,0.0,0.0,0.0,0.0,0.0,0.0,0.0,0.0,0.0,0.0,0.0,0.0,0.0,0.0,0.0,0.0,0.0,0.0,0.0,0.0,0.0,0.0,0.0,0.0,0.0,0.0,0.0,0.0,0.0,0.0,0.0,0.0,0.0,0.0,0.0,0.0,0.0,0.0,0.0,0.0,0.0,0.0,0.0,0.0,0.0,0.0,0.0,0.0,0.0,0.0,0.0,0.0,0.0,0.0,0.0,0.0,0.0,0.0,0.0,0.0,0.0,0.0,0.0,0.0,0.0,0.0,0.0,0.0,0.0,0.0,0.0,0.0,0.0,0.0,0.0,0.0,0.0,0.0,0.0,0.0,0.0,0.0,0.0,0.0,0.0,0.0,0.0,0.0,0.0,0.0,0.0,0.0,0.0,0.0,0.0,0.0,0.0,0.0,0.0,0.0,0.0,0.0,0.0,0.0,0.0,0.0,0.0,0.0,0.0,0.0,0.0,0.0,0.0,0.0,0.0,0.0,0.0,0.0,0.0,0.0,0.0,0.0,0.0,0.0,0.0,0.0,0.0,0.0,0.0,0.0,0.0,0.0,0.0,0.0,0.0,0.0,0.0,0.0,0.0,0.0,0.0,0.0,0.0,0.0,0.0,0.0,0.0,0.0,0.0,0.0,0.0,0.0,0.0,0.0,0.0,0.0,0.0,0.0,0.0,0.0,0.0,0.0,0.0,0.0,0.0,0.0,0.0,0.0,0.0,0.0,0.0,0.0,0.0,0.0,0.0,0.0,0.0,0.0,0.0,0.0,0.0,0.0,0.0,0.0,0.0,0.0,0.0,0.0,0.0,0.0,0.0,0.0,0.0,0.0,0.0,0.0,0.0,0.0,0.0,0.0,0.0,0.0,0.0,0.0,0.0,0.0,0.0,0.0,0.0,0.0,0.0,0.0,0.0,0.0,0.0,0.0,0.0,0.0,0.0,0.0,0.0,0.0,0.0,0.0,0.0,0.0,0.0,0.0,0.0,0.0,0.0,0.0,0.0,0.0,0.0,0.0,0.0,0.0,0.0,0.0,0.0,0.0,0.0,0.0,0.0,0.0,0.0,0.0,0.0,0.0,0.0,0.0,0.0,0.0,0.0,0.0,0.0,0.0,0.0,0.0,0.0,0.0,0.0,0.0,0.0,0.0,0.0,0.0,0.0,0.0,0.0,0.0,0.0,0.0,0.0,0.0,0.0,0.0,0.0,0.0,0.0,0.0,0.0,0.0,0.0,0.0,0.0,0.0,0.0,0.0,0.0,0.0,0.0,0.0,0.0,0.0,0.0,0.0,0.0,0.0,0.0,0.0,0.0,0.0,0.0,0.0,0.0,0.0,0.0,0.0,0.0,0.0,0.0,0.0,0.0,0.0,0.0,0.0,0.0,0.0,0.0,0.0,0.0,0.0,0.0,0.0,0.0,0.0,0.0,0.0,0.0,0.0,0.0,0.0,0.0,0.0,0.0,0.0,0.0,0.0,0.0,0.0,0.0,0.0,0.0,0.0,0.0,0.0,0.0,0.0,0.0,0.0,0.0,0.0,0.0,0.0,0.0,0.0,0.0,0.0,0.0,0.0,0.0,0.0,0.0,0.0,0.0,0.0,0.0,0.0,0.0,0.0,0.0,0.0,0.0,0.0,0.0,0.0,0.0,0.0,0.0,0.0,0.0,0.0,0.0,0.0,0.0,0.0,0.0,0.0,0.0,0.0,0.0,0.0,0.0,0.0,0.0,0.0,0.0,0.0,0.0,0.0,0.0,0.0,0.0,0.0,0.0,0.0,0.0,0.0,0.0,0.0,0.0,0.0,0.0,0.0,0.0,0.0,0.0,0.0,0.0,0.0,0.0,0.0,0.0,0.0,0.0,0.0,0.0,0.0,0.0,0.0,0.0,0.0,0.0,0.0,0.0,0.0,0.0,0.0,0.0,0.0,0.0,0.0,0.0,0.0,0.0,0.0,0.0,0.0,0.0,0.0,0.0,0.0,0.0,0.0,0.0,0.0,0.0,0.0,0.0,0.0,0.0,0.0,0.0,0.0,0.0,0.0,0.0,0.0,0.0,0.0,0.0,0.0,0.0,0.0,0.0,0.0,0.0,0.0,0.0,0.0,0.0,0.0,0.0,0.0,0.0,0.0,0.0,0.0,0.0,0.0,0.0,0.0,0.0,0.0,0.0,0.0,0.0,0.0,0.0,0.0,0.0,0.0,0.0,0.0,0.0,0.0,0.0,0.0,0.0,0.0,0.0,0.0,0.0,0.0,0.0,0.0,0.0,0.0,0.0,0.0,0.0,0.0,0.0,0.0,0.0,0.0,0.0,0.0,0.0,0.0,0.0,0.0,0.0,0.0,0.0,0.0,0.0,0.0,0.0,0.0,0.0,0.0,0.0,0.0,0.0,0.0,0.0,0.0,0.0,0.0,0.0,0.0,0.0,0.0,0.0,0.0,0.0,0.0,0.0,0.0,0.0,0.0,0.0,0.0,0.0,0.0,0.0,0.0,0.0,0.0,0.0,0.0,0.0,0.0,0.0,0.0,0.0,0.0,0.0,0.0,0.0,0.0,0.0,0.0,0.0,0.0,0.0,0.0,0.0,0.0,0.0,0.0,0.0,0.0,0.0,0.0,0.0,0.0,0.0,0.0,0.0,0.0,0.0,0.0,0.0,0.0,0.0,0.0,0.0,0.0,0.0,0.0,0.0,0.0,0.0,0.0,0.0,0.0,0.0,0.0,0.0,0.0,0.0,0.0,0.0,0.0,0.0,0.0,0.0,-1.8674,0.0,0.0,0.0,0.0,0.0,0.0,0.0,0.0,0.0,0.0,0.0,0.0,0.0,0.0,0.0,0.0,0.0,0.0,0.0,0.0,0.0,0.0,0.0,0.0,0.0,0.0,0.0,0.0,0.0,0.0,0.0,0.0,0.0,0.0,0.0,0.0,0.0,0.0,0.0,0.0,0.0,0.0,0.0,0.0,0.0,0.0,0.0,0.0,0.0,0.0,0.0,0.0,0.0,0.0,0.0,0.0,0.0,0.0,0.0,0.0,0.0,0.0,0.0,0.0,0.0,0.0,0.0,0.0,0.0,0.0,0.0,0.0,0.0,0.0,0.0,0.0,0.0,0.0,0.0,0.0,0.0,0.0,0.0,0.0,0.0,0.0,0.0,0.0,0.0,0.0,0.0,0.0,0.0,0.0,0.0,0.0,0.0,0.0,0.0,0.0,0.0,0.0,0.0,0.0,0.0,0.0,0.0,0.0,0.0,0.0,-1.8674,-1.8674,-1.8818,-1.8962,-1.9075,0.0,0.0,0.0,0.0,0.0,0.0,0.0,0.0,0.0,0.0,0.0,0.0,0.0,0.0,0.0,0.0,0.0,0.0,0.0,0.0,0.0,0.0,0.0,0.0,0.0,0.0,0.0,0.0,0.0,0.0,0.0,0.0,0.0,0.0,0.0,0.0,0.0,0.0,0.0,0.0,0.0,0.0,0.0,0.0,0.0,0.0,0.0,0.0,0.0,0.0,0.0,0.0,0.0,0.0,0.0,0.0,0.0,0.0,0.0,0.0,0.0,0.0,0.0,0.0,0.0,0.0,0.0,0.0,0.0,0.0,0.0,0.0,0.0,0.0,0.0,0.0,0.0,0.0,0.0,0.0,0.0,0.0,0.0,0.0,0.0,0.0,0.0,0.0,0.0,0.0,0.0,0.0,0.0,0.0,0.0,0.0,0.0,0.0,0.0,0.0,0.0,0.0,0.0,0.0,0.0,0.0,0.0,0.0,0.0,0.0,0.0,0.0,-1.9274,-1.9483,-1.9539,0.0,0.0,0.0,0.0,0.0,0.0,0.0,0.0,0.0,0.0,0.0,0.0,0.0,0.0,0.0,0.0,0.0,0.0,0.0,0.0,0.0,0.0,0.0,0.0,0.0,0.0,0.0,0.0,0.0,0.0,0.0,0.0,0.0,0.0,0.0,0.0,0.0,0.0,0.0,0.0,0.0,0.0,0.0,0.0,0.0,0.0,0.0,0.0,0.0,0.0,0.0,0.0,0.0,0.0,0.0,0.0,0.0,0.0,0.0,0.0,0.0,0.0,0.0,0.0,0.0,0.0,0.0,0.0,0.0,0.0,0.0,0.0,0.0,0.0,0.0,0.0,0.0,0.0,0.0,0.0,0.0,0.0,0.0,0.0,0.0,0.0,0.0,0.0,0.0,0.0,0.0,0.0,0.0,0.0,0.0,0.0,0.0,0.0,0.0,0.0,0.0,0.0,0.0,0.0,0.0,0.0,0.0,0.0,0.0,0.0,-1.9605,-1.9802,-1.9802,0.0,-2.027,0.0,0.0,0.0,0.0,0.0,0.0,0.0,0.0,0.0,0.0,0.0,0.0,0.0,0.0,0.0,0.0,0.0,0.0,0.0,0.0,0.0,0.0,0.0,0.0,0.0,0.0,0.0,0.0,0.0,0.0,0.0,0.0,0.0,0.0,0.0,0.0,0.0,0.0,0.0,0.0,0.0,0.0,0.0,0.0,0.0,0.0,0.0,0.0,0.0,0.0,0.0,0.0,0.0,0.0,0.0,0.0,0.0,0.0,0.0,0.0,0.0,0.0,0.0,0.0,0.0,0.0,0.0,0.0,0.0,0.0,0.0,0.0,0.0,0.0,0.0,0.0,0.0,0.0,0.0,0.0,0.0,0.0,0.0,0.0,0.0,0.0,0.0,0.0,0.0,0.0,0.0,0.0,0.0,0.0,0.0,0.0,0.0,0.0,0.0,0.0,0.0,0.0,0.0,0.0,0.0,0.0,0.0,0.0,0.0,0.0,-2.014,-2.0205,-2.0388,-2.0582,0.0,0.0,0.0,0.0,0.0,0.0,0.0,0.0,0.0,0.0,0.0,0.0,0.0,0.0,0.0,0.0,0.0,0.0,0.0,0.0,0.0,0.0,0.0,0.0,0.0,0.0,0.0,0.0,0.0,0.0,0.0,0.0,0.0,0.0,0.0,0.0,0.0,0.0,0.0,0.0,0.0,0.0,0.0,0.0,0.0,0.0,0.0,0.0,0.0,0.0,0.0,0.0,0.0,0.0,0.0,0.0,0.0,0.0,0.0,0.0,0.0,0.0,0.0,0.0,0.0,0.0,0.0,0.0,0.0,0.0,0.0,0.0,0.0,0.0,0.0,0.0,0.0,0.0,0.0,0.0,0.0,0.0,0.0,0.0,0.0,0.0,0.0,0.0,0.0,0.0,0.0,0.0,0.0,0.0,0.0,0.0,0.0,0.0,0.0,0.0,0.0,0.0,0.0,0.0,0.0,0.0,0.0,0.0,0.0,0.0,-2.0518,-2.0658,-2.0646,-2.0967,-2.1169,-2.136,0.0,0.0,0.0,0.0,0.0,0.0,0.0,0.0,0.0,0.0,0.0,0.0,0.0,0.0,0.0,0.0,0.0,0.0,0.0,0.0,0.0,0.0,0.0,0.0,0.0,0.0,0.0,0.0,0.0,0.0,0.0,0.0,0.0,0.0,0.0,0.0,0.0,0.0,0.0,0.0,0.0,0.0,0.0,0.0,0.0,0.0,0.0,0.0,0.0,0.0,0.0,0.0,0.0,0.0,0.0,0.0,0.0,0.0,0.0,0.0,0.0,0.0,0.0,0.0,0.0,0.0,0.0,0.0,0.0,0.0,0.0,0.0,0.0,0.0,0.0,0.0,0.0,0.0,0.0,0.0,0.0,0.0,0.0,0.0,0.0,0.0,0.0,0.0,0.0,0.0,0.0,0.0,0.0,0.0,0.0,0.0,0.0,0.0,0.0,0.0,0.0,0.0,0.0,0.0,0.0,0.0,0.0,0.0,-2.0903,-2.1042,-2.1221,-2.1336,-2.1549,-2.1635,0.0,0.0,0.0,0.0,0.0,0.0,0.0,0.0,0.0,0.0,0.0,0.0,0.0,0.0,0.0,0.0,0.0,0.0,0.0,0.0,0.0,0.0,0.0,0.0,0.0,0.0,0.0,0.0,0.0,0.0,0.0,0.0,0.0,0.0,0.0,0.0,0.0,0.0,0.0,0.0,0.0,0.0,0.0,0.0,0.0,0.0,0.0,0.0,0.0,0.0,0.0,0.0,0.0,0.0,0.0,0.0,0.0,0.0,0.0,0.0,0.0,0.0,0.0,0.0,0.0,0.0,0.0,0.0,0.0,0.0,0.0,0.0,0.0,0.0,0.0,0.0,0.0,0.0,0.0,0.0,0.0,0.0,0.0,0.0,0.0,0.0,0.0,0.0,0.0,0.0,0.0,0.0,0.0,0.0,0.0,0.0,0.0,0.0,0.0,0.0,0.0,0.0,0.0,0.0,0.0,0.0,0.0,0.0,0.0,-2.1434,-2.1446,-2.1584,-2.1726,-2.18,-2.1874,0.0,0.0,0.0,0.0,0.0,0.0,0.0,0.0,0.0,0.0,0.0,0.0,0.0,0.0,0.0,0.0,0.0,0.0,0.0,0.0,0.0,0.0,0.0,0.0,0.0,0.0,0.0,0.0,0.0,0.0,0.0,0.0,0.0,0.0,0.0,0.0,0.0,0.0,0.0,0.0,0.0,0.0,0.0,0.0,0.0,0.0,0.0,0.0,0.0,0.0,0.0,0.0,0.0,0.0,0.0,0.0,0.0,0.0,0.0,0.0,0.0,0.0,0.0,0.0,0.0,0.0,0.0,0.0,0.0,0.0,0.0,0.0,0.0,0.0,0.0,0.0,0.0,0.0,0.0,0.0,0.0,0.0,0.0,0.0,0.0,0.0,0.0,0.0,0.0,0.0,0.0,0.0,0.0,0.0,0.0,0.0,0.0,0.0,0.0,0.0,0.0,0.0,0.0,0.0,0.0,0.0,0.0,0.0,0.0,-2.1949,0.0,-2.1972,-2.2185,-2.2185,-2.2197,0.0,0.0,0.0,0.0,0.0,0.0,0.0,0.0,0.0,0.0,0.0,0.0,0.0,0.0,0.0,0.0,0.0,0.0,0.0,0.0,0.0,0.0,0.0,0.0,0.0,0.0,0.0,0.0,0.0,0.0,0.0,0.0,0.0,0.0,0.0,0.0,0.0,0.0,0.0,0.0,0.0,0.0,0.0,0.0,0.0,0.0,0.0,0.0,0.0,0.0,0.0,0.0,0.0,0.0,0.0,0.0,0.0,0.0,0.0,0.0,0.0,0.0,0.0,0.0,0.0,0.0,0.0,0.0,0.0,0.0,0.0,0.0,0.0,0.0,0.0,0.0,0.0,0.0,0.0,0.0,0.0,0.0,0.0,0.0,0.0,0.0,0.0,0.0,0.0,0.0,0.0,0.0,0.0,0.0,0.0,0.0,0.0,0.0,0.0,0.0,0.0,0.0,0.0,0.0,0.0,0.0,0.0,0.0,-2.2049,-2.2359,-2.2419,-2.2469,-2.269,-2.2702,-2.2714,0.0,0.0,0.0,0.0,0.0,0.0,0.0,0.0,0.0,0.0,0.0,0.0,0.0,0.0,0.0,0.0,0.0,0.0,0.0,0.0,0.0,0.0,0.0,0.0,0.0,0.0,0.0,0.0,0.0,0.0,0.0,0.0,0.0,0.0,0.0,0.0,0.0,0.0,0.0,0.0,0.0,0.0,0.0,0.0,0.0,0.0,0.0,0.0,0.0,0.0,0.0,0.0,0.0,0.0,0.0,0.0,0.0,0.0,0.0,0.0,0.0,0.0,0.0,0.0,0.0,0.0,0.0,0.0,0.0,0.0,0.0,0.0,0.0,0.0,0.0,0.0,0.0,0.0,0.0,0.0,0.0,0.0,0.0,0.0,0.0,0.0,0.0,0.0,0.0,0.0,0.0,0.0,0.0,0.0,0.0,0.0,0.0,0.0,0.0,0.0,0.0,0.0,0.0,0.0,0.0,0.0,0.0,0.0,0.0,-2.2726,-2.2763,-2.2823,-2.2969,-2.2967,-2.2967,0.0,0.0,0.0,0.0,0.0,0.0,0.0,0.0,0.0,0.0,0.0,0.0,0.0,0.0,0.0,0.0,0.0,0.0,0.0,0.0,0.0,0.0,0.0,0.0,0.0,0.0,0.0,0.0,0.0,0.0,0.0,0.0,0.0,0.0,0.0,0.0,0.0,0.0,0.0,0.0,0.0,0.0,0.0,0.0,0.0,0.0,0.0,0.0,0.0,0.0,0.0,0.0,0.0,0.0,0.0,0.0,0.0,0.0,0.0,0.0,0.0,0.0,0.0,0.0,0.0,0.0,0.0,0.0,0.0,0.0,0.0,0.0,0.0,0.0,0.0,0.0,0.0,0.0,0.0,0.0,0.0,0.0,0.0,0.0,0.0,0.0,0.0,0.0,0.0,0.0,0.0,0.0,0.0,0.0,0.0,0.0,0.0,0.0,0.0,0.0,0.0,0.0,0.0,0.0,0.0,0.0,0.0,0.0,0.0,-2.3271,-2.3173,-2.3148,-2.339,-2.3412,-2.3412,-2.3484,0.0,0.0,0.0,0.0,0.0,0.0,0.0,0.0,0.0,0.0,0.0,0.0,0.0,0.0,0.0,0.0,0.0,0.0,0.0,0.0,0.0,0.0,0.0,0.0,0.0,0.0,0.0,0.0,0.0,0.0,0.0,0.0,0.0,0.0,0.0,0.0,0.0,0.0,0.0,0.0,0.0,0.0,0.0,0.0,0.0,0.0,0.0,0.0,0.0,0.0,0.0,0.0,0.0,0.0,0.0,0.0,0.0,0.0,0.0,0.0,0.0,0.0,0.0,0.0,0.0,0.0,0.0,0.0,0.0,0.0,0.0,0.0,0.0,0.0,0.0,0.0,0.0,0.0,0.0,0.0,0.0,0.0,0.0,0.0,0.0,0.0,0.0,0.0,0.0,0.0,0.0,0.0,0.0,0.0,0.0,0.0,0.0,0.0,0.0,0.0,0.0,0.0,0.0,0.0,0.0,0.0,0.0,0.0,-2.3949,-2.3616,-2.3603,-2.3949,-2.3955,-2.3988,0.0,0.0,0.0,0.0,0.0,0.0,0.0,0.0,0.0,0.0,0.0,0.0,0.0,0.0,0.0,0.0,0.0,0.0,0.0,0.0,0.0,0.0,0.0,0.0,0.0,0.0,0.0,0.0,0.0,0.0,0.0,0.0,0.0,0.0,0.0,0.0,0.0,0.0,0.0,0.0,0.0,0.0,0.0,0.0,0.0,0.0,0.0,0.0,0.0,0.0,0.0,0.0,0.0,0.0,0.0,0.0,0.0,0.0,0.0,0.0,0.0,0.0,0.0,0.0,0.0,0.0,0.0,0.0,0.0,0.0,0.0,0.0,0.0,0.0,0.0,0.0,0.0,0.0,0.0,0.0,0.0,0.0,0.0,0.0,0.0,0.0,0.0,0.0,0.0,0.0,0.0,0.0,0.0,0.0,0.0,0.0,0.0,0.0,0.0,0.0,0.0,0.0,0.0,0.0,0.0,0.0,0.0,0.0,0.0,-2.4305,-2.4421,-2.4434,-2.4447,-2.4403,-2.4461,0.0,0.0,0.0,0.0,0.0,0.0,0.0,0.0,0.0,0.0,0.0,0.0,0.0,0.0,0.0,0.0,0.0,0.0,0.0,0.0,0.0,0.0,0.0,0.0,0.0,0.0,0.0,0.0,0.0,0.0,0.0,0.0,0.0,0.0,0.0,0.0,0.0,0.0,0.0,0.0,0.0,0.0,0.0,0.0,0.0,0.0,0.0,0.0,0.0,0.0,0.0,0.0,0.0,0.0,0.0,0.0,0.0,0.0,0.0,0.0,0.0,0.0,0.0,0.0,0.0,0.0,0.0,0.0,0.0,0.0,0.0,0.0,0.0,0.0,0.0,0.0,0.0,0.0,0.0,0.0,0.0,0.0,0.0,0.0,0.0,0.0,0.0,0.0,0.0,0.0,0.0,0.0,0.0,0.0,0.0,0.0,0.0,0.0,0.0,0.0,0.0,0.0,0.0,0.0,0.0,0.0,0.0,0.0,-2.4305,-2.465,-2.4778,-2.4948,-2.5061,-2.4962,-2.5018,0.0,0.0,0.0,0.0,0.0,0.0,0.0,0.0,0.0,0.0,0.0,0.0,0.0,0.0,0.0,0.0,0.0,0.0,0.0,0.0,0.0,0.0,0.0,0.0,0.0,0.0,0.0,0.0,0.0,0.0,0.0,0.0,0.0,0.0,0.0,0.0,0.0,0.0,0.0,0.0,0.0,0.0,0.0,0.0,0.0,0.0,0.0,0.0,0.0,0.0,0.0,0.0,0.0,0.0,0.0,0.0,0.0,0.0,0.0,0.0,0.0,0.0,0.0,0.0,0.0,0.0,0.0,0.0,0.0,0.0,0.0,0.0,0.0,0.0,0.0,0.0,0.0,0.0,0.0,0.0,0.0,0.0,0.0,0.0,0.0,0.0,0.0,0.0,0.0,0.0,0.0,0.0,0.0,0.0,0.0,0.0,0.0,0.0,0.0,0.0,0.0,0.0,0.0,0.0,0.0,0.0,0.0,0.0,-2.4523,-2.4892,-2.5005,-2.5328,-2.577,-2.5536,-2.5536,0.0,0.0,0.0,0.0,0.0,0.0,0.0,0.0,0.0,0.0,0.0,0.0,0.0,0.0,0.0,0.0,0.0,0.0,0.0,0.0,0.0,0.0,0.0,0.0,0.0,0.0,0.0,0.0,0.0,0.0,0.0,0.0,0.0,0.0,0.0,0.0,0.0,0.0,0.0,0.0,0.0,0.0,0.0,0.0,0.0,0.0,0.0,0.0,0.0,0.0,0.0,0.0,0.0,0.0,0.0,0.0,0.0,0.0,0.0,0.0,0.0,0.0,0.0,0.0,0.0,0.0,0.0,0.0,0.0,0.0,0.0,0.0,0.0,0.0,0.0,0.0,0.0,0.0,0.0,0.0,0.0,0.0,0.0,0.0,0.0,0.0,0.0,0.0,0.0,0.0,0.0,0.0,0.0,0.0,0.0,0.0,0.0,0.0,0.0,0.0,0.0,0.0,0.0,0.0,0.0,0.0,0.0,0.0,-2.4991,-2.5245,-2.555,-2.5879,-2.6312,-2.5879,-2.5839,0.0,0.0,0.0,0.0,0.0,0.0,0.0,0.0,0.0,0.0,0.0,0.0,0.0,0.0,0.0,0.0,0.0,0.0,0.0,0.0,0.0,0.0,0.0,0.0,0.0,0.0,0.0,0.0,0.0,0.0,0.0,0.0,0.0,0.0,0.0,0.0,0.0,0.0,0.0,0.0,0.0,0.0,0.0,0.0,0.0,0.0,0.0,0.0,-3.1711,0.0,0.0,0.0,0.0,0.0,0.0,0.0,0.0,0.0,0.0,0.0,0.0,0.0,0.0,0.0,0.0,0.0,0.0,0.0,0.0,0.0,0.0,0.0,0.0,0.0,0.0,0.0,0.0,0.0,0.0,0.0,0.0,0.0,0.0,0.0,0.0,0.0,0.0,0.0,0.0,0.0,0.0,0.0,0.0,0.0,0.0,0.0,0.0,0.0,0.0,0.0,0.0,0.0,0.0,0.0,0.0,0.0,0.0,0.0,-2.555,-2.5797,-2.6028,-2.6297,-2.6774,-2.6578,-2.651,0.0,0.0,0.0,0.0,0.0,0.0,0.0,0.0,0.0,0.0,0.0,0.0,0.0,0.0,0.0,0.0,0.0,0.0,0.0,0.0,0.0,0.0,0.0,0.0,0.0,0.0,0.0,0.0,0.0,0.0,0.0,0.0,0.0,0.0,0.0,0.0,0.0,0.0,0.0,0.0,0.0,0.0,0.0,0.0,0.0,0.0,0.0,0.0,0.0,0.0,0.0,0.0,0.0,0.0,0.0,0.0,0.0,0.0,0.0,0.0,0.0,0.0,0.0,0.0,0.0,0.0,0.0,0.0,0.0,0.0,0.0,0.0,0.0,0.0,0.0,0.0,0.0,0.0,0.0,0.0,0.0,0.0,0.0,0.0,0.0,0.0,0.0,0.0,0.0,0.0,0.0,0.0,0.0,0.0,0.0,0.0,0.0,0.0,0.0,0.0,0.0,0.0,0.0,0.0,0.0,0.0,0.0,-2.5769,-2.615,-2.639,-2.6496,-2.6759,-2.7357,-2.7494,-2.7545,-2.7509,0.0,0.0,0.0,0.0,0.0,0.0,0.0,0.0,0.0,0.0,0.0,0.0,0.0,0.0,0.0,0.0,0.0,0.0,0.0,0.0,0.0,0.0,0.0,0.0,0.0,0.0,0.0,0.0,0.0,0.0,0.0,0.0,0.0,0.0,0.0,0.0,0.0,0.0,-2.7534,-2.9176,0.0,0.0,0.0,0.0,0.0,0.0,0.0,0.0,-3.4978,0.0,0.0,0.0,0.0,0.0,0.0,0.0,0.0,0.0,0.0,0.0,0.0,0.0,0.0,0.0,0.0,0.0,0.0,0.0,0.0,0.0,0.0,0.0,0.0,0.0,0.0,0.0,0.0,0.0,0.0,0.0,0.0,0.0,0.0,0.0,0.0,0.0,0.0,0.0,0.0,0.0,0.0,0.0,0.0,0.0,0.0,0.0,0.0,0.0,0.0,0.0,0.0,0.0,0.0,0.0,0.0,-2.4973,-2.6026,-2.6721,-2.6967,-2.7312,-2.768,-2.811,-2.8463,-2.8701,-2.8795,0.0,0.0,0.0,0.0,0.0,0.0,0.0,0.0,0.0,0.0,0.0,0.0,0.0,0.0,0.0,0.0,0.0,0.0,0.0,0.0,0.0,0.0,0.0,0.0,0.0,0.0,0.0,0.0,0.0,0.0,0.0,0.0,0.0,0.0,0.0,0.0,0.0,0.0,0.0,-3.0328,-3.1079,0.0,0.0,0.0,0.0,0.0,0.0,0.0,0.0,-3.5521,0.0,0.0,0.0,0.0,0.0,0.0,0.0,0.0,0.0,0.0,0.0,0.0,0.0,0.0,0.0,0.0,0.0,0.0,0.0,0.0,0.0,0.0,0.0,0.0,0.0,0.0,0.0,0.0,0.0,0.0,0.0,0.0,0.0,0.0,0.0,0.0,0.0,0.0,0.0,0.0,0.0,0.0,0.0,0.0,0.0,0.0,0.0,0.0,0.0,0.0,0.0,0.0,0.0,0.0,0.0,-2.572,-2.6444,-2.7136,-2.77,-2.8046,-2.84,-2.8795,-2.9108,-2.943,0.0,0.0,0.0,0.0,0.0,0.0,0.0,0.0,0.0,0.0,0.0,0.0,0.0,0.0,0.0,0.0,0.0,0.0,0.0,0.0,0.0,0.0,0.0,0.0,0.0,0.0,0.0,0.0,0.0,0.0,0.0,0.0,0.0,0.0,0.0,0.0,0.0,0.0,0.0,0.0,-3.1237,-3.1907,-3.2542,0.0,0.0,0.0,0.0,0.0,0.0,-3.7017,-3.7168,0.0,0.0,0.0,0.0,0.0,0.0,0.0,0.0,0.0,0.0,0.0,0.0,0.0,0.0,0.0,0.0,0.0,0.0,0.0,0.0,0.0,0.0,0.0,0.0,0.0,0.0,0.0,0.0,0.0,0.0,0.0,0.0,0.0,0.0,0.0,0.0,0.0,0.0,0.0,0.0,0.0,0.0,0.0,0.0,0.0,0.0,0.0,0.0,0.0,0.0,0.0,0.0,0.0,0.0,0.0,-2.6494,-2.6977,-2.7643,-2.8544,-2.8857,-2.9196,-2.9544,-2.9778,-3.0022,0.0,0.0,0.0,0.0,0.0,0.0,0.0,0.0,0.0,0.0,0.0,0.0,0.0,0.0,0.0,0.0,0.0,0.0,0.0,0.0,0.0,0.0,0.0,0.0,0.0,0.0,0.0,0.0,0.0,0.0,0.0,0.0,0.0,0.0,0.0,0.0,0.0,0.0,0.0,0.0,0.0,-3.287,-3.3356,-3.4292,0.0,0.0,0.0,0.0,-3.8295,-3.8663,0.0,0.0,0.0,0.0,0.0,0.0,0.0,0.0,0.0,0.0,0.0,0.0,0.0,0.0,0.0,0.0,0.0,0.0,0.0,0.0,0.0,0.0,0.0,0.0,0.0,0.0,0.0,0.0,0.0,0.0,0.0,0.0,0.0,0.0,0.0,0.0,0.0,0.0,0.0,0.0,0.0,0.0,0.0,0.0,0.0,0.0,0.0,0.0,0.0,0.0,0.0,0.0,0.0,0.0,0.0,0.0,-2.6663,-2.764,-2.8554,-2.939,-2.9908,-3.0208,-3.046,-3.0764,-3.0684,0.0,0.0,0.0,0.0,0.0,0.0,0.0,0.0,0.0,0.0,0.0,0.0,0.0,0.0,0.0,0.0,0.0,0.0,0.0,0.0,0.0,0.0,0.0,0.0,0.0,0.0,0.0,0.0,0.0,0.0,0.0,0.0,0.0,0.0,0.0,0.0,0.0,0.0,0.0,0.0,0.0,-3.3857,-3.5392,-3.5916,-3.6524,0.0,0.0,-3.8308,-3.8849,-3.9152,0.0,0.0,0.0,0.0,0.0,0.0,0.0,0.0,0.0,0.0,0.0,0.0,0.0,0.0,0.0,0.0,0.0,0.0,0.0,0.0,0.0,0.0,0.0,0.0,0.0,0.0,0.0,0.0,0.0,0.0,0.0,0.0,0.0,0.0,0.0,0.0,0.0,0.0,0.0,0.0,0.0,0.0,0.0,0.0,0.0,0.0,0.0,0.0,0.0,0.0,0.0,0.0,0.0,0.0,0.0,-2.6134,-2.7478,-2.8062,-2.9026,-3.0419,-3.0754,-3.1033,-3.1304,-3.1509,-3.1376,0.0,0.0,0.0,0.0,0.0,0.0,0.0,0.0,0.0,0.0,0.0,0.0,0.0,0.0,0.0,0.0,0.0,0.0,0.0,0.0,0.0,0.0,0.0,0.0,0.0,0.0,0.0,0.0,0.0,0.0,0.0,0.0,0.0,0.0,0.0,0.0,0.0,0.0,0.0,0.0,0.0,0.0,-3.6221,-3.7,0.0,0.0,0.0,-3.8831,-3.9419,0.0,0.0,0.0,0.0,0.0,0.0,0.0,0.0,0.0,0.0,0.0,0.0,0.0,0.0,0.0,0.0,0.0,0.0,0.0,0.0,0.0,0.0,0.0,0.0,0.0,0.0,0.0,0.0,0.0,0.0,0.0,0.0,0.0,0.0,0.0,0.0,0.0,0.0,0.0,0.0,0.0,0.0,0.0,0.0,0.0,0.0,0.0,0.0,0.0,0.0,0.0,0.0,0.0,0.0,0.0,0.0,0.0,-2.8423,-2.8864,-2.9867,-3.1387,-3.1662,-3.1897,-3.2109,-3.2299,0.0,0.0,0.0,0.0,0.0,0.0,0.0,0.0,0.0,0.0,0.0,0.0,0.0,0.0,0.0,0.0,0.0,0.0,0.0,0.0,0.0,0.0,0.0,0.0,0.0,0.0,0.0,-2.9533,0.0,0.0,0.0,0.0,0.0,0.0,0.0,0.0,0.0,0.0,0.0,0.0,0.0,0.0,-3.589,-3.7112,-3.8003,-3.8626,0.0,0.0,-3.9297,-3.9922,-4.008,-4.0219,0.0,0.0,0.0,0.0,0.0,0.0,0.0,0.0,0.0,0.0,0.0,0.0,0.0,0.0,0.0,0.0,0.0,0.0,0.0,0.0,0.0,0.0,0.0,0.0,0.0,0.0,0.0,0.0,0.0,0.0,0.0,0.0,0.0,0.0,0.0,0.0,0.0,0.0,0.0,0.0,0.0,0.0,0.0,0.0,0.0,0.0,0.0,0.0,0.0,0.0,0.0,0.0,0.0,0.0,-2.8408,-2.9402,-3.0415,-3.1386,-3.238,-3.2616,-3.2791,-3.3003,-3.314,-3.2919,0.0,0.0,0.0,0.0,0.0,0.0,0.0,0.0,0.0,0.0,0.0,0.0,0.0,0.0,0.0,0.0,0.0,0.0,0.0,0.0,0.0,0.0,0.0,0.0,0.0,0.0,0.0,0.0,0.0,0.0,0.0,0.0,0.0,0.0,0.0,0.0,0.0,0.0,0.0,0.0,0.0,-3.6851,-3.8628,-3.9007,-3.9257,0.0,-3.9593,-3.9737,-4.0272,-4.0419,-4.0539,-4.0746,0.0,0.0,0.0,0.0,0.0,0.0,0.0,0.0,0.0,0.0,0.0,0.0,0.0,0.0,0.0,0.0,0.0,0.0,0.0,0.0,0.0,0.0,0.0,0.0,0.0,0.0,0.0,0.0,0.0,0.0,0.0,0.0,0.0,0.0,0.0,0.0,0.0,0.0,0.0,0.0,0.0,0.0,0.0,0.0,0.0,0.0,0.0,0.0,0.0,0.0,0.0,0.0,0.0,-2.9523,-3.1003,-3.1536,-3.2252,-3.3205,-3.3403,-3.357,-3.3713,-3.3842,-3.3578,0.0,0.0,0.0,0.0,0.0,0.0,0.0,0.0,0.0,0.0,0.0,0.0,0.0,0.0,0.0,0.0,0.0,0.0,0.0,0.0,0.0,0.0,0.0,0.0,0.0,0.0,0.0,0.0,-3.3197,-3.3568,-3.3724,0.0,0.0,0.0,0.0,0.0,0.0,0.0,0.0,0.0,0.0,-3.8085,-3.9392,-3.9659,0.0,0.0,-4.0079,-4.0178,-4.0565,-4.0746,-4.082,-4.0855,-4.0897,0.0,0.0,0.0,0.0,0.0,0.0,0.0,0.0,0.0,0.0,0.0,0.0,0.0,0.0,0.0,0.0,0.0,0.0,0.0,0.0,0.0,0.0,0.0,0.0,0.0,0.0,0.0,0.0,0.0,0.0,0.0,0.0,0.0,0.0,0.0,0.0,0.0,0.0,0.0,0.0,0.0,0.0,0.0,0.0,0.0,0.0,0.0,0.0,0.0,0.0,0.0,0.0,-3.0677,-3.2336,-3.2687,-3.3246,-3.4031,-3.411,-3.4242,-3.4367,-3.4442,-3.4269,0.0,0.0,0.0,0.0,0.0,0.0,0.0,0.0,0.0,0.0,0.0,0.0,0.0,0.0,0.0,0.0,0.0,0.0,0.0,0.0,0.0,0.0,0.0,0.0,0.0,0.0,0.0,0.0,-3.4035,-3.4486,-3.4617,0.0,0.0,0.0,0.0,0.0,0.0,0.0,0.0,0.0,0.0,-3.9032,-3.9967,-4.02,-4.0342,-4.0506,-4.0461,-4.0524,-4.0776,-4.0858,-4.0865,-4.0842,0.0,0.0,0.0,0.0,0.0,0.0,0.0,0.0,0.0,0.0,0.0,0.0,0.0,0.0,0.0,0.0,0.0,0.0,0.0,0.0,0.0,0.0,0.0,0.0,0.0,0.0,0.0,-2.7086,0.0,0.0,-2.5648,0.0,0.0,0.0,0.0,0.0,0.0,0.0,0.0,0.0,0.0,0.0,0.0,0.0,0.0,0.0,0.0,0.0,0.0,0.0,0.0,0.0,0.0,-3.1978,-3.306,-3.3974,-3.4534,-3.4773,-3.4794,-3.4851,-3.4943,-3.4982,-3.4992,-3.4983,0.0,0.0,0.0,0.0,0.0,0.0,0.0,0.0,0.0,0.0,0.0,0.0,0.0,0.0,0.0,0.0,0.0,0.0,0.0,0.0,0.0,0.0,0.0,0.0,0.0,0.0,-3.4542,-3.4851,-3.4997,0.0,0.0,0.0,0.0,0.0,0.0,0.0,0.0,0.0,0.0,-3.8717,-3.9592,-4.0442,-4.0637,-4.0696,-4.0772,-4.0784,-4.078,-4.0801,-4.068,-4.0625,0.0,0.0,0.0,0.0,0.0,0.0,0.0,0.0,0.0,0.0,0.0,0.0,0.0,0.0,0.0,0.0,0.0,0.0,0.0,0.0,0.0,0.0,0.0,0.0,0.0,0.0,0.0,-2.9716,-2.9329,0.0,0.0,0.0,0.0,0.0,0.0,0.0,0.0,0.0,0.0,0.0,-2.8938,-2.9428,0.0,0.0,0.0,0.0,0.0,0.0,0.0,0.0,0.0,0.0,0.0,0.0,-3.2827,-3.4357,-3.4785,-3.5018,-3.5139,-3.5211,-3.5288,-3.5331,-3.5364,-3.4867,-3.3742,0.0,0.0,0.0,0.0,0.0,0.0,0.0,0.0,0.0,0.0,0.0,0.0,0.0,0.0,0.0,0.0,0.0,0.0,0.0,0.0,0.0,0.0,0.0,0.0,0.0,-3.4051,0.0,0.0,0.0,0.0,0.0,0.0,0.0,0.0,0.0,0.0,0.0,-3.802,-3.8918,-3.9796,-4.0466,-4.0753,-4.0781,-4.0758,0.0,0.0,0.0,0.0,0.0,0.0,0.0,0.0,0.0,0.0,0.0,0.0,0.0,0.0,-3.9924,-3.9634,-3.9572,-3.9542,-3.9546,0.0,0.0,0.0,0.0,0.0,0.0,0.0,0.0,0.0,0.0,0.0,0.0,0.0,0.0,-3.1689,0.0,-3.0748,0.0,0.0,0.0,0.0,0.0,0.0,0.0,0.0,-3.1057,-3.0984,-3.0612,-3.1177,-3.1217,0.0,-3.0713,-3.0225,0.0,0.0,0.0,0.0,0.0,0.0,0.0,0.0,-3.3268,-3.4745,-3.5181,-3.5386,-3.5456,-3.5546,-3.5601,-3.5597,-3.5648,-3.4874,-3.3178,-3.3111,-3.2326,0.0,0.0,0.0,0.0,0.0,0.0,0.0,0.0,0.0,0.0,0.0,0.0,0.0,0.0,0.0,0.0,0.0,0.0,0.0,0.0,0.0,0.0,0.0,-3.4664,0.0,0.0,0.0,0.0,0.0,0.0,0.0,0.0,0.0,-3.7004,-3.775,-3.8607,-3.9511,-4.0349,-4.0895,-4.0836,0.0,0.0,0.0,0.0,0.0,0.0,0.0,-3.9662,-3.9808,-3.974,-3.9702,-3.9876,-3.984,-3.9883,-4.0094,0.0,0.0,-4.0519,-4.0711,-4.094,-4.0901,-4.0879,-4.0897,-4.0815,-4.0772,-4.0862,0.0,0.0,0.0,0.0,0.0,0.0,0.0,0.0,-3.3654,-3.3358,0.0,-3.2864,0.0,0.0,0.0,0.0,-3.2156,-3.2139,0.0,0.0,-3.2438,-3.2268,-3.1892,-3.2819,-3.2768,-3.1805,-3.2636,-3.2844,-3.2321,-3.0415,0.0,0.0,0.0,0.0,0.0,0.0,-3.3343,-3.4255,-3.5126,-3.562,-3.5582,-3.565,-3.5707,-3.5689,-3.569,-3.4904,-3.3355,-3.3245,-3.2466,-3.0781,-3.0691,0.0,0.0,0.0,0.0,0.0,0.0,0.0,0.0,0.0,0.0,0.0,0.0,0.0,0.0,0.0,0.0,0.0,0.0,0.0,0.0,-3.4924,0.0,0.0,0.0,0.0,0.0,0.0,0.0,0.0,0.0,0.0,-3.7347,-3.7943,-3.8762,-3.9629,0.0,0.0,0.0,0.0,-4.0428,-4.0272,-4.0386,-4.0309,-3.9842,-3.9274,-3.8958,-3.9289,0.0,0.0,-4.0018,-4.0122,-4.0325,-4.104,-4.1156,-4.1178,-4.0973,-4.1595,-4.2129,-4.2095,-4.2057,-4.2152,-4.2059,-4.1781,-4.1796,-3.5346,0.0,0.0,0.0,0.0,-3.5065,-3.4927,-3.4829,-3.4674,-3.4472,-3.4231,-3.4142,0.0,0.0,0.0,0.0,0.0,0.0,-3.3414,-3.3431,-3.354,-3.3566,-3.3589,-3.3943,-3.4113,-3.4036,-3.3745,-3.3639,-3.3634,-3.2551,-3.1679,-3.1042,0.0,0.0,0.0,0.0,-3.2701,-3.3554,-3.3901,-3.4031,-3.3992,-3.4043,-3.4101,-3.4077,-3.4098,-3.3576,-3.2475,-3.2448,-3.1913,-3.0837,-3.0755,0.0,0.0,0.0,0.0,0.0,0.0,0.0,0.0,0.0,0.0,0.0,0.0,0.0,0.0,0.0,0.0,0.0,0.0,0.0,-3.5145,-3.5435,-3.5698,0.0,0.0,0.0,0.0,0.0,0.0,0.0,0.0,0.0,-3.8098,-3.8801,-3.963,0.0,0.0,-4.0614,-4.0443,-4.0185,-3.991,-3.9705,-3.9844,0.0,-3.9109,-3.8628,-3.8607,-3.9393,-3.9868,-4.02,-4.0422,-4.0443,-4.0429,-4.0702,-4.1227,-4.1638,-4.1682,-4.1642,-4.1669,-4.1651,-4.1679,-4.167,-4.1632,-4.1516,-4.163,-3.5284,-3.5469,-3.5511,-3.5584,-3.5666,-3.5533,-3.5468,-3.5436,-3.533,-3.5193,-3.5038,-3.4986,-3.4823,-3.4586,-3.4508,0.0,0.0,0.0,-3.4325,-3.4327,-3.4406,-3.4508,-3.4661,-3.4791,-3.4988,-3.5209,-3.4768,-3.4465,-3.4303,-3.3541,-3.2726,-3.182,0.0,0.0,-3.1433,-3.1814,-3.2265,-3.2803,-3.3181,-3.3339,-3.3301,-3.3375,-3.3392,-3.3395,-3.3394,-3.2987,-3.2147,-3.2107,-3.1693,-3.0849,-3.0799,-3.0791,0.0,0.0,0.0,0.0,0.0,0.0,0.0,0.0,0.0,0.0,0.0,-3.0636,-3.0965,0.0,0.0,0.0,-3.4801,-3.5657,-3.5689,-3.5741,0.0,0.0,0.0,0.0,0.0,0.0,0.0,-3.6314,-3.7675,-3.8673,-3.8802,-3.9498,-4.0205,-4.0684,-4.0532,-4.0296,-4.0042,0.0,-3.9387,-3.9088,-3.924,-3.9102,-3.8491,-3.8561,-3.8919,-3.9586,-4.0041,-4.0437,-4.0744,-4.076,-4.0849,-4.1191,-4.1663,-4.2083,-4.2158,-4.2047,-4.2029,-4.2193,-4.2271,-4.2271,-4.2239,-4.2175,-4.2243,-3.4963,-3.5262,-3.5543,-3.5697,-3.5798,-3.5798,-3.5774,-3.5713,-3.5697,-3.5624,-3.5446,-3.5514,-3.5427,-3.5238,-3.5172,0.0,-3.5044,-3.5044,-3.5044,-3.5063,-3.5132,-3.5192,-3.5262,-3.5367,-3.5473,-3.5519,-3.5572,-3.5197,-3.4383,-3.3653,-3.2897,-3.2128,-3.2025,-3.1561,-3.0798,-3.1521,-3.1931,-3.1986,-3.2702,-3.3107,-3.3085,-3.3132,-3.3175,-3.3158,-3.3181,-3.2798,-3.2029,-3.199,-3.1628,-3.0856,-3.08,-3.0801,-3.08,0.0,0.0,0.0,0.0,0.0,0.0,0.0,0.0,0.0,0.0,0.0,0.0,0.0,0.0,0.0,-3.5203,0.0,-3.5793,-3.5878,0.0,0.0,0.0,-3.5971,-3.5908,-3.5883,-3.6163,-3.683,0.0,0.0,-3.9328,-4.0,-4.0442,-4.0434,-4.0206,-3.9926,-3.958,-3.9186,-3.8839,-3.8579,-3.8519,-3.8398,-3.8128,-3.8924,-3.9713,-3.9893,-4.0014,-4.0388,-4.0998,-4.1159,-4.1462,-4.2055,-4.231,-4.2356,-4.2391,-4.2519,-4.2899,-4.3212,-4.3355,-4.3408,-4.3334,-4.3228,-4.3122,-3.4672,-3.487,-3.5095,-3.5393,-3.5741,-3.5766,-3.5825,-3.5852,-3.5857,-3.5818,-3.5775,-3.5794,-3.5741,-3.5655,-3.5582,-3.5543,-3.5533,-3.5551,-3.5532,-3.5533,-3.5554,-3.5593,-3.5669,-3.571,-3.5399,-3.4859,-3.4847,-3.4452,-3.368,-3.3476,-3.2947,-3.2135,-3.203,-3.1597,-3.0819,-3.0992,-3.1058,-3.1031,-3.127,-3.1358,-3.1325,-3.1343,-3.1351,-3.1331,-3.1334,-3.1237,-3.1051,-3.1086,-3.1008,-3.081,-3.0799,-3.0792,-3.0797,-3.0859,0.0,0.0,0.0,0.0,0.0,0.0,0.0,0.0,0.0,-3.1766,-3.1965,0.0,-3.3087,0.0,-3.5321,-3.5859,-3.5866,-3.5938,0.0,0.0,-3.5945,-3.5919,-3.5885,-3.5818,-3.584,-3.6047,-3.7684,-3.878,-3.8789,-3.9561,-4.0043,-3.9859,-3.9712,-3.951,-3.9178,-3.8704,-3.8277,-3.805,-3.7917,-3.7917,-3.832,-3.9447,-4.0341,-4.0275,-4.0785,-4.1286,-4.1609,-4.1626,-4.1757,-4.1995,-4.2072,-4.2097,-4.2163,-4.2246,-4.2369,-4.2613,-4.2844,-4.305,-4.3032,-4.2975,-4.2918,-3.439,-3.4588,-3.4774,-3.5062,-3.5406,-3.5592,-3.5753,-3.5864,-3.5864,-3.5872,-3.5898,-3.5884,-3.5892,-3.5831,-3.58,-3.5788,-3.5794,-3.5788,-3.5788,-3.5774,-3.5801,-3.5606,-3.5274,-3.526,-3.4859,-3.4072,-3.406,-3.3652,-3.2862,-3.2801,-3.2331,-3.1504,-3.1442,-3.1197,-3.0774,-3.0755,-3.0739,-3.0704,-3.0704,-3.0691,-3.0658,-3.0651,-3.0671,-3.069,-3.0698,-3.0703,-3.0695,-3.076,-3.0789,-3.0804,-3.079,-3.0794,-3.0806,-3.1206,-3.1425,0.0,0.0,0.0,0.0,0.0,0.0,0.0,0.0,0.0,0.0,0.0,-3.3783,-3.5055,-3.5618,-3.5923,-3.5945,-3.5976,-3.5987,-3.5958,-3.5923,-3.5883,-3.5826,-3.6066,-3.6288,-3.6414,-3.7863,-3.8969,-3.92,-3.9603,-3.9769,-3.9502,-3.9216,-3.898,-3.8789,-3.8378,-3.7949,-3.7667,-3.7521,-3.7831,-3.8805,-3.9786,-4.0482,-4.0726,-4.1128,-4.1453,-4.1542,-4.1542,-4.1587,-4.171,-4.1754,-4.1841,-4.1952,-4.1995,-4.2079,-4.211,-4.2333,-4.2552,-4.2729,-4.2745,-4.2706,-3.4124,-3.4363,-3.4567,-3.4756,-3.4992,-3.5301,-3.5568,-3.5763,-3.5788,-3.5827,-3.5893,-3.5896,-3.5916,-3.5903,-3.5916,-3.5913,-3.5921,-3.5921,-3.5862,-3.5745,-3.5745,-3.5283,-3.4469,-3.4433,-3.4023,-3.3257,-3.3229,-3.2778,-3.1948,-3.1864,-3.1456,-3.073,-3.0703,-3.0692,-3.0692,-3.0688,-3.0695,-3.07,-3.0629,-3.0621,-3.0602,-3.0621,-3.0629,-3.0684,-3.0688,-3.0683,-3.0704,-3.0742,-3.0784,-3.0794,-3.0793,-3.0849,-3.0967,-3.1684,-3.2142,0.0,-3.2265,0.0,0.0,0.0,0.0,0.0,0.0,0.0,0.0,-3.4028,-3.4296,-3.5866,-3.5942,-3.5948,-3.5976,-3.5987,-3.5962,-3.5917,-3.5898,-3.5838,-3.5757,-3.6392,-3.6993,-3.7267,-3.8345,-3.9276,-3.9814,-3.9772,-3.9532,-3.9272,-3.8836,-3.8523,-3.8396,-3.8104,-3.7739,-3.7429,-3.7332,-3.7919,-3.9311,-3.9896,-4.0311,-4.0972,-4.1146,-4.1163,-4.1209,-4.1209,-4.1255,-4.1363,-4.1515,-4.1648,-4.1719,-4.1884,-4.1927,-4.1828,-4.1941,-4.2139,-4.2409,-4.253,-4.253,-3.3842,-3.4023,-3.434,-3.4609,-3.4851,-3.507,-3.535,-3.5639,-3.5708,-3.5787,-3.5884,-3.5896,-3.5913,-3.5987,-3.5976,-3.5976,-3.5976,-3.5976,-3.5605,-3.4922,-3.4921,-3.4471,-3.3648,-3.3634,-3.3165,-3.237,-3.2354,-3.187,-3.0981,-3.0957,-3.0872,-3.0715,-3.0645,-3.0621,-3.0613,0.0,0.0,0.0,-3.0615,-3.0606,-3.0604,-3.0606,-3.0616,-3.0616,-3.0625,0.0,-3.0626,-3.0685,-3.0716,-3.0728,-3.0765,0.0,0.0,0.0,0.0,0.0,0.0,0.0,0.0,0.0,0.0,0.0,-3.4207,-3.4339,-3.4667,-3.5178,-3.5635,-3.5977,-3.5972,-3.5976,-3.601,-3.5951,-3.5928,-3.5883,-3.5857,-3.5803,-3.5718,-3.6335,-3.7002,-3.7756,-3.8439,-3.905,-3.9504,-3.9476,-3.9272,-3.9017,-3.8664,-3.835,-3.8119,-3.7774,-3.7429,-3.722,-3.7506,-3.8198,-3.9286,-3.972,-4.0158,-4.0758,-4.0965,-4.1012,-4.1076,-4.114,-4.1152,-4.1335,-4.1426,-4.148,-4.163,-4.1727,-4.1849,-4.18,-4.1931,-4.2097,-4.2115,-4.2163,-4.2187,-3.2482,-3.2665,-3.2966,-3.3237,0.0,-3.3676,-3.3929,-3.425,-3.5195,-3.5688,-3.584,-3.5858,-3.5666,-3.5314,-3.5344,-3.5118,-3.4705,-3.4708,-3.4476,-3.4049,-3.4064,-3.361,-3.2768,-3.2764,-3.2313,-3.1481,-3.1426,-3.1176,-3.0717,-3.0664,-3.0634,-3.0649,-3.0604,-3.0606,-3.0616,-3.0578,-3.0559,-3.0549,-3.054,-3.055,-3.054,-3.0559,-3.055,-3.054,-3.0588,0.0,0.0,0.0,0.0,0.0,0.0,0.0,0.0,-3.1877,0.0,-3.3336,-3.3378,-3.3592,-3.3988,-3.4031,-3.4254,-3.4668,-3.5116,-3.5345,-3.5337,-3.5747,-3.6005,-3.6013,-3.6015,-3.5987,-3.5958,-3.5924,-3.5885,-3.5859,-3.5771,-3.5854,-3.6242,-3.6851,-3.7421,-3.7924,-3.8765,-3.9399,-3.9444,-3.9327,-3.9165,-3.8921,-3.859,-3.8238,-3.7967,-3.7685,-3.7429,-3.7182,-3.7556,-3.8032,-3.8556,-3.9326,-3.9893,-4.025,-4.0629,-4.0901,-4.0982,-4.1047,-4.114,-4.129,-4.1408,-4.1525,-4.1569,-4.177,-4.1927,-4.2012,-4.2055,-4.2072,-4.1987,-4.2097,-4.2205,-3.1074,-3.1283,-3.1644,-3.1874,-3.2025,-3.2279,-3.2523,-3.2842,-3.4385,0.0,0.0,-3.5339,-3.4996,-3.438,-3.4433,-3.4053,-3.3405,-3.3395,-3.3306,-3.3177,-3.3177,-3.2701,-3.1889,-3.188,-3.1495,-3.0792,-3.0737,-3.071,-3.0683,-3.0629,-3.0623,-3.0615,-3.0607,-3.0617,-3.0598,-3.051,-3.05,-3.0491,-3.049,-3.0479,-3.049,-3.049,-3.049,-3.049,-3.055,-3.0588,-3.0604,-3.0664,-3.071,-3.0703,-3.0769,-3.0871,-3.1028,-3.1714,-3.257,-3.3548,-3.3632,-3.4003,-3.4853,-3.4929,-3.494,-3.492,-3.5604,-3.6015,-3.6015,-3.6015,-3.6015,-3.6014,-3.5986,-3.5962,-3.5914,-3.5897,-3.5853,-3.5799,-3.5727,-3.5977,-3.6691,-3.742,-3.78,-3.7966,-3.9026,-3.9788,-3.9467,-3.9313,-3.9147,-3.8892,-3.8559,-3.8189,-3.7934,-3.7631,-3.7392,-3.7179,-3.7358,-3.7624,-3.793,-3.8564,-3.933,-3.9537,-4.0072,-4.0504,-4.0568,-4.0678,-4.077,-4.0732,-4.1051,-4.1288,-4.1584,-4.158,-4.1693,-4.1902,-4.1771,-4.1665,-4.1689,-4.1795,-4.1935,-3.0985,-3.125,-3.1573,-3.1827,-3.2021,-3.2279,-3.2572,-3.2897,-3.3288,-3.349,-3.3561,-3.3619,-3.3608,-3.3492,-3.349,-3.3468,-3.34,-3.338,-3.3,-3.2288,-3.2279,-3.1817,-3.1008,-3.0984,-3.089,-3.0724,-3.0691,-3.0664,-3.0618,-3.061,-3.0604,-3.0607,-3.0617,-3.0617,-3.0598,-3.053,-3.0481,-3.049,-3.0458,-3.0439,-3.0479,-3.0439,-3.0449,-3.0491,-3.0501,-3.054,-3.0602,-3.0672,-3.0709,-3.0703,-3.0769,-3.114,-3.1859,-3.2007,-3.2817,-3.4354,-3.4509,-3.4902,-3.5723,-3.582,-3.5819,-3.5821,-3.594,-3.6005,-3.6012,-3.6015,-3.6013,-3.601,-3.5947,-3.5899,-3.5889,-3.584,-3.5815,-3.5791,-3.5698,-3.5917,-3.6652,-3.741,-3.7879,-3.7833,-3.8986,-3.9804,-3.958,-3.935,-3.9129,-3.8921,-3.8621,-3.8219,-3.781,-3.7411,-3.7147,-3.7009,-3.6961,-3.7108,-3.7505,-3.7733,-3.8304,-3.8814,-3.9084,-3.9274,-3.9363,-3.9469,-3.9599,-3.9606,-3.9821,-4.0329,-4.1479,-4.0905,-4.0437,-4.0503,-4.0471,-4.051,-4.0605,-4.0646,-4.0891,-2.962,-2.9929,-3.018,-3.0423,-3.0613,-3.0957,-3.1268,-3.1545,-3.1615,-3.2232,-3.3158,-3.3231,-3.3009,-3.2603,-3.2578,-3.2363,-3.1932,-3.1963,-3.1797,-3.1417,-3.1408,-3.1169,-3.0813,-3.0789,-3.0753,-3.071,-3.0711,-3.0683,-3.0665,-3.061,-3.0613,-3.0615,-3.0615,-3.0615,-3.0615,-3.0578,-3.055,-3.054,-3.0449,-3.0436,-3.0444,-3.0417,-3.0428,-3.0449,-3.0511,-3.0558,-3.0613,-3.0678,-3.0697,-3.0703,-3.0774,-3.0992,-3.1371,-3.1409,-3.1965,-3.3202,-3.3728,-3.4394,-3.5254,-3.5742,-3.6015,-3.6005,-3.6016,-3.6016,-3.6021,-3.6003,-3.6018,-3.6001,-3.5929,-3.5883,-3.5897,-3.5838,-3.5791,-3.5745,-3.5648,-3.5893,-3.6612,-3.7379,-3.815,-3.8937,-3.9496,-3.9781,-3.9631,-3.9388,-3.9156,-3.8989,-3.8646,-3.8285,-3.7966,-3.7667,-3.7374,-3.7182,-3.7009,-3.7013,-3.726,-3.7614,-3.7962,-3.837,-3.8754,-3.9006,-3.9083,-3.9168,-3.9269,-3.9346,-3.9494,-3.9873,-4.0685,-4.0363,-3.9753,-3.9058,-3.9727,-4.0071,-4.0291,-4.0347,-4.0543,-2.851,-2.8834,-2.9016,-2.9272,-2.9532,-2.9874,-3.0171,-3.0398,-3.0425,-3.1235,-3.2501,-3.2624,-3.228,-3.1739,-3.1702,-3.1346,-3.0761,-3.0778,-3.0794,-3.0784,-3.0784,-3.0784,-3.0799,-3.0794,-3.0759,-3.0703,-3.0698,-3.069,-3.0695,-3.0653,-3.0618,-3.0637,-3.0637,-3.061,-3.0602,-3.0615,-3.0616,-3.0607,-3.051,-3.0439,-3.0433,-3.0428,-3.0419,-3.0449,-3.054,-3.0613,-3.0621,-3.069,-3.0716,-3.0734,-3.0769,-3.0786,-3.079,-3.0791,-3.1196,-3.2045,-3.2734,-3.3594,-3.4648,-3.5508,-3.6015,-3.6012,-3.6003,-3.601,-3.601,-3.602,-3.5994,-3.5974,-3.5929,-3.5883,-3.5898,-3.585,-3.5773,-3.5708,-3.5626,-3.5919,-3.6603,-3.7383,-3.8456,-3.9909,-4.003,-3.9781,-3.9613,-3.9395,-3.921,-3.9017,-3.8695,-3.8401,-3.8186,-3.7949,-3.7757,-3.7503,-3.7279,-3.7143,-3.7122,-3.7444,-3.7812,-3.7888,-3.8327,-3.8515,-3.8643,-3.8853,-3.8969,-3.8938,-3.915,-3.9177,-3.9182,-3.933,-3.9118,-3.8438,-3.8941,-3.9662,-3.9805,-3.9893,-4.0057,-2.8587,-2.8887,-2.9101,-2.9455,-2.9839,-3.0022,-3.0199,-3.0398,-3.0447,-3.0598,-3.0931,-3.0843,-3.0886,-3.0807,-3.0866,-3.0782,-3.0703,-3.0778,-3.0799,-3.0798,-3.0798,-3.0793,-3.0804,-3.0799,-3.0764,-3.0709,-3.0697,-3.071,-3.0711,-3.0685,-3.071,-3.07,-3.07,-3.0665,-3.061,-3.0665,-3.0649,-3.0615,-3.0586,-3.055,-3.0479,-3.0479,-3.0519,-3.0569,-3.0606,-3.0629,-3.0683,-3.0775,-3.0784,-3.0799,-3.0782,-3.0798,-3.0798,-3.0794,-3.1187,-3.2002,-3.2259,-3.3006,-3.4551,-3.5508,-3.6016,-3.6015,-3.6007,-3.6013,-3.601,-3.6017,-3.5966,-3.5923,-3.5885,-3.5897,-3.5885,-3.5846,-3.5756,-3.5708,-3.5654,-3.5894,-3.6579,-3.7414,-3.8527,-4.012,-3.9962,-3.9892,-3.9614,-3.9508,-3.9343,-3.8989,-3.8822,-3.8627,-3.8387,-3.8271,-3.8171,-3.7949,-3.7703,-3.7522,-3.7429,-3.7334,-3.7453,-3.7435,-3.7341,-3.7591,-3.7757,-3.7856,-3.7807,-3.8237,-3.8115,-3.8223,-3.8079,-3.7971,-3.8293,-3.8395,-3.8464,-3.8495,-3.862,-3.8812,-3.9035,-2.8619,-2.8929,-2.9101,-2.9456,-2.9888,-3.0083,-3.024,-3.041,-3.0469,-3.0559,-3.0665,-3.0649,-3.0671,-3.0704,-3.0704,-3.0722,-3.0764,-3.0794,-3.0789,-3.079,-3.079,-3.079,-3.0786,-3.0786,-3.0778,-3.076,-3.076,-3.0769,-3.0759,-3.0767,-3.0761,-3.0749,-3.0717,-3.0685,-3.0678,-3.0678,-3.0683,-3.0668,-3.0661,-3.0645,-3.0613,-3.0577,-3.0568,-3.0595,-3.0637,-3.0668,-3.0704,-3.0753,-3.0794,-3.0804,-3.079,-3.0801,-3.0798,-3.0833,-3.1013,-3.1413,-3.2354,-3.3431,-3.4621,-3.5506,-3.6016,-3.6016,-3.6011,-3.6021,-3.6013,-3.602,-3.5994,-3.5962,-3.5919,-3.5885,-3.5885,-3.5826,-3.5756,-3.5718,-3.5654,-3.5714,-3.5951,-3.6661,-3.7587,-3.8594,-3.905,-3.9383,-3.9561,-3.957,-3.9388,-3.9101,-3.8979,-3.8833,-3.8701,-3.864,-3.8528,-3.8382,-3.8201,-3.8018,-3.7792,-3.7613,-3.7594,-3.7631,-3.7594,-3.7613,-3.7667,-3.7739,-3.7863,-3.788,-3.8036,-3.8013,-3.7902,-3.8041,-3.8322,-3.8488,-3.8583,-3.8541,-3.8652,-3.8725,-3.8939,-2.8718,-2.8998,-2.9249,-2.9589,-2.9972,-3.0157,-3.0292,-3.0414,-3.0491,-3.0595,-3.0688,-3.0717,-3.073,-3.0749,-3.0714,-3.0769,-3.0799,-3.0784,-3.0798,-3.0798,-3.0798,-3.0801,-3.0785,-3.0785,-3.0801,-3.079,-3.0786,-3.0802,-3.0793,-3.0789,-3.0799,-3.0774,-3.0745,-3.0734,-3.0734,-3.0722,-3.0736,-3.0736,-3.0724,-3.0743,-3.0717,-3.0683,-3.0642,-3.0634,-3.0664,-3.0711,-3.071,-3.0769,-3.0789,-3.0798,-3.082,-3.0833,-3.0838,-3.0884,-3.0917,-3.1023,-3.2235,-3.3426,-3.4293,-3.5151,-3.5742,-3.5976,-3.6014,-3.6009,-3.6016,-3.6007,-3.602,-3.599,-3.5943,-3.5891,-3.5885,-3.5842,-3.5773,-3.5727,-3.5676,-3.5565,-3.5586,-3.6166,-3.6741,-3.7067,-3.8118,-3.9047,-3.9596,-3.9679,-3.9489,-3.9343,-3.9237,-3.9129,-3.8989,-3.8921,-3.8833,-3.8725,-3.8646,-3.8478,-3.8156,-3.8002,-3.7967,-3.7985,-3.802,-3.8036,-3.8119,-3.8119,-3.8153,-3.8201,-3.8285,-3.8346,-3.8214,-3.8413,-3.8634,-3.8725,-3.8815,-3.8902,-3.8931,-3.9017,-3.9129,-2.8858,-2.9134,-2.9589,-2.9893,-3.0102,-3.0226,-3.0367,-3.0499,-3.0586,-3.0626,-3.0717,-3.0773,-3.0789,-3.0784,-3.0774,-3.0793,-3.0784,-3.0802,-3.0794,-3.0785,-3.0801,-3.0788,-3.0799,-3.0799,-3.0794,-3.0788,-3.0788,-3.0785,-3.0801,-3.0798,-3.0794,-3.0786,-3.0789,-3.0799,-3.0784,-3.0789,-3.0793,-3.0779,-3.0794,-3.0799,-3.0794,-3.0774,-3.0753,-3.0698,-3.0691,-3.0716,-3.0794,-3.0793,-3.079,-3.0788,-3.0855,-3.0907,-3.0898,-3.0898,-3.0916,-3.0979,-3.1699,-3.2578,-3.3453,-3.4345,-3.5154,-3.5859,-3.6016,-3.6013,-3.6018,-3.6013,-3.6007,-3.6001,-3.5942,-3.5899,-3.5891,-3.5852,-3.5795,-3.5791,-3.5669,-3.5585,-3.5526,-3.6125,-3.617,-3.6012,-3.7505,-3.8995,-3.9787,-3.9807,-3.9632,-3.9532,-3.9427,-3.9272,-3.9237,-3.9156,-3.9073,-3.9017,-3.896,-3.8873,-3.8572,-3.8382,-3.835,-3.8368,-3.8368,-3.8382,-3.8415,-3.8396,-3.846,-3.851,-3.8603,-3.8628,-3.8633,-3.8693,-3.8855,-3.8989,-3.9082,-3.9165,-3.9219,-3.9324,-3.9376,-2.898,-2.9451,-2.9754,-2.9956,-3.0109,-3.0343,-3.0447,-3.051,-3.0618,-3.0665,-3.0728,-3.0784,-3.079,-3.0788,-3.0847,-3.0827,-3.0796,-3.0784,-3.079,-3.0795,-3.0795,-3.0797,-3.08,-3.08,-3.08,-3.08,-3.08,-3.08,-3.0798,-3.0795,-3.079,-3.0786,-3.0794,-3.0785,-3.0801,-3.0798,-3.079,-3.0786,-3.0786,-3.0786,-3.0786,-3.079,-3.0786,-3.0769,-3.076,-3.0784,-3.0798,-3.0794,-3.0801,-3.0801,-3.0868,-3.0917,-3.0918,-3.0914,-3.0864,-3.0908,-3.1636,-3.248,-3.3336,-3.42,-3.5089,-3.5879,-3.6016,-3.6015,-3.6012,-3.6003,-3.601,-3.6007,-3.5978,-3.5942,-3.5894,-3.5879,-3.5857,-3.5799,-3.5718,-3.5639,-3.5604,-3.5784,-3.5771,-3.5756,-3.7132,-3.8498,-3.9032,-3.9138,-3.9261,-3.9687,-3.9693,-3.9543,-3.9508,-3.9458,-3.9308,-3.9305,-3.9272,-3.9219,-3.9119,-3.8873,-3.8713,-3.8713,-3.8713,-3.8755,-3.8785,-3.8796,-3.8826,-3.8865,-3.8942,-3.8933,-3.8943,-3.9183,-3.9293,-3.9298,-3.9401,-3.9427,-3.9477,-3.9551,-3.9623,-2.9185,-2.9626,-2.9874,-3.003,-3.0174,-3.0394,-3.052,-3.0558,-3.0676,-3.0736,-3.073,-3.079,-3.0801,-3.0796,-3.0859,-3.0839,-3.08,-3.0801,-3.08,-3.0796,-3.0793,-3.079,-3.0786,-3.0784,-3.0799,-3.0796,-3.0796,-3.0799,-3.0786,-3.0795,-3.0798,-3.08,-3.08,-3.0798,-3.0795,-3.0788,-3.0784,-3.0784,-3.0801,-3.0801,-3.0801,-3.0784,-3.0784,-3.0801,-3.0799,-3.0794,-3.0788,-3.0796,-3.0801,-3.0843,-3.0877,-3.0879,-3.0856,-3.0864,-3.0849,-3.0879,-3.1334,-3.2062,-3.294,-3.3799,-3.4649,-3.5505,-3.584,-3.6015,-3.6015,-3.6012,-3.6005,-3.6021,-3.601,-3.5978,-3.5962,-3.5938,-3.5918,-3.585,-3.5763,-3.5718,-3.5669,-3.5615,-3.5726,-3.5988,-3.6558,-3.7496,-3.8288,-3.8404,-3.8632,-3.9201,-3.9159,-3.9096,-3.9034,-3.8968,-3.8905,-3.8818,-3.8696,-3.8616,-3.845,-3.8209,-3.871,-3.8831,-3.8971,-3.9036,-3.9082,-3.91,-3.9192,-3.9245,-3.9279,-3.9249,-3.9383,-3.9614,-3.9669,-3.9642,-3.967,-3.9693,-3.9739,-3.9762,-3.9829,-2.9455,-2.9716,-2.9972,-3.0166,-3.0316,-3.0441,-3.0539,-3.0614,-3.075,-3.0792,-3.0789,-3.0799,-3.0798,-3.0801,-3.0814,-3.0794,-3.079,-3.0777,-3.0801,-3.0801,-3.0802,-3.0789,-3.0789,-3.0789,-3.0798,-3.0778,-3.0787,-3.0798,-3.0784,-3.0798,-3.079,-3.0788,-3.0791,-3.0784,-3.0797,-3.0798,-3.0799,-3.08,-3.08,-3.0801,-3.0801,-3.0801,-3.0801,-3.0801,-3.0801,-3.0801,-3.0796,-3.0797,-3.0819,-3.0879,-3.0879,-3.0856,-3.0816,-3.0801,-3.0798,-3.0794,-3.0837,-3.1266,-3.2104,-3.3005,-3.391,-3.4783,-3.5537,-3.6011,-3.6012,-3.6015,-3.6015,-3.6013,-3.6005,-3.6013,-3.601,-3.5994,-3.5948,-3.5911,-3.5818,-3.5799,-3.5784,-3.5737,-3.5947,-3.6382,-3.6265,-3.6349,-3.7394,-3.7827,-3.7893,-3.8034,-3.8001,-3.7947,-3.7985,-3.7966,-3.7623,-3.7603,-3.7848,-3.8036,-3.7713,-3.7463,-3.8252,-3.8906,-3.9102,-3.9233,-3.9239,-3.9258,-3.9494,-3.958,-3.958,-3.959,-3.9679,-3.9883,-3.9965,-3.9951,-3.9954,-3.9958,-4.0,-4.004,-4.0059,-2.9589,-2.9855,-3.0075,-3.0235,-3.037,-3.053,-3.0607,-3.0678,-3.0765,-3.0788,-3.0786,-3.08,-3.0797,-3.0786,-3.0751,-3.073,-3.0734,-3.0745,-3.073,-3.0721,-3.0716,-3.072,-3.0716,-3.0724,-3.0737,-3.073,-3.0737,-3.0724,-3.0722,-3.0725,-3.074,-3.0716,-3.0735,-3.073,-3.0735,-3.0728,-3.0743,-3.0798,-3.0801,-3.0801,-3.0785,-3.0791,-3.0801,-3.079,-3.0793,-3.0788,-3.0801,-3.079,-3.0814,-3.0841,-3.0836,-3.0827,-3.0813,-3.0798,-3.0793,-3.0784,-3.0789,-3.1183,-3.2026,-3.2911,-3.3754,-3.4624,-3.55,-3.596,-3.6003,-3.6011,-3.6015,-3.6015,-3.6013,-3.6007,-3.6003,-3.6013,-3.5955,-3.5924,-3.5878,-3.5846,-3.5791,-3.5743,-3.5815,-3.5966,-3.5813,-3.6151,-3.6832,-3.7098,-3.73,-3.7736,-3.7731,-3.7699,-3.7737,-3.757,-3.771,-3.7674,-3.7693,-3.7445,-3.7238,-3.7086,-3.7509,-3.8133,-3.8525,-3.8918,-3.9031,-3.9186,-3.9472,-3.98,-3.984,-3.9958,-4.0039,-4.0118,-4.0195,-4.0196,-4.0177,-4.0233,-4.0269,-4.0288,-4.0288,-2.9717,-2.995,-3.0188,-3.0344,-3.0482,-3.0591,-3.0685,-3.0745,-3.0777,-3.0798,-3.08,-3.0784,-3.0781,-3.0754,-3.0722,-3.0685,-3.0671,-3.0622,-3.0595,-3.0598,-3.0646,-3.0658,-3.0676,-3.063,-3.0634,-3.0618,-3.0607,-3.0626,-3.0614,-3.0632,-3.0646,-3.0658,-3.0664,-3.0658,-3.0671,-3.0665,-3.0665,-3.0703,-3.0728,-3.0734,-3.0759,-3.0769,-3.0774,-3.0758,-3.0762,-3.0759,-3.0753,-3.0754,-3.0751,-3.0782,-3.0774,-3.0765,-3.076,-3.0764,-3.0753,-3.0748,-3.0792,-3.1031,-3.1621,-3.2678,-3.357,-3.4243,-3.5279,-3.5935,-3.5962,-3.5977,-3.6005,-3.6007,-3.6012,-3.6015,-3.6015,-3.6011,-3.5962,-3.5946,-3.5903,-3.588,-3.5846,-3.5787,-3.5768,-3.5812,-3.5785,-3.6008,-3.6276,-3.6416,-3.6574,-3.7038,-3.7109,-3.7082,-3.7068,-3.6983,-3.7026,-3.6993,-3.6748,-3.6671,-3.6814,-3.6814,-3.6834,-3.7242,-3.7675,-3.8098,-3.8385,-3.8575,-3.8823,-3.9528,-3.9775,-4.0156,-4.0286,-4.0363,-4.0436,-4.043,-4.031,-4.0422,-4.0438,-4.0454,-4.0454,-2.9817,-3.0041,-3.0299,-3.0481,-3.0602,-3.0668,-3.0739,-3.0796,-3.08,-3.0798,-3.0801,-3.0769,-3.0736,-3.0697,-3.0649,-3.0629,-3.0586,-3.0511,-3.0413,-3.0422,-3.0482,-3.054,-3.0549,-3.0511,-3.0482,-3.0481,-3.0481,-3.0481,-3.0462,-3.0482,-3.0501,-3.0549,-3.0569,-3.0588,-3.0585,-3.0591,-3.056,-3.0587,-3.0591,-3.0625,-3.0658,-3.0678,-3.0659,-3.0661,-3.0671,-3.0672,-3.0652,-3.0613,-3.0646,-3.0764,-3.0728,-3.0716,-3.071,-3.0698,-3.0685,-3.0671,-3.0678,-3.0704,-3.108,-3.237,-3.3317,-3.3523,-3.4923,-3.5894,-3.5904,-3.5942,-3.5974,-3.5997,-3.5988,-3.5996,-3.6007,-3.5993,-3.5976,-3.5974,-3.5938,-3.5908,-3.5899,-3.5858,-3.5846,-3.5879,-3.5878,-3.5889,-3.5915,-3.5851,-3.5843,-3.5883,-3.596,-3.6017,-3.6007,-3.6063,-3.5753,-3.5789,-3.6037,-3.6095,-3.6303,-3.6308,-3.6327,-3.6517,-3.692,-3.7286,-3.7805,-3.8057,-3.8342,-3.9042,-3.9515,-4.0008,-4.0177,-3.9965,-4.0111,-4.0179,-4.0232,-4.0458,-4.0582,-4.061,-4.0571,-2.9931,-3.0177,-3.0372,-3.0546,-3.0671,-3.074,-3.0782,-3.0801,-3.0788,-3.0774,-3.072,-3.0678,-3.0614,-3.0535,-3.0511,-3.0439,-3.0356,-3.0309,-3.0235,-3.0169,-3.015,-3.0248,-3.0348,-3.0348,-3.0316,-3.0292,-3.0273,-3.0248,-3.0216,-3.0239,-3.0283,-3.0297,-3.0337,-3.0362,-3.0375,-3.0359,-3.04,-3.0442,-3.0452,-3.0443,-3.0472,-3.0472,-3.0491,-3.0479,-3.0528,-3.0511,-3.0482,-3.0453,-3.0509,-3.0644,-3.0676,-3.068,-3.0634,-3.0618,-3.0602,-3.0565,-3.0602,-3.0637,-3.0956,-3.2244,-3.3142,-3.3374,-3.4834,-3.5807,-3.582,-3.5897,-3.5914,-3.5924,-3.5938,-3.5927,-3.5935,-3.5965,-3.5999,-3.6012,-3.5973,-3.5949,-3.5927,-3.5934,-3.5948,-3.5924,-3.5958,-3.5922,-3.5872,-3.5833,-3.5779,-3.5791,-3.5784,-3.5776,-3.5768,-3.5763,-3.5726,-3.5735,-3.5842,-3.5803,-3.5803,-3.5791,-3.5821,-3.5911,-3.6173,-3.6441,-3.7049,-3.7623,-3.7983,-3.8498,-3.8575,-3.8949,-3.8884,-3.873,-3.9134,-3.9719,-3.9762,-3.9863,-4.0516,-4.0751,-4.0682,-3.0047,-3.0294,-3.0498,-3.0652,-3.074,-3.0799,-3.0781,-3.076,-3.0769,-3.0704,-3.0626,-3.0537,-3.0463,-3.0372,-3.0304,-3.0215,-3.0136,-3.0018,-2.9981,-2.9934,-2.9826,-2.9924,-3.0071,-3.0118,-3.009,-3.0041,-3.0022,-3.0018,-2.998,-3.0004,-3.0042,-3.0075,-3.0114,-3.0145,-3.0128,-3.0142,-3.0155,-3.0182,-3.0196,-3.0203,-3.0222,-3.0234,-3.0259,-3.0263,-3.0344,-3.0359,-3.0323,-3.034,-3.0411,-3.0549,-3.0597,-3.0569,-3.053,-3.0521,-3.0501,-3.0471,-3.0501,-3.053,-3.0858,-3.2126,-3.3055,-3.3468,-3.4764,-3.5605,-3.5768,-3.583,-3.5859,-3.5813,-3.5859,-3.5878,-3.5869,-3.5924,-3.5942,-3.5946,-3.5951,-3.5956,-3.5942,-3.5982,-3.5977,-3.5971,-3.5965,-3.5978,-3.5934,-3.5914,-3.5903,-3.5883,-3.5864,-3.5858,-3.5852,-3.5833,-3.5833,-3.582,-3.582,-3.5813,-3.582,-3.5833,-3.582,-3.5846,-3.5884,-3.6075,-3.6395,-3.7064,-3.7295,-3.7577,-3.7674,-3.7801,-3.7898,-3.8082,-3.8578,-3.8976,-3.9043,-3.9263,-3.9777,-4.0388,-4.036,-3.0177,-3.0424,-3.062,-3.0743,-3.0788,-3.0801,-3.0743,-3.0697,-3.0644,-3.0576,-3.0462,-3.0372,-3.0239,-3.0144,-3.0071,-2.9981,-2.9848,-2.9731,-2.9643,-2.957,-2.9494,-2.9549,-2.9678,-2.9786,-2.9786,-2.975,-2.975,-2.971,-2.9706,-2.9706,-2.9763,-2.9787,-2.9813,-2.9849,-2.9803,-2.9817,-2.9834,-2.9851,-2.9832,-2.9899,-2.9962,-2.9977,-2.9973,-3.0032,-3.0061,-3.0109,-3.0109,-3.0155,-3.0254,-3.0409,-3.0444,-3.0444,-3.0394,-3.0356,-3.0383,-3.0379,-3.0383,-3.0406,-3.0709,-3.1992,-3.2998,-3.3313,-3.4662,-3.5641,-3.5669,-3.5718,-3.5747,-3.5717,-3.581,-3.5823,-3.5794,-3.584,-3.5878,-3.5875,-3.5895,-3.5929,-3.5971,-3.5995,-3.6015,-3.6015,-3.6012,-3.6009,-3.6018,-3.6007,-3.5997,-3.5952,-3.5932,-3.591,-3.5887,-3.5877,-3.586,-3.5866,-3.588,-3.5914,-3.5924,-3.5934,-3.5919,-3.5934,-3.5924,-3.5981,-3.5957,-3.6343,-3.6468,-3.6634,-3.685,-3.7161,-3.748,-3.7769,-3.8016,-3.8206,-3.8252,-3.8371,-3.8624,-3.9306,-3.9572,-3.0229,-3.0502,-3.0643,-3.0753,-3.0793,-3.0723,-3.0684,-3.0615,-3.0442,-3.0337,-3.0234,-3.0084,-2.9954,-2.9883,-2.975,-2.9626,-2.9494,-2.9397,-2.9277,-2.9089,-2.9042,-2.8993,-2.9064,-2.9291,-2.9434,-2.9377,-2.9357,-2.9299,-2.9262,-2.9305,-2.9342,-2.9336,-2.9353,-2.9433,-2.9415,-2.9398,-2.9456,-2.9476,-2.9495,-2.9551,-2.9644,-2.9662,-2.9661,-2.9696,-2.9713,-2.9712,-2.9746,-2.9801,-2.9834,-2.9927,-3.0095,-3.0182,-3.0163,-3.019,-3.0196,-3.0221,-3.0247,-3.0254,-3.0574,-3.1789,-3.2852,-3.3026,-3.441,-3.5488,-3.5534,-3.5586,-3.5616,-3.5623,-3.5629,-3.566,-3.5715,-3.5768,-3.5803,-3.5806,-3.5807,-3.5807,-3.5836,-3.5951,-3.601,-3.6001,-3.6005,-3.6009,-3.6014,-3.5995,-3.5996,-3.6015,-3.5976,-3.5957,-3.5918,-3.5896,-3.5895,-3.5893,-3.5932,-3.5953,-3.5933,-3.5954,-3.5932,-3.595,-3.5945,-3.596,-3.5926,-3.5919,-3.6158,-3.6164,-3.6117,-3.6475,-3.693,-3.6729,-3.6826,-3.7124,-3.7492,-3.7664,-3.7932,-3.8458,-3.8775,-3.0337,-3.0553,-3.0671,-3.0696,-3.0676,-3.0594,-3.0481,-3.0356,-3.0177,-3.0037,-2.9908,-2.9782,-2.9624,-2.9476,-2.9319,-2.9175,-2.9064,-2.8906,-2.8742,-2.8597,-2.8524,-2.8417,-2.8352,-2.8554,-2.8687,-2.886,-2.8888,-2.8842,-2.8828,-2.8809,-2.8828,-2.8834,-2.8858,-2.8845,-2.8883,-2.8911,-2.8934,-2.896,-2.8964,-2.9027,-2.9111,-2.9132,-2.9196,-2.9277,-2.9318,-2.9359,-2.9437,-2.9475,-2.9494,-2.9533,-2.9678,-2.9832,-2.9931,-2.9943,-2.9943,-3.0019,-3.0049,-3.006,-3.0456,-3.1622,-3.2699,-3.2728,-3.4304,-3.5048,-3.536,-3.5415,-3.546,-3.5463,-3.5451,-3.5492,-3.559,-3.562,-3.565,-3.566,-3.565,-3.5687,-3.5732,-3.5878,-3.5977,-3.5934,-3.5899,-3.5914,-3.5919,-3.5927,-3.5923,-3.5899,-3.5899,-3.588,-3.5916,-3.5884,-3.5884,-3.5907,-3.5946,-3.5962,-3.5946,-3.5952,-3.5921,-3.5927,-3.5932,-3.5953,-3.5954,-3.5957,-3.5968,-3.5971,-3.5986,-3.5986,-3.6267,-3.5986,-3.599,-3.6375,-3.6755,-3.6972,-3.7229,-3.7565,-3.7802,-3.0418,-3.0579,-3.0637,-3.0604,-3.0494,-3.0356,-3.0182,-2.9985,-2.9832,-2.9657,-2.9514,-2.9399,-2.9196,-2.9001,-2.8824,-2.8682,-2.8485,-2.828,-2.8102,-2.801,-2.7918,-2.7851,-2.7789,-2.7777,-2.7865,-2.8246,-2.835,-2.835,-2.8355,-2.8318,-2.8304,-2.8291,-2.8287,-2.829,-2.8326,-2.835,-2.8402,-2.841,-2.8391,-2.8435,-2.8504,-2.8529,-2.8628,-2.8753,-2.8865,-2.8911,-2.8956,-2.9042,-2.9086,-2.9082,-2.9148,-2.9336,-2.9532,-2.9643,-2.9605,-2.9736,-2.9825,-2.9859,-3.0158,-3.1417,-3.2528,-3.2635,-3.412,-3.5015,-3.5141,-3.5205,-3.5259,-3.5242,-3.5254,-3.5339,-3.5445,-3.5477,-3.5489,-3.5483,-3.5476,-3.55,-3.5585,-3.5795,-3.5849,-3.584,-3.5801,-3.5794,-3.5791,-3.5811,-3.5807,-3.5782,-3.5782,-3.5791,-3.5823,-3.5845,-3.584,-3.5866,-3.5911,-3.5891,-3.5878,-3.588,-3.587,-3.5875,-3.5884,-3.5903,-3.5942,-3.5907,-3.5909,-3.5976,-3.5995,-3.5995,-3.5976,-3.5996,-3.5996,-3.6015,-3.6133,-3.6445,-3.6601,-3.6698,-3.6913,-3.0392,-3.0518,-3.0453,-3.0352,-3.0148,-2.9909,-2.9715,-2.9568,-2.938,-2.9217,-2.9064,-2.8842,-2.8634,-2.8478,-2.8298,-2.8039,-2.7712,-2.7525,-2.7439,-2.7382,-2.7303,-2.7241,-2.7149,-2.7043,-2.7076,-2.7213,-2.7482,-2.7718,-2.7798,-2.7806,-2.7735,-2.7798,-2.7783,-2.7757,-2.7748,-2.7811,-2.7823,-2.7833,-2.7816,-2.789,-2.7946,-2.8002,-2.8084,-2.8201,-2.8254,-2.8298,-2.8306,-2.8384,-2.846,-2.8478,-2.8578,-2.8718,-2.8902,-2.9191,-2.9375,-2.9454,-2.9569,-2.9626,-2.9983,-3.1243,-3.2091,-3.2619,-3.3826,-3.4717,-3.4851,-3.4978,-3.5039,-3.5002,-3.5049,-3.5168,-3.5339,-3.53,-3.5315,-3.5311,-3.5307,-3.5307,-3.5374,-3.5488,-3.5642,-3.56,-3.5621,-3.564,-3.565,-3.5669,-3.5658,-3.5658,-3.5658,-3.5649,-3.5669,-3.5698,-3.5717,-3.5756,-3.5842,-3.581,-3.5749,-3.5787,-3.5788,-3.5788,-3.5795,-3.5795,-3.5814,-3.582,-3.5855,-3.5912,-3.5968,-3.5971,-3.5971,-3.5988,-3.5988,-3.5952,-3.5988,-3.6001,-3.6183,-3.6345,-3.6264,-3.0214,-3.0205,-3.0025,-2.9789,-2.9519,-2.9308,-2.9089,-2.8868,-2.8675,-2.8474,-2.8296,-2.804,-2.7819,-2.7666,-2.7442,-2.7203,-2.6967,-2.6822,-2.6707,-2.6657,-2.6539,-2.6437,-2.6402,-2.6274,-2.617,-2.6193,-2.6437,-2.6822,-2.7129,-2.7048,-2.7056,-2.7002,-2.6961,-2.6928,-2.6956,-2.6967,-2.7049,-2.7063,-2.7063,-2.7095,-2.7189,-2.733,-2.7435,-2.7495,-2.7631,-2.7707,-2.7747,-2.7816,-2.7901,-2.7974,-2.8047,-2.8147,-2.8281,-2.8489,-2.879,-2.9056,-2.9225,-2.9548,-2.9996,-3.1219,-3.203,-3.2611,-3.3759,-3.4402,-3.4542,-3.4664,-3.4764,-3.471,-3.4793,-3.4908,-3.4963,-3.5,-3.4981,-3.4999,-3.4997,-3.4997,-3.5053,-3.5147,-3.5223,-3.5325,-3.5328,-3.5368,-3.547,-3.5477,-3.5502,-3.5502,-3.5514,-3.5495,-3.5507,-3.5531,-3.5523,-3.5593,-3.5651,-3.5607,-3.5581,-3.5611,-3.565,-3.5678,-3.5678,-3.5668,-3.5696,-3.5696,-3.5741,-3.5799,-3.5846,-3.5859,-3.5889,-3.588,-3.5894,-3.5908,-3.5914,-3.5938,-3.5943,-3.5963,-3.5958,-2.9783,-2.9556,-2.9244,-2.8927,-2.864,-2.8476,-2.824,-2.7969,-2.7748,-2.7555,-2.7365,-2.7085,-2.6899,-2.6706,-2.6455,-2.6232,-2.6071,-2.5911,-2.5875,-2.5855,-2.5672,-2.5577,-2.554,-2.5427,-2.5351,-2.5373,-2.5351,-2.5689,-2.6283,-2.6318,-2.6218,-2.6218,-2.6092,-2.6036,-2.6089,-2.6173,-2.6156,-2.6142,-2.6142,-2.6212,-2.6351,-2.6488,-2.664,-2.669,-2.6888,-2.7066,-2.708,-2.7141,-2.7251,-2.7348,-2.7426,-2.7487,-2.7595,-2.7666,-2.7946,-2.8446,-2.8713,-2.9326,-3.0094,-3.098,-3.1808,-3.2515,-3.3543,-3.4,-3.4197,-3.4309,-3.4394,-3.4357,-3.4467,-3.4569,-3.4591,-3.4612,-3.4612,-3.4632,-3.4632,-3.4653,-3.4694,-3.4752,-3.4811,-3.4888,-3.4958,-3.5059,-3.5162,-3.5262,-3.5277,-3.5258,-3.5273,-3.5273,-3.5268,-3.5288,-3.5316,-3.5383,-3.5416,-3.5386,-3.5374,-3.5387,-3.5456,-3.55,-3.5512,-3.5512,-3.5535,-3.5546,-3.5599,-3.5609,-3.563,-3.565,-3.5704,-3.5779,-3.5799,-3.5818,-3.5833,-3.5859,-3.5852,-3.5852,-3.5852,-2.8835,-2.8198,-2.7914,-2.7656,-2.7366,-2.722,-2.7047,-2.6781,-2.6604,-2.6472,-2.62,-2.599,-2.5865,-2.5701,-2.5368,-2.5096,-2.4934,-2.4855,-2.4816,-2.4855,-2.4816,-2.4816,-2.4926,-2.4823,-2.4648,-2.4552,-2.4477,-2.4918,-2.5347,-2.5471,-2.5565,-2.5505,-2.5447,-2.5453,-2.5313,-2.5288,-2.5335,-2.5335,-2.5319,-2.5395,-2.5561,-2.5619,-2.5766,-2.5911,-2.6071,-2.6193,-2.6212,-2.63,-2.642,-2.6556,-2.6607,-2.6757,-2.6906,-2.6987,-2.7112,-2.746,-2.7982,-2.8755,-2.9674,-3.0604,-3.1511,-3.232,-3.3095,-3.3506,-3.3798,-3.3905,-3.3965,-3.3876,-3.4031,-3.4179,-3.425,-3.4298,-3.4321,-3.4344,-3.4344,-3.4367,-3.439,-3.4325,-3.439,-3.4454,-3.451,-3.4697,-3.4832,-3.4943,-3.5051,-3.5051,-3.5015,-3.5015,-3.5015,-3.5015,-3.5124,-3.5196,-3.5136,-3.5111,-3.507,-3.512,-3.5193,-3.5277,-3.5292,-3.5307,-3.5302,-3.5316,-3.5336,-3.5345,-3.5372,-3.547,-3.5566,-3.563,-3.567,-3.5679,-3.567,-3.5698,-3.5727,-3.5736,-3.5745,-2.3243,-2.5647,-2.5631,-2.5596,-2.5518,-2.5475,-2.5411,-2.5222,-2.5158,-2.5006,-2.4853,-2.4666,-2.4514,-2.4368,-2.4112,-2.3945,-2.3834,-2.3791,-2.3806,-2.3791,-2.3776,-2.3791,-2.3749,-2.3721,-2.3651,-2.3651,-2.3565,-2.3565,-2.405,-2.4396,-2.4603,-2.4578,-2.4471,-2.4346,-2.442,-2.4326,-2.4313,-2.4307,-2.4348,-2.443,-2.4592,-2.4697,-2.4839,-2.4996,-2.5179,-2.5255,-2.5373,-2.546,-2.5631,-2.5795,-2.5872,-2.598,-2.6175,-2.6332,-2.652,-2.7352,-2.7619,-2.845,-2.9607,-3.0516,-3.1385,-3.2187,-3.2816,-3.322,-3.3513,-3.3528,-3.3486,-3.3414,-3.3588,-3.3725,-3.3842,-3.3868,-3.3895,-3.3921,-3.3928,-3.3928,-3.3928,-3.3928,-3.3947,-3.3991,-3.406,-3.4195,-3.4323,-3.447,-3.4572,-3.4653,-3.4653,-3.4653,-3.4653,-3.4693,-3.4829,-3.5021,-3.4927,-3.4775,-3.4756,-3.4774,-3.4907,-3.4982,-3.5037,-3.5054,-3.5034,-3.5034,-3.528,-3.5257,-3.519,-3.5285,-3.5427,-3.5438,-3.5451,-3.5463,-3.5495,-3.5507,-3.5531,-3.5643,-3.58,-1.6598,-2.1269,-2.2515,-2.3134,-2.3269,-2.3417,-2.3477,-2.3453,-2.3383,-2.3313,-2.3299,-2.3186,-2.3025,-2.2876,-2.2786,-2.2741,-2.2696,-2.2741,-2.2756,-2.2756,-2.2696,-2.2696,-2.2756,-2.268,-2.2603,-2.2618,-2.2543,-2.2575,-2.2696,-2.2966,-2.3287,-2.3593,-2.3496,-2.3391,-2.3333,-2.329,-2.326,-2.3245,-2.3274,-2.3376,-2.3522,-2.3664,-2.3791,-2.3956,-2.4143,-2.4275,-2.4455,-2.4558,-2.4704,-2.4887,-2.4989,-2.5105,-2.5275,-2.5686,-2.6097,-2.6869,-2.7358,-2.8223,-2.9259,-3.0196,-3.1306,-3.2018,-3.2537,-3.2773,-3.3198,-3.3118,-3.2947,-3.2834,-3.3069,-3.3214,-3.3309,-3.3339,-3.335,-3.335,-3.3397,-3.3397,-3.3397,-3.339,-3.3502,-3.3668,-3.3642,-3.3478,-3.366,-3.3873,-3.4062,-3.4221,-3.4264,-3.4269,-3.4293,-3.4316,-3.4404,-3.4611,-3.4592,-3.4461,-3.443,-3.4473,-3.4586,-3.4873,-3.4953,-3.5181,-3.5409,-3.5564,-3.5773,-3.5568,-3.5324,-3.5495,-3.5856,-3.5545,-3.5216,-3.5243,-3.5273,-3.5288,-3.5336,-3.5526,-3.6221,-0.9831,-1.4201,-1.8366,-2.0268,-2.0689,-2.1104,-2.1362,-2.1383,-2.1411,-2.1485,-2.1608,-2.1594,-2.1479,-2.1363,-2.1376,-2.1438,-2.1342,-2.1452,-2.1547,-2.1643,-2.169,-2.1724,-2.1738,-2.169,-2.1657,-2.1732,-2.1609,-2.15,-2.1513,-2.1486,-2.2109,-2.2793,-2.2498,-2.2564,-2.2489,-2.2259,-2.2221,-2.2207,-2.2193,-2.23,-2.2392,-2.2529,-2.2634,-2.2815,-2.2921,-2.304,-2.3304,-2.345,-2.3666,-2.3849,-2.3975,-2.4239,-2.4555,-2.5062,-2.5613,-2.6372,-2.7306,-2.8098,-2.8813,-2.9738,-3.0626,-3.1418,-3.1913,-3.2196,-3.2634,-3.2544,-3.2366,-3.2225,-3.2464,-3.2619,-3.2669,-3.2702,-3.2749,-3.2813,-3.2844,-3.2858,-3.2858,-3.2858,-3.2993,-3.3265,-3.3212,-3.3014,-3.2942,-3.3201,-3.3542,-3.3725,-3.385,-3.385,-3.3902,-3.3954,-3.3961,-3.4074,-3.4141,-3.4129,-3.4111,-3.434,-3.4928,-3.5274,-3.5435,-3.585,-3.6267,-3.6352,-3.6115,-3.6189,-3.6026,-3.6166,-3.6171,-3.5838,-3.5514,-3.5171,-3.5147,-3.5585,-3.5866,-3.6124,-3.7108,-0.4589,-0.8569,-1.2102,-1.5235,-1.779,-1.8336,-1.8879,-1.9393,-1.9613,-1.9809,-1.9982,-1.9823,-1.9724,-1.9698,-1.9864,-1.9978,-1.9927,-2.0105,-2.0245,-2.0307,-2.0408,-2.0458,-2.0521,-2.061,-2.0534,-2.0597,-2.0484,-2.0434,-2.0396,-2.0346,-2.0497,-2.0934,-2.1233,-2.1394,-2.1318,-2.1291,-2.1188,-2.1175,-2.1175,-2.1272,-2.1465,-2.1513,-2.1609,-2.1894,-2.201,-2.2123,-2.231,-2.2413,-2.2661,-2.2904,-2.3038,-2.3437,-2.4,-2.4567,-2.5274,-2.6077,-2.7088,-2.7705,-2.8521,-2.9404,-3.0382,-3.0915,-3.1244,-3.1538,-3.2001,-3.1886,-3.1716,-3.1666,-3.1809,-3.2003,-3.2162,-3.2197,-3.2231,-3.2248,-3.2265,-3.2282,-3.2282,-3.2282,-3.2386,-3.2647,-3.2627,-3.2453,-3.2468,-3.2517,-3.289,-3.3262,-3.335,-3.3473,-3.3575,-3.3723,-3.3816,-3.4045,-3.4209,-3.4458,-3.4477,-3.4917,-3.5386,-3.5662,-3.592,-3.6316,-3.6676,-3.6435,-3.6295,-3.6472,-3.6665,-3.6609,-3.6474,-3.6162,-3.5998,-3.5988,-3.613,-3.6417,-3.6611,-3.6748,-3.7681,-0.0643,-0.4163,-0.7078,-1.085,-1.4749,-1.5723,-1.6519,-1.7307,-1.764,-1.7876,-1.8115,-1.7963,-1.8001,-1.8089,-1.848,-1.8701,-1.8915,-1.9209,-1.942,-1.9522,-1.9655,-1.9592,-1.9613,-1.9605,-1.9645,-1.951,-1.9448,-1.9436,-1.9371,-1.9384,-1.9384,-1.9475,-1.967,-1.994,-2.0372,-2.0207,-2.0144,-2.0156,-2.0156,-2.0245,-2.0446,-2.0497,-2.0584,-2.0782,-2.0934,-2.1082,-2.1251,-2.1388,-2.167,-2.2014,-2.2365,-2.2808,-2.3492,-2.4192,-2.4975,-2.584,-2.6653,-2.7184,-2.8071,-2.918,-2.9962,-3.0278,-3.051,-3.084,-3.117,-3.119,-3.1033,-3.0954,-3.1176,-3.1414,-3.1582,-3.1565,-3.1565,-3.1568,-3.1568,-3.1568,-3.166,-3.1677,-3.1837,-3.2033,-3.1946,-3.1896,-3.1914,-3.1986,-3.2405,-3.2755,-3.2912,-3.3172,-3.353,-3.3665,-3.3849,-3.415,-3.4506,-3.4762,-3.5066,-3.5235,-3.5471,-3.6054,-3.6315,-3.6614,-3.679,-3.6614,-3.6735,-3.7168,-3.7253,-3.7044,-3.7011,-3.7061,-3.7044,-3.7026,-3.7012,-3.6864,-3.7286,-3.7454,-3.7999,0.2069,-0.1337,-0.4084,-0.7819,-1.1812,-1.3394,-1.4371,-1.5079,-1.5368,-1.5652,-1.5984,-1.6019,-1.6306,-1.6665,-1.7248,-1.7556,-1.7886,-1.8566,-1.8921,-1.8924,-1.8962,-1.916,-1.9147,-1.9018,-1.8913,-1.8785,-1.8696,-1.8515,-1.8391,-1.8333,-1.817,-1.8061,-1.8255,-1.862,-1.95,-1.9344,-1.9186,-1.904,-1.9028,-1.9174,-1.9279,-1.9319,-1.9515,-1.9643,-1.9759,-1.9965,-2.0194,-2.0437,-2.0784,-2.13,-2.1741,-2.2228,-2.2842,-2.379,-2.4465,-2.4927,-2.582,-2.6357,-2.6864,-2.8415,-2.9087,-2.938,-2.962,-3.0022,-3.0385,-3.0474,-3.0377,-3.0245,-3.0517,-3.0747,-3.0845,-3.0828,-3.0811,-3.0851,-3.0851,-3.0948,-3.1004,-3.1061,-3.123,-3.1426,-3.1363,-3.13,-3.1359,-3.1507,-3.1923,-3.223,-3.2422,-3.2824,-3.3441,-3.3757,-3.3967,-3.4267,-3.4657,-3.4992,-3.5256,-3.5311,-3.5613,-3.6217,-3.666,-3.6924,-3.7208,-3.7259,-3.7525,-3.783,-3.7667,-3.7323,-3.7667,-3.808,-3.7802,-3.7411,-3.719,-3.7192,-3.769,-3.8115,-3.8515,0.441,0.1453,-0.1529,-0.4322,-0.7139,-1.0031,-1.1776,-1.2764,-1.3445,-1.3924,-1.4312,-1.4577,-1.4853,-1.5293,-1.5813,-1.6354,-1.6661,-1.6857,-1.7276,-1.776,-1.7925,-1.7962,-1.8006,-1.8192,-1.8165,-1.8108,-1.7933,-1.7818,-1.7726,-1.7453,-1.7211,-1.7078,-1.7123,-1.7501,-1.8093,-1.8213,-1.8159,-1.8159,-1.8159,-1.8213,-1.8321,-1.8447,-1.8543,-1.8709,-1.8851,-1.9035,-1.93,-1.9572,-2.0101,-2.0657,-2.1116,-2.1818,-2.2433,-2.3365,-2.3872,-2.435,-2.5148,-2.5384,-2.5892,-2.6857,-2.761,-2.8134,-2.867,-2.9122,-2.9683,-2.9627,-2.9544,-2.9553,-2.9745,-2.9908,-3.0011,-2.9995,-3.0038,-3.0166,-3.0208,-3.0309,-3.0351,-3.0468,-3.0601,-3.0833,-3.0875,-3.1191,-3.1357,-3.1549,-3.1911,-3.2372,-3.2642,-3.3159,-3.3758,-3.3992,-3.4209,-3.4436,-3.4789,-3.5179,-3.5445,-3.5606,-3.5874,-3.641,-3.6805,-3.7075,-3.738,-3.7505,-3.747,-3.7417,-3.747,-3.7613,-3.7667,-3.7775,-3.7859,-3.7657,-3.74,-3.7492,-3.8014,-3.8413,-3.873,0.6398,0.3645,0.0775,-0.1553,-0.3784,-0.7289,-0.9574,-1.081,-1.1597,-1.2182,-1.2649,-1.2902,-1.3352,-1.3859,-1.4467,-1.5125,-1.5489,-1.6019,-1.6328,-1.673,-1.6934,-1.7115,-1.7209,-1.7309,-1.7294,-1.7276,-1.7175,-1.7011,-1.6786,-1.6481,-1.6277,-1.6144,-1.6114,-1.6379,-1.6877,-1.7101,-1.7279,-1.7224,-1.7224,-1.7279,-1.7435,-1.7523,-1.7611,-1.7778,-1.8012,-1.8271,-1.8585,-1.9018,-1.9539,-2.0025,-2.0646,-2.1372,-2.2009,-2.2598,-2.3102,-2.3638,-2.415,-2.4496,-2.5007,-2.5453,-2.6154,-2.6725,-2.7425,-2.8229,-2.8771,-2.8793,-2.8654,-2.867,-2.8904,-2.9058,-2.915,-2.915,-2.9257,-2.9377,-2.9483,-2.9556,-2.9633,-2.9738,-2.9955,-3.0217,-3.0712,-3.1046,-3.1462,-3.1703,-3.1957,-3.2486,-3.2954,-3.3448,-3.3902,-3.4151,-3.4427,-3.4685,-3.4932,-3.5307,-3.5665,-3.5937,-3.6226,-3.6626,-3.6781,-3.686,-3.6956,-3.6956,-3.6939,-3.6978,-3.7034,-3.7108,-3.722,-3.7281,-3.7251,-3.738,-3.7434,-3.7778,-3.8346,-3.8541,-3.8603,0.8085,0.5271,0.295,0.0623,-0.1869,-0.5143,-0.7608,-0.9205,-0.9752,-1.0311,-1.083,-1.1162,-1.1824,-1.2638,-1.3324,-1.3947,-1.4539,-1.535,-1.5774,-1.6104,-1.6291,-1.636,-1.6416,-1.659,-1.659,-1.6446,-1.6364,-1.6311,-1.5794,-1.5718,-1.5508,-1.5271,-1.5243,-1.5361,-1.5682,-1.6002,-1.6327,-1.6363,-1.6389,-1.6446,-1.6606,-1.669,-1.6857,-1.7073,-1.7291,-1.7648,-1.7975,-1.8414,-1.9022,-1.9543,-2.0109,-2.0551,-2.1105,-2.1705,-2.2051,-2.2543,-2.3148,-2.3564,-2.3917,-2.4368,-2.4711,-2.5246,-2.6158,-2.7059,-2.7713,-2.7855,-2.7765,-2.7773,-2.7969,-2.8112,-2.8288,-2.8352,-2.8463,-2.8559,-2.8654,-2.8764,-2.8873,-2.9045,-2.9343,-2.9737,-3.0402,-3.0895,-3.1422,-3.1726,-3.1999,-3.2563,-3.3013,-3.3299,-3.3707,-3.4102,-3.4421,-3.4969,-3.5199,-3.544,-3.5698,-3.5795,-3.5899,-3.6054,-3.6182,-3.6266,-3.6326,-3.6409,-3.6451,-3.6474,-3.6533,-3.6632,-3.6748,-3.6701,-3.6544,-3.6738,-3.7058,-3.7377,-3.7791,-3.7982,-3.8068,0.9236,0.7034,0.4506,0.2417,0.0388,-0.2628,-0.5138,-0.7009,-0.7976,-0.8706,-0.9192,-1.0047,-1.0802,-1.1622,-1.2096,-1.2697,-1.3331,-1.3814,-1.4212,-1.4673,-1.5092,-1.5238,-1.546,-1.5739,-1.5894,-1.589,-1.5829,-1.5737,-1.5593,-1.5339,-1.4746,-1.4471,-1.4576,-1.452,-1.4578,-1.4856,-1.5269,-1.5566,-1.5654,-1.5771,-1.5929,-1.6148,-1.6267,-1.6527,-1.6897,-1.7151,-1.741,-1.7947,-1.8469,-1.8723,-1.9458,-1.9933,-2.0171,-2.0719,-2.1164,-2.169,-2.2125,-2.2482,-2.2713,-2.3255,-2.361,-2.3774,-2.4557,-2.5592,-2.6323,-2.6789,-2.6791,-2.685,-2.707,-2.7282,-2.7464,-2.758,-2.7645,-2.7745,-2.789,-2.8176,-2.8351,-2.8725,-2.8978,-2.9527,-3.0173,-3.1045,-3.1482,-3.1628,-3.1954,-3.2645,-3.3069,-3.3176,-3.3448,-3.3844,-3.4246,-3.475,-3.4927,-3.5021,-3.5085,-3.5144,-3.5316,-3.547,-3.5588,-3.5677,-3.5766,-3.5854,-3.5871,-3.5975,-3.6096,-3.6225,-3.6335,-3.6232,-3.6027,-3.6281,-3.6557,-3.686,-3.7188,-3.7376,-3.7541,1.0306,0.8344,0.6053,0.3701,0.1288,-0.1041,-0.3027,-0.4541,-0.6073,-0.7168,-0.7976,-0.8753,-0.9585,-1.0307,-1.0799,-1.1385,-1.2037,-1.2412,-1.2872,-1.3382,-1.3665,-1.3954,-1.4322,-1.4681,-1.4863,-1.4956,-1.5052,-1.4888,-1.4806,-1.4479,-1.3947,-1.3995,-1.4072,-1.4009,-1.4084,-1.4297,-1.4469,-1.4808,-1.5035,-1.5181,-1.5416,-1.5619,-1.5728,-1.6037,-1.6468,-1.6712,-1.6922,-1.7504,-1.7803,-1.8107,-1.8839,-1.9156,-1.9375,-1.9814,-2.0333,-2.0805,-2.1049,-2.1365,-2.1678,-2.2125,-2.2457,-2.2737,-2.3182,-2.3969,-2.4832,-2.5411,-2.5563,-2.5765,-2.6119,-2.6443,-2.6616,-2.6736,-2.6803,-2.6855,-2.7239,-2.7639,-2.804,-2.8487,-2.8921,-2.9357,-3.0144,-3.1151,-3.1597,-3.1627,-3.1844,-3.2245,-3.2548,-3.264,-3.2998,-3.3451,-3.374,-3.4152,-3.4284,-3.4333,-3.4448,-3.4594,-3.4723,-3.4866,-3.4961,-3.5085,-3.5195,-3.5304,-3.535,-3.5508,-3.5667,-3.5723,-3.5807,-3.5722,-3.5637,-3.582,-3.5985,-3.6182,-3.6457,-3.6799,-3.6995,1.1366,0.9195,0.721,0.4395,0.1463,-0.0,-0.11,-0.1827,-0.4007,-0.5678,-0.664,-0.7451,-0.8169,-0.8934,-0.9523,-1.0062,-1.0657,-1.1105,-1.1477,-1.2157,-1.2445,-1.2739,-1.2959,-1.3324,-1.3608,-1.376,-1.3852,-1.3915,-1.3608,-1.3415,-1.3545,-1.3683,-1.3643,-1.3555,-1.3499,-1.3751,-1.3958,-1.4148,-1.4493,-1.4789,-1.4909,-1.5003,-1.514,-1.5361,-1.5765,-1.6129,-1.6514,-1.6896,-1.7364,-1.7638,-1.791,-1.8104,-1.8509,-1.8834,-1.9365,-1.977,-2.0031,-2.0366,-2.0752,-2.1198,-2.1439,-2.1803,-2.2237,-2.2604,-2.3327,-2.4292,-2.4614,-2.4842,-2.5218,-2.5508,-2.5687,-2.609,-2.6353,-2.6564,-2.6928,-2.7224,-2.7578,-2.8177,-2.891,-2.9358,-2.9982,-3.0875,-3.1123,-3.1123,-3.1264,-3.1736,-3.1981,-3.2079,-3.2342,-3.278,-3.3156,-3.3471,-3.3626,-3.3713,-3.3899,-3.3984,-3.4084,-3.4234,-3.4333,-3.448,-3.4626,-3.4739,-3.4851,-3.4996,-3.5141,-3.5157,-3.5202,-3.5115,-3.5094,-3.5299,-3.5407,-3.5424,-3.5722,-3.6156,-3.6409,1.2024,0.9954,0.6908,0.4473,0.2772,0.1343,0.0148,-0.1011,-0.2131,-0.3647,-0.5205,-0.6204,-0.7042,-0.7774,-0.8165,-0.8694,-0.9231,-0.976,-1.0143,-1.0663,-1.1111,-1.1484,-1.1706,-1.215,-1.2445,-1.2666,-1.2799,-1.299,-1.2906,-1.2891,-1.2839,-1.2767,-1.2851,-1.2928,-1.2757,-1.302,-1.337,-1.3516,-1.3863,-1.4287,-1.4455,-1.4865,-1.5195,-1.5342,-1.5584,-1.5773,-1.5974,-1.6087,-1.6324,-1.6473,-1.6682,-1.7097,-1.7647,-1.7774,-1.824,-1.8767,-1.8977,-1.9386,-1.9791,-2.0172,-2.0484,-2.0805,-2.1175,-2.1365,-2.1978,-2.3075,-2.3728,-2.3981,-2.4297,-2.4593,-2.4899,-2.5456,-2.5914,-2.6249,-2.6627,-2.6937,-2.719,-2.8043,-2.8859,-2.9337,-2.9906,-3.0185,-3.0435,-3.0673,-3.0792,-3.097,-3.1146,-3.1321,-3.1495,-3.1807,-3.2201,-3.2571,-3.2911,-3.3071,-3.3261,-3.3435,-3.3523,-3.3626,-3.3713,-3.3882,-3.4034,-3.4134,-3.425,-3.4431,-3.4562,-3.4644,-3.4627,-3.4463,-3.4526,-3.4769,-3.4913,-3.4961,-3.5071,-3.5407,-3.5677,1.2625,1.0708,0.7524,0.5263,0.3791,0.2502,0.1286,0.0075,-0.0988,-0.2147,-0.3452,-0.4732,-0.5854,-0.6556,-0.6938,-0.7472,-0.8008,-0.8475,-0.9003,-0.9458,-0.9836,-1.0288,-1.0663,-1.0962,-1.126,-1.1484,-1.1706,-1.1922,-1.2144,-1.2171,-1.2124,-1.2078,-1.2264,-1.2276,-1.21,-1.2557,-1.2849,-1.3014,-1.3346,-1.36,-1.3868,-1.4351,-1.4751,-1.492,-1.5064,-1.5196,-1.5267,-1.533,-1.5471,-1.5692,-1.5903,-1.6193,-1.6673,-1.695,-1.7285,-1.7696,-1.8037,-1.8327,-1.8787,-1.9187,-1.9507,-1.9835,-2.0194,-2.0506,-2.1088,-2.2085,-2.2579,-2.2886,-2.3854,-2.4232,-2.452,-2.4936,-2.538,-2.5725,-2.6396,-2.6916,-2.7542,-2.8359,-2.8754,-2.8879,-2.9171,-2.9205,-2.9504,-2.987,-2.9979,-3.0176,-3.0358,-3.0553,-3.0718,-3.0896,-3.1233,-3.1622,-3.1946,-3.2367,-3.2672,-3.2834,-3.2942,-3.2996,-3.3049,-3.3245,-3.3403,-3.3507,-3.3626,-3.3813,-3.3998,-3.4131,-3.4034,-3.3889,-3.4038,-3.4333,-3.4415,-3.4497,-3.4594,-3.4707,-3.4913,1.3091,1.1254,0.8528,0.6373,0.4766,0.3482,0.2393,0.1217,-0.0,-0.094,-0.172,-0.3285,-0.4304,-0.516,-0.578,-0.6395,-0.6934,-0.7318,-0.7855,-0.8318,-0.8694,-0.9155,-0.9533,-0.9836,-1.0137,-1.0438,-1.0663,-1.0812,-1.1037,-1.1162,-1.1391,-1.1571,-1.167,-1.1832,-1.1948,-1.2144,-1.2331,-1.2464,-1.2739,-1.2966,-1.331,-1.3702,-1.4019,-1.4243,-1.4266,-1.4346,-1.4489,-1.4625,-1.4689,-1.4903,-1.5117,-1.5401,-1.5683,-1.6026,-1.6385,-1.6793,-1.701,-1.7364,-1.7706,-1.8172,-1.8519,-1.8865,-1.9306,-1.9799,-2.0402,-2.0994,-2.1495,-2.2215,-2.3123,-2.384,-2.4053,-2.4481,-2.4861,-2.5281,-2.6065,-2.6778,-2.7551,-2.8265,-2.8329,-2.8287,-2.8298,-2.8322,-2.8607,-2.8967,-2.9184,-2.9373,-2.956,-2.9685,-2.987,-3.0054,-3.0283,-3.0629,-3.0911,-3.1392,-3.1894,-3.2176,-3.2287,-3.2327,-3.2382,-3.2602,-3.2765,-3.2873,-3.3049,-3.324,-3.3377,-3.355,-3.3555,-3.3427,-3.3665,-3.385,-3.3882,-3.3899,-3.4,-3.4101,-3.4151,1.323,1.0807,0.8765,0.7211,0.5972,0.464,0.3398,0.2131,0.1241,0.0314,-0.0628,-0.1488,-0.2738,-0.438,-0.4774,-0.5315,-0.5928,-0.624,-0.6707,-0.7246,-0.7629,-0.8093,-0.8475,-0.8851,-0.9089,-0.9468,-0.9841,-1.0067,-1.0137,-1.0282,-1.0432,-1.0513,-1.0911,-1.1067,-1.1049,-1.1329,-1.1558,-1.1781,-1.1935,-1.2077,-1.2599,-1.2966,-1.3484,-1.363,-1.3637,-1.371,-1.3702,-1.3775,-1.3783,-1.3848,-1.4049,-1.4394,-1.4681,-1.4958,-1.5392,-1.5824,-1.6105,-1.6455,-1.6802,-1.7282,-1.7665,-1.8115,-1.8576,-1.929,-1.9917,-2.0514,-2.0993,-2.1355,-2.2219,-2.3128,-2.3561,-2.4244,-2.4701,-2.5105,-2.5697,-2.6156,-2.6731,-2.7117,-2.7253,-2.731,-2.7311,-2.7432,-2.7723,-2.8012,-2.8222,-2.8417,-2.8675,-2.8803,-2.8994,-2.9121,-2.9387,-2.9685,-2.9979,-3.0478,-3.1073,-3.1394,-3.1552,-3.161,-3.1724,-3.1936,-3.2104,-3.2302,-3.2468,-3.2633,-3.2843,-3.3052,-3.2973,-3.2971,-3.3124,-3.3261,-3.3277,-3.3293,-3.3398,-3.3487,-3.3523]}]]